GFSSE_500_temp_000.txt.gz
Temp
-12 -12 -12 -13 -13 -13 -13 -13 -13 -13 -13 -13 -14 -14 -14 -14 -14 -14 -14 -13 -13 -13 -12 -13 -13 -12 -12 -12 -12 -12 -12 -11 -11 -11 -11 -11 -11 -11 -11 -11 -11 -10 -9
-13 -13 -13 -14 -14 -13 -13 -13 -14 -14 -13 -14 -14 -14 -14 -15 -15 -14 -14 -14 -14 -14 -14 -14 -14 -14 -13 -12 -12 -12 -13 -12 -11 -11 -11 -11 -11 -11 -11 -11 -11 -10 -10
-14 -14 -14 -14 -14 -14 -14 -14 -15 -15 -14 -15 -14 -15 -14 -15 -15 -14 -14 -15 -15 -14 -14 -14 -14 -15 -13 -14 -12 -13 -12 -14 -12 -11 -11 -11 -11 -11 -11 -11 -11 -11 -11
-14 -14 -15 -15 -15 -15 -14 -15 -15 -14 -15 -15 -14 -15 -15 -14 -14 -15 -15 -15 -15 -15 -14 -14 -14 -14 -14 -14 -13 -13 -13 -13 -14 -12 -11 -11 -11 -11 -11 -11 -11 -11 -11
-15 -15 -15 -15 -15 -15 -15 -15 -15 -15 -15 -15 -15 -14 -14 -14 -14 -15 -15 -15 -15 -14 -14 -14 -14 -13 -14 -14 -14 -13 -14 -13 -14 -13 -12 -11 -11 -11 -11 -11 -11 -11 -11
-15 -15 -15 -15 -15 -15 -15 -15 -15 -15 -15 -15 -15 -14 -15 -14 -15 -15 -15 -15 -14 -14 -14 -14 -14 -14 -14 -14 -14 -14 -15 -14 -13 -15 -14 -12 -12 -12 -12 -11 -11 -11 -11
-15 -15 -16 -15 -15 -15 -15 -15 -15 -15 -15 -14 -14 -15 -15 -15 -15 -15 -15 -14 -14 -14 -14 -14 -14 -14 -14 -14 -13 -14 -13 -14 -13 -14 -15 -14 -13 -12 -13 -13 -12 -12 -11
-15 -15 -15 -16 -16 -16 -15 -15 -15 -14 -14 -15 -15 -15 -14 -15 -15 -15 -15 -15 -14 -14 -14 -14 -14 -14 -14 -14 -14 -14 -14 -13 -13 -14 -15 -16 -15 -13 -13 -14 -13 -13 -12
-15 -15 -16 -16 -15 -15 -15 -15 -15 -15 -15 -15 -15 -15 -15 -14 -14 -15 -15 -15 -14 -14 -14 -14 -14 -14 -14 -14 -14 -14 -14 -14 -13 -14 -14 -14 -15 -14 -14 -13 -14 -14 -13
-15 -15 -16 -15 -15 -15 -15 -15 -15 -14 -14 -15 -15 -15 -15 -15 -14 -14 -14 -15 -15 -15 -15 -14 -14 -14 -14 -14 -14 -13 -13 -14 -14 -14 -15 -14 -15 -15 -14 -14 -14 -14 -14
-15 -14 -15 -15 -15 -15 -15 -15 -15 -15 -15 -15 -15 -15 -14 -14 -14 -15 -15 -15 -15 -15 -15 -15 -15 -15 -15 -15 -15 -14 -14 -14 -14 -14 -14 -14 -15 -15 -14 -14 -14 -14 -14
-15 -14 -14 -15 -15 -15 -15 -15 -15 -15 -15 -15 -15 -15 -14 -14 -14 -14 -15 -15 -15 -15 -15 -15 -15 -15 -15 -15 -15 -15 -14 -14 -14 -14 -14 -15 -14 -15 -14 -14 -14 -14 -14
-15 -15 -14 -15 -15 -15 -15 -15 -15 -15 -15 -15 -15 -15 -15 -15 -15 -15 -15 -15 -15 -15 -15 -15 -15 -15 -15 -15 -15 -15 -15 -15 -14 -14 -14 -14 -14 -14 -15 -15 -15 -14 -14
-15 -15 -14 -14 -14 -15 -15 -15 -15 -14 -15 -15 -15 -15 -15 -15 -15 -15 -15 -15 -15 -15 -15 -15 -15 -15 -15 -15 -15 -15 -15 -15 -15 -14 -14 -13 -14 -14 -15 -14 -15 -15 -15
-14 -14 -15 -15 -14 -14 -14 -14 -15 -14 -15 -15 -15 -14 -15 -15 -15 -15 -15 -15 -15 -15 -15 -15 -15 -15 -15 -15 -15 -15 -15 -15 -15 -15 -14 -14 -14 -15 -15 -15 -15 -15 -15
-13 -14 -14 -14 -14 -14 -14 -14 -14 -14 -14 -14 -14 -14 -15 -15 -15 -15 -15 -15 -15 -15 -15 -15 -15 -15 -15 -15 -15 -15 -15 -15 -15 -15 -15 -15 -14 -14 -16 -16 -15 -15 -15
-14 -14 -14 -14 -14 -14 -14 -14 -14 -14 -14 -14 -14 -14 -14 -14 -14 -14 -15 -15 -15 -15 -15 -15 -16 -16 -16 -16 -16 -16 -15 -15 -15 -15 -15 -15 -15 -15 -15 -16 -16 -15 -15
-13 -14 -14 -14 -14 -14 -14 -14 -14 -14 -14 -14 -14 -14 -14 -14 -14 -14 -14 -14 -15 -15 -15 -15 -15 -15 -16 -16 -16 -16 -16 -16 -16 -16 -16 -15 -15 -15 -15 -15 -15 -15 -15
-14 -14 -14 -14 -14 -14 -14 -14 -14 -14 -14 -14 -14 -14 -14 -14 -14 -14 -15 -15 -15 -15 -15 -15 -15 -15 -15 -15 -16 -16 -16 -17 -17 -16 -16 -16 -16 -16 -16 -16 -16 -15 -16
-13 -13 -14 -14 -14 -14 -14 -14 -14 -14 -14 -14 -14 -14 -14 -15 -15 -15 -15 -15 -15 -15 -16 -16 -16 -16 -16 -16 -16 -16 -17 -17 -17 -17 -17 -17 -17 -16 -16 -16 -16 -16 -16
-14 -14 -14 -14 -14 -15 -14 -14 -14 -15 -15 -15 -15 -14 -15 -15 -15 -15 -15 -15 -16 -16 -16 -16 -16 -16 -16 -16 -16 -16 -17 -17 -18 -18 -18 -17 -17 -17 -17 -16 -16 -16 -16
-15 -15 -15 -15 -15 -16 -15 -15 -15 -15 -15 -15 -15 -15 -15 -15 -16 -16 -16 -16 -16 -16 -16 -17 -17 -17 -17 -17 -17 -17 -17 -18 -18 -18 -18 -18 -18 -18 -17 -17 -17 -17 -17
-15 -15 -16 -16 -16 -16 -15 -15 -15 -15 -15 -15 -15 -16 -16 -16 -16 -16 -16 -16 -16 -16 -16 -16 -17 -17 -17 -18 -18 -18 -18 -18 -19 -20 -19 -19 -19 -18 -18 -18 -18 -17 -17
-15 -15 -15 -15 -16 -15 -15 -15 -15 -15 -15 -16 -16 -17 -17 -17 -17 -17 -17 -17 -17 -16 -17 -17 -17 -18 -18 -19 -20 -20 -20 -19 -19 -19 -21 -21 -20 -20 -19 -19 -18 -18 -18
-15 -15 -15 -15 -15 -15 -14 -15 -15 -15 -16 -16 -16 -16 -17 -17 -17 -18 -18 -18 -17 -17 -18 -17 -17 -18 -19 -20 -21 -21 -22 -22 -22 -22 -21 -21 -22 -21 -20 -19 -19 -19 -19
-16 -16 -17 -15 -15 -15 -16 -16 -17 -17 -17 -17 -17 -17 -17 -17 -17 -18 -18 -19 -19 -18 -18 -19 -20 -20 -21 -22 -22 -23 -23 -23 -23 -23 -23 -22 -21 -22 -22 -21 -20 -19 -19

GFSSE_500_temp_003.txt.gz
Temp
-12 -12 -13 -13 -14 -13 -13 -13 -12 -13 -13 -13 -14 -14 -14 -15 -14 -15 -15 -15 -14 -15 -13 -14 -14 -14 -14 -13 -13 -14 -13 -12 -12 -12 -11 -11 -11 -11 -10 -11 -11 -11 -10
-13 -13 -14 -14 -14 -14 -13 -13 -13 -14 -14 -15 -15 -15 -15 -15 -15 -15 -14 -14 -14 -15 -14 -14 -14 -14 -13 -13 -14 -13 -14 -12 -12 -13 -13 -11 -11 -11 -11 -11 -11 -11 -11
-13 -14 -14 -14 -14 -14 -14 -15 -15 -15 -15 -15 -15 -15 -15 -15 -15 -15 -15 -15 -15 -15 -14 -14 -14 -14 -14 -14 -14 -14 -13 -13 -12 -13 -14 -13 -12 -11 -11 -11 -11 -11 -11
-13 -14 -14 -14 -15 -15 -15 -15 -16 -15 -15 -15 -15 -15 -15 -15 -15 -15 -15 -15 -15 -15 -14 -14 -14 -14 -14 -14 -13 -14 -13 -14 -13 -13 -14 -14 -13 -12 -11 -11 -11 -11 -11
-15 -15 -15 -16 -16 -16 -16 -15 -16 -15 -15 -15 -15 -15 -15 -15 -15 -15 -15 -15 -15 -15 -14 -14 -14 -14 -14 -14 -14 -14 -14 -13 -14 -14 -13 -13 -14 -13 -12 -12 -11 -11 -11
-15 -15 -15 -15 -16 -16 -15 -15 -15 -15 -15 -15 -15 -15 -15 -15 -15 -15 -15 -15 -15 -15 -15 -14 -14 -14 -14 -14 -14 -14 -14 -13 -14 -13 -13 -13 -15 -13 -14 -13 -12 -11 -11
-16 -16 -15 -15 -15 -15 -15 -15 -15 -15 -15 -15 -15 -15 -15 -15 -15 -15 -15 -15 -15 -15 -15 -14 -14 -14 -14 -14 -14 -14 -13 -14 -13 -13 -13 -14 -15 -15 -13 -14 -13 -12 -12
-16 -16 -15 -15 -15 -15 -15 -15 -15 -15 -15 -15 -15 -15 -15 -15 -15 -15 -15 -15 -15 -15 -15 -15 -14 -14 -14 -14 -14 -14 -14 -14 -13 -13 -13 -13 -14 -15 -14 -14 -14 -12 -12
-15 -15 -15 -15 -15 -15 -15 -15 -15 -15 -15 -15 -15 -15 -15 -15 -15 -15 -15 -15 -15 -15 -15 -15 -15 -15 -15 -14 -14 -14 -14 -14 -14 -13 -13 -13 -14 -15 -14 -15 -15 -13 -13
-15 -15 -15 -15 -15 -15 -15 -15 -15 -15 -15 -15 -15 -16 -16 -15 -15 -15 -15 -15 -15 -15 -15 -15 -15 -15 -15 -15 -15 -14 -14 -14 -14 -14 -14 -14 -14 -14 -15 -15 -15 -15 -14
-15 -15 -15 -15 -15 -15 -15 -15 -15 -15 -15 -15 -15 -15 -15 -15 -15 -16 -16 -16 -16 -16 -16 -15 -15 -15 -15 -15 -15 -15 -15 -14 -14 -14 -15 -14 -14 -14 -14 -15 -15 -15 -14
-14 -15 -15 -15 -15 -15 -15 -15 -15 -15 -15 -15 -15 -15 -15 -15 -15 -15 -15 -15 -15 -15 -15 -15 -15 -15 -15 -15 -15 -15 -15 -15 -14 -14 -14 -15 -15 -14 -14 -14 -14 -15 -15
-15 -14 -14 -14 -14 -15 -15 -15 -15 -15 -15 -15 -15 -15 -15 -15 -15 -15 -15 -15 -15 -15 -15 -15 -15 -15 -15 -15 -15 -15 -15 -15 -15 -15 -15 -15 -15 -15 -15 -14 -15 -14 -14
-14 -14 -14 -14 -14 -14 -14 -14 -15 -15 -15 -15 -15 -15 -15 -15 -15 -15 -15 -15 -15 -15 -15 -15 -15 -15 -15 -15 -15 -15 -15 -15 -14 -14 -15 -15 -15 -14 -14 -14 -15 -14 -14
-14 -14 -14 -14 -14 -14 -14 -14 -14 -14 -14 -14 -14 -15 -15 -15 -15 -14 -15 -15 -14 -14 -15 -15 -15 -15 -15 -15 -15 -15 -15 -15 -15 -15 -15 -14 -14 -14 -14 -14 -15 -15 -15
-14 -14 -14 -14 -14 -14 -14 -14 -14 -14 -14 -14 -15 -15 -14 -14 -14 -15 -14 -14 -15 -15 -15 -15 -15 -15 -15 -15 -15 -15 -15 -15 -15 -15 -15 -15 -15 -14 -14 -14 -14 -15 -15
-13 -14 -14 -14 -14 -14 -14 -14 -14 -14 -14 -14 -14 -14 -14 -14 -14 -14 -14 -14 -15 -15 -15 -15 -15 -15 -15 -15 -15 -15 -15 -15 -15 -15 -15 -15 -15 -15 -15 -14 -14 -14 -15
-14 -15 -15 -15 -15 -15 -15 -15 -15 -15 -15 -15 -15 -14 -14 -14 -14 -14 -14 -14 -14 -15 -15 -15 -15 -15 -15 -15 -15 -15 -15 -16 -15 -15 -15 -15 -16 -16 -15 -15 -15 -15 -15
-14 -14 -14 -15 -15 -14 -14 -14 -14 -15 -14 -14 -14 -14 -14 -14 -14 -14 -14 -14 -14 -15 -15 -15 -16 -16 -16 -16 -16 -16 -16 -16 -16 -16 -16 -15 -16 -16 -16 -16 -15 -15 -15
-14 -14 -14 -15 -15 -15 -15 -14 -14 -14 -14 -14 -14 -15 -15 -15 -15 -15 -15 -15 -15 -15 -15 -16 -16 -16 -16 -16 -16 -16 -16 -16 -16 -16 -16 -16 -16 -16 -16 -16 -16 -16 -15
-15 -15 -15 -15 -15 -15 -15 -15 -15 -15 -15 -15 -15 -14 -15 -15 -15 -15 -16 -16 -16 -16 -16 -16 -16 -16 -17 -16 -16 -17 -17 -17 -17 -16 -17 -17 -17 -17 -16 -16 -16 -17 -16
-15 -15 -16 -16 -16 -16 -16 -16 -16 -16 -16 -16 -16 -15 -15 -15 -15 -16 -16 -16 -16 -17 -17 -17 -18 -18 -18 -18 -17 -17 -17 -17 -17 -16 -17 -17 -17 -17 -17 -17 -17 -17 -17
-15 -16 -16 -16 -16 -15 -15 -15 -15 -15 -15 -16 -16 -16 -16 -16 -16 -16 -17 -17 -17 -17 -17 -17 -17 -17 -18 -18 -18 -17 -17 -17 -17 -18 -18 -18 -18 -18 -18 -18 -18 -17 -17
-15 -15 -16 -15 -15 -15 -15 -15 -15 -15 -15 -15 -15 -15 -16 -17 -17 -17 -17 -18 -18 -18 -17 -18 -17 -17 -17 -18 -18 -18 -19 -18 -18 -18 -20 -20 -20 -20 -20 -20 -19 -19 -18
-16 -17 -16 -16 -15 -15 -16 -16 -16 -16 -16 -17 -17 -17 -17 -17 -18 -18 -18 -18 -18 -18 -18 -18 -18 -18 -19 -19 -19 -18 -19 -20 -19 -19 -18 -21 -22 -22 -22 -22 -21 -20 -20
-16 -16 -15 -16 -16 -16 -17 -17 -17 -17 -17 -17 -17 -18 -18 -18 -18 -18 -18 -18 -19 -19 -20 -20 -20 -20 -20 -20 -20 -20 -20 -20 -21 -22 -22 -22 -23 -24 -23 -23 -23 -22 -21

GFSSE_500_temp_006.txt.gz
Temp
-13 -13 -13 -13 -13 -14 -13 -13 -14 -13 -14 -14 -14 -15 -16 -15 -15 -15 -15 -15 -15 -15 -15 -14 -14 -15 -14 -14 -13 -13 -12 -12 -13 -13 -13 -13 -13 -12 -12 -11 -11 -11 -11
-13 -13 -13 -13 -14 -14 -14 -14 -14 -14 -14 -15 -15 -16 -15 -15 -14 -14 -14 -15 -15 -15 -15 -15 -14 -14 -14 -14 -13 -13 -13 -13 -14 -14 -13 -13 -13 -13 -12 -11 -11 -12 -11
-14 -14 -15 -15 -14 -14 -15 -15 -15 -15 -15 -15 -16 -15 -16 -15 -15 -15 -15 -15 -15 -15 -15 -15 -15 -14 -14 -14 -13 -13 -13 -13 -13 -13 -13 -13 -13 -13 -13 -12 -11 -12 -12
-15 -14 -15 -15 -15 -15 -15 -15 -15 -15 -15 -15 -15 -16 -16 -16 -16 -15 -15 -15 -15 -15 -15 -15 -14 -14 -14 -14 -14 -14 -13 -13 -13 -13 -13 -13 -13 -13 -13 -13 -12 -12 -12
-15 -15 -16 -15 -16 -16 -16 -16 -15 -15 -15 -15 -15 -16 -16 -16 -15 -15 -15 -15 -15 -15 -15 -15 -15 -15 -15 -15 -14 -14 -14 -14 -14 -12 -13 -13 -13 -13 -13 -13 -12 -12 -12
-15 -15 -16 -16 -16 -16 -16 -15 -15 -15 -15 -15 -16 -16 -16 -15 -15 -15 -15 -15 -15 -15 -15 -15 -15 -15 -15 -15 -14 -14 -14 -14 -14 -13 -13 -13 -13 -13 -13 -14 -13 -12 -12
-15 -16 -16 -16 -16 -16 -16 -15 -15 -15 -15 -15 -15 -15 -15 -15 -15 -15 -15 -15 -15 -15 -15 -15 -15 -15 -15 -15 -15 -14 -14 -14 -14 -14 -14 -13 -13 -13 -14 -14 -14 -14 -13
-15 -15 -16 -15 -15 -15 -15 -15 -15 -15 -15 -15 -15 -15 -15 -15 -15 -15 -15 -15 -15 -15 -15 -15 -15 -15 -15 -15 -14 -14 -14 -14 -14 -14 -14 -13 -13 -13 -14 -14 -15 -14 -14
-15 -15 -15 -15 -15 -15 -15 -15 -15 -15 -15 -15 -15 -15 -15 -15 -15 -15 -15 -15 -16 -16 -16 -16 -16 -15 -15 -15 -15 -15 -14 -14 -14 -14 -13 -14 -13 -14 -14 -15 -15 -14 -14
-15 -15 -15 -15 -15 -15 -15 -15 -15 -15 -15 -15 -15 -15 -15 -15 -15 -15 -15 -15 -15 -15 -15 -16 -16 -16 -15 -15 -15 -15 -15 -15 -15 -14 -14 -14 -13 -14 -14 -14 -15 -15 -15
-15 -15 -15 -15 -14 -14 -15 -14 -15 -15 -15 -15 -15 -15 -15 -15 -15 -15 -15 -15 -15 -15 -15 -15 -15 -15 -15 -15 -15 -15 -15 -15 -15 -15 -14 -14 -14 -14 -13 -14 -14 -15 -15
-14 -14 -14 -15 -15 -15 -15 -14 -14 -14 -14 -14 -14 -15 -14 -15 -15 -15 -15 -15 -15 -15 -15 -15 -15 -15 -15 -15 -15 -15 -15 -15 -15 -15 -14 -14 -14 -14 -15 -15 -15 -15 -15
-14 -14 -14 -14 -14 -14 -14 -14 -14 -14 -14 -14 -14 -15 -15 -15 -15 -15 -15 -15 -15 -15 -15 -15 -15 -15 -15 -15 -15 -14 -14 -14 -14 -15 -14 -14 -14 -15 -15 -15 -16 -15 -15
-14 -14 -14 -14 -14 -14 -14 -14 -14 -14 -14 -14 -14 -14 -15 -15 -15 -15 -15 -15 -15 -15 -15 -15 -14 -14 -14 -15 -15 -14 -15 -15 -15 -14 -15 -14 -14 -14 -14 -15 -15 -15 -15
-13 -13 -14 -14 -14 -14 -14 -14 -14 -14 -14 -15 -15 -15 -15 -15 -15 -15 -15 -15 -15 -15 -15 -15 -15 -15 -15 -14 -14 -14 -14 -14 -15 -15 -15 -15 -14 -14 -14 -14 -15 -15 -15
-13 -13 -13 -13 -13 -13 -13 -14 -14 -14 -14 -15 -15 -14 -14 -14 -14 -14 -14 -14 -14 -14 -15 -15 -15 -15 -15 -15 -15 -15 -15 -15 -15 -15 -15 -15 -15 -15 -14 -14 -14 -14 -14
-14 -14 -14 -14 -14 -14 -14 -14 -14 -14 -14 -14 -14 -14 -14 -14 -14 -14 -14 -14 -14 -14 -14 -14 -14 -15 -15 -15 -15 -15 -15 -15 -15 -15 -15 -15 -15 -15 -15 -15 -15 -14 -14
-14 -14 -14 -15 -15 -15 -15 -15 -15 -15 -14 -14 -14 -14 -14 -14 -14 -14 -14 -14 -14 -14 -14 -14 -14 -14 -15 -15 -15 -15 -15 -15 -15 -15 -15 -15 -15 -15 -15 -15 -15 -15 -15
-15 -15 -15 -15 -15 -15 -14 -14 -14 -14 -14 -14 -14 -14 -14 -14 -14 -14 -14 -14 -14 -14 -15 -15 -15 -15 -15 -15 -15 -15 -16 -16 -16 -16 -15 -15 -15 -15 -15 -15 -15 -15 -15
-14 -14 -14 -15 -15 -15 -15 -15 -15 -15 -15 -15 -15 -15 -15 -15 -15 -15 -15 -15 -15 -15 -15 -15 -16 -16 -16 -16 -16 -16 -16 -16 -16 -16 -16 -16 -16 -16 -15 -15 -15 -15 -15
-15 -15 -15 -15 -15 -16 -15 -15 -15 -16 -16 -16 -16 -16 -16 -16 -16 -16 -16 -16 -16 -16 -16 -16 -16 -17 -17 -17 -17 -17 -17 -17 -17 -17 -17 -17 -16 -16 -16 -16 -16 -16 -15
-16 -16 -16 -16 -16 -16 -16 -16 -16 -16 -16 -16 -15 -16 -16 -16 -15 -15 -15 -16 -16 -16 -16 -17 -17 -18 -18 -18 -18 -18 -18 -18 -18 -18 -17 -17 -17 -17 -17 -17 -17 -16 -16
-16 -16 -16 -16 -16 -15 -15 -15 -15 -15 -15 -15 -15 -15 -16 -16 -16 -16 -16 -16 -16 -17 -17 -18 -18 -18 -19 -19 -19 -19 -18 -18 -19 -19 -18 -18 -18 -18 -18 -18 -18 -17 -17
-16 -15 -15 -15 -15 -16 -16 -16 -16 -16 -15 -16 -16 -16 -17 -17 -17 -17 -18 -18 -18 -18 -18 -18 -18 -18 -19 -19 -19 -19 -19 -19 -19 -19 -19 -19 -19 -19 -19 -18 -18 -18 -18
-15 -15 -16 -16 -16 -17 -16 -16 -16 -16 -16 -16 -17 -17 -17 -18 -18 -19 -19 -19 -19 -19 -19 -19 -19 -19 -19 -19 -19 -19 -19 -20 -20 -20 -19 -20 -20 -20 -20 -20 -20 -19 -20
-16 -17 -16 -16 -17 -17 -17 -17 -17 -17 -17 -18 -18 -18 -19 -19 -19 -19 -19 -20 -20 -20 -20 -20 -20 -20 -21 -21 -21 -20 -21 -20 -20 -21 -21 -20 -20 -23 -23 -23 -23 -22 -22

GFSSE_500_temp_009.txt.gz
Temp
-13 -13 -13 -13 -14 -14 -14 -13 -14 -14 -14 -14 -14 -14 -15 -15 -15 -15 -15 -15 -15 -15 -14 -14 -14 -14 -14 -14 -14 -13 -13 -13 -13 -12 -12 -13 -13 -12 -12 -12 -13 -12 -12
-14 -14 -14 -14 -14 -14 -14 -14 -14 -14 -15 -15 -15 -14 -15 -15 -15 -15 -15 -15 -15 -15 -15 -15 -14 -14 -14 -13 -13 -14 -13 -13 -13 -13 -12 -13 -13 -13 -12 -12 -12 -12 -12
-14 -14 -14 -14 -14 -14 -14 -14 -15 -15 -15 -14 -14 -15 -15 -15 -16 -15 -15 -15 -15 -15 -15 -15 -14 -15 -15 -14 -13 -14 -13 -13 -13 -14 -13 -12 -12 -13 -13 -12 -12 -12 -12
-14 -14 -14 -15 -15 -15 -16 -16 -15 -15 -15 -15 -15 -15 -15 -15 -15 -15 -14 -14 -15 -15 -15 -14 -15 -15 -15 -14 -14 -14 -14 -14 -14 -13 -13 -13 -13 -14 -13 -13 -12 -12 -13
-14 -14 -15 -16 -16 -16 -16 -16 -16 -16 -16 -15 -15 -15 -14 -15 -15 -15 -15 -15 -15 -15 -15 -15 -15 -15 -15 -15 -15 -15 -15 -15 -15 -14 -13 -14 -13 -13 -13 -13 -13 -13 -13
-14 -15 -15 -16 -16 -16 -16 -16 -15 -16 -16 -15 -15 -15 -15 -15 -15 -15 -15 -15 -15 -15 -14 -15 -15 -15 -15 -15 -15 -14 -14 -15 -15 -14 -14 -14 -13 -13 -12 -13 -13 -13 -14
-15 -15 -15 -15 -15 -15 -15 -15 -15 -15 -15 -15 -15 -15 -15 -15 -15 -14 -14 -14 -14 -15 -15 -15 -15 -15 -15 -15 -15 -15 -15 -15 -15 -15 -14 -14 -14 -14 -13 -13 -13 -13 -13
-14 -14 -15 -15 -15 -15 -15 -15 -15 -15 -15 -15 -15 -15 -15 -15 -15 -15 -15 -15 -15 -15 -15 -15 -15 -15 -15 -15 -15 -15 -15 -15 -15 -15 -14 -14 -14 -14 -14 -14 -13 -13 -13
-14 -14 -14 -14 -14 -14 -14 -14 -14 -15 -15 -15 -15 -15 -15 -15 -15 -15 -15 -15 -15 -15 -15 -15 -15 -15 -15 -15 -15 -15 -15 -15 -15 -15 -15 -14 -14 -14 -14 -14 -14 -14 -14
-14 -14 -14 -14 -14 -14 -14 -15 -15 -15 -15 -15 -15 -15 -15 -15 -15 -15 -15 -15 -15 -15 -15 -15 -15 -15 -15 -15 -14 -15 -15 -15 -15 -15 -15 -15 -14 -14 -14 -13 -14 -14 -14
-14 -14 -14 -14 -14 -15 -14 -15 -15 -15 -15 -15 -14 -14 -14 -15 -15 -15 -15 -15 -15 -15 -15 -15 -15 -15 -15 -15 -15 -14 -14 -14 -14 -15 -14 -14 -14 -14 -15 -14 -14 -14 -14
-14 -14 -14 -14 -15 -15 -15 -15 -15 -15 -14 -14 -14 -14 -14 -14 -14 -14 -15 -15 -15 -15 -15 -15 -15 -15 -15 -15 -14 -14 -14 -14 -14 -14 -14 -14 -14 -14 -14 -15 -14 -14 -14
-13 -13 -13 -14 -14 -14 -14 -14 -14 -14 -14 -14 -14 -14 -14 -14 -14 -14 -14 -14 -14 -15 -15 -15 -15 -15 -15 -15 -15 -15 -15 -14 -14 -14 -14 -14 -14 -14 -14 -14 -15 -15 -15
-14 -14 -14 -14 -14 -14 -14 -14 -14 -14 -14 -14 -14 -14 -14 -14 -14 -14 -14 -14 -14 -14 -14 -15 -15 -15 -15 -15 -15 -15 -14 -14 -14 -14 -14 -14 -14 -14 -14 -14 -15 -15 -15
-13 -13 -13 -13 -13 -13 -13 -14 -13 -14 -14 -13 -14 -14 -14 -14 -14 -14 -14 -14 -15 -15 -15 -14 -15 -15 -15 -15 -15 -15 -15 -14 -14 -14 -14 -14 -14 -14 -14 -14 -14 -15 -15
-13 -13 -13 -13 -13 -13 -13 -13 -13 -14 -14 -14 -14 -14 -14 -14 -15 -15 -15 -15 -15 -15 -15 -14 -14 -14 -14 -15 -15 -15 -15 -15 -15 -15 -14 -14 -14 -14 -14 -14 -14 -14 -14
-13 -13 -14 -14 -14 -14 -14 -14 -14 -14 -14 -14 -14 -14 -14 -14 -14 -14 -14 -14 -14 -14 -14 -14 -14 -14 -14 -14 -14 -15 -15 -15 -16 -16 -15 -15 -14 -14 -15 -15 -15 -14 -14
-14 -14 -14 -15 -15 -15 -15 -14 -14 -14 -14 -14 -14 -14 -14 -14 -14 -14 -14 -14 -14 -14 -14 -14 -14 -14 -14 -15 -14 -14 -15 -15 -15 -16 -16 -16 -16 -15 -15 -15 -15 -15 -15
-14 -15 -15 -15 -15 -14 -14 -14 -14 -14 -15 -15 -15 -15 -15 -15 -15 -15 -15 -15 -15 -15 -15 -15 -15 -15 -16 -16 -15 -15 -15 -15 -15 -16 -16 -16 -16 -16 -16 -16 -15 -15 -15
-14 -15 -15 -14 -14 -14 -14 -15 -15 -15 -15 -15 -15 -15 -15 -15 -15 -15 -15 -15 -15 -15 -16 -16 -16 -16 -16 -16 -16 -16 -16 -16 -16 -16 -16 -16 -16 -16 -16 -16 -16 -16 -16
-14 -15 -15 -15 -15 -15 -15 -15 -15 -15 -16 -16 -16 -16 -15 -15 -15 -15 -15 -15 -15 -16 -16 -16 -16 -17 -17 -17 -17 -17 -17 -17 -17 -17 -17 -17 -17 -17 -17 -17 -17 -16 -17
-15 -15 -15 -15 -15 -15 -16 -16 -16 -16 -16 -15 -15 -15 -15 -15 -16 -16 -16 -16 -17 -17 -17 -18 -18 -17 -17 -18 -18 -18 -18 -18 -18 -19 -18 -18 -18 -18 -17 -17 -17 -17 -17
-15 -15 -16 -16 -16 -16 -16 -16 -15 -15 -15 -15 -15 -15 -16 -17 -17 -17 -17 -17 -17 -18 -18 -18 -19 -19 -19 -19 -19 -19 -19 -19 -19 -19 -19 -19 -18 -18 -18 -18 -18 -18 -17
-15 -16 -16 -16 -16 -16 -16 -16 -15 -15 -16 -16 -16 -17 -17 -17 -17 -17 -18 -18 -18 -19 -19 -19 -19 -19 -19 -19 -19 -20 -20 -20 -20 -20 -20 -20 -20 -20 -19 -19 -18 -18 -18
-16 -16 -16 -16 -16 -16 -16 -16 -17 -17 -17 -17 -17 -17 -18 -18 -19 -19 -19 -19 -20 -20 -20 -20 -21 -20 -20 -20 -20 -20 -20 -20 -20 -21 -21 -21 -20 -20 -20 -19 -19 -19 -19
-16 -16 -16 -17 -17 -17 -17 -17 -17 -17 -17 -17 -18 -19 -19 -19 -19 -20 -20 -21 -21 -21 -21 -21 -21 -21 -21 -21 -21 -21 -21 -21 -21 -21 -21 -21 -21 -22 -22 -21 -22 -22 -21

GFSSE_500_temp_012.txt.gz
Temp
-13 -13 -13 -13 -13 -13 -13 -13 -13 -13 -13 -13 -14 -13 -14 -14 -14 -15 -14 -15 -15 -14 -14 -14 -14 -14 -14 -14 -14 -14 -14 -13 -13 -13 -13 -12 -12 -12 -12 -12 -11 -11 -11
-13 -13 -13 -13 -13 -13 -13 -13 -14 -14 -14 -14 -14 -15 -15 -15 -15 -15 -15 -15 -15 -14 -15 -14 -14 -15 -15 -15 -15 -14 -14 -13 -13 -13 -13 -13 -13 -13 -13 -12 -12 -12 -11
-13 -13 -13 -13 -13 -14 -14 -14 -15 -15 -15 -15 -15 -15 -15 -15 -15 -14 -15 -14 -14 -14 -14 -14 -15 -15 -15 -15 -15 -15 -15 -15 -14 -14 -13 -13 -13 -13 -13 -13 -12 -12 -12
-14 -14 -14 -14 -14 -14 -14 -14 -15 -15 -15 -15 -15 -15 -15 -14 -14 -14 -15 -15 -15 -15 -15 -14 -15 -15 -15 -15 -15 -15 -15 -15 -15 -15 -14 -14 -13 -13 -13 -13 -13 -13 -12
-14 -14 -14 -14 -14 -15 -15 -15 -15 -15 -15 -15 -15 -15 -15 -14 -14 -14 -14 -14 -15 -15 -14 -14 -14 -15 -15 -15 -15 -15 -15 -15 -15 -15 -15 -15 -14 -14 -13 -14 -13 -13 -13
-14 -14 -14 -14 -15 -15 -15 -15 -15 -14 -15 -15 -15 -15 -15 -15 -15 -14 -15 -14 -14 -14 -14 -14 -14 -15 -15 -15 -15 -15 -15 -15 -15 -15 -15 -15 -15 -14 -14 -14 -14 -13 -13
-14 -14 -14 -14 -14 -15 -15 -14 -15 -15 -15 -15 -15 -15 -15 -15 -15 -15 -15 -15 -15 -15 -15 -15 -15 -15 -14 -15 -15 -15 -15 -15 -15 -15 -15 -15 -15 -15 -15 -15 -15 -14 -14
-14 -14 -14 -14 -14 -14 -14 -14 -14 -14 -14 -14 -14 -14 -14 -14 -14 -14 -14 -14 -14 -14 -14 -15 -15 -15 -15 -15 -15 -15 -15 -15 -15 -15 -15 -15 -15 -14 -14 -14 -14 -14 -14
-13 -13 -14 -14 -14 -14 -14 -14 -14 -14 -14 -14 -14 -14 -14 -14 -14 -14 -14 -14 -14 -14 -14 -14 -14 -15 -14 -14 -14 -14 -14 -14 -15 -15 -15 -15 -15 -15 -14 -14 -14 -14 -14
-13 -14 -13 -14 -14 -14 -14 -14 -14 -14 -14 -14 -14 -14 -14 -14 -14 -14 -14 -14 -14 -14 -14 -14 -14 -14 -14 -14 -14 -14 -14 -15 -14 -14 -14 -14 -14 -14 -15 -14 -14 -14 -13
-13 -14 -14 -14 -13 -13 -14 -14 -14 -14 -14 -14 -14 -14 -14 -14 -14 -14 -15 -15 -15 -15 -15 -14 -14 -15 -14 -14 -14 -14 -14 -14 -14 -14 -14 -14 -14 -14 -14 -14 -14 -14 -14
-13 -14 -14 -14 -13 -13 -13 -13 -14 -14 -14 -14 -14 -14 -14 -14 -14 -14 -14 -14 -15 -15 -15 -15 -15 -15 -15 -15 -15 -15 -14 -14 -14 -14 -14 -14 -14 -14 -14 -14 -14 -14 -15
-13 -13 -13 -13 -13 -13 -13 -14 -14 -14 -14 -14 -14 -14 -14 -14 -14 -14 -14 -14 -15 -15 -15 -15 -15 -15 -15 -15 -15 -15 -15 -15 -15 -15 -14 -14 -14 -14 -14 -14 -14 -14 -14
-13 -13 -13 -13 -13 -14 -14 -14 -14 -14 -14 -14 -14 -14 -14 -14 -14 -14 -15 -15 -15 -15 -15 -15 -15 -15 -15 -14 -14 -14 -14 -14 -15 -15 -15 -15 -15 -14 -14 -14 -14 -14 -14
-13 -13 -13 -14 -14 -14 -14 -14 -14 -14 -14 -14 -14 -15 -15 -15 -15 -15 -15 -15 -15 -15 -15 -15 -15 -15 -15 -14 -14 -14 -14 -14 -14 -14 -14 -15 -15 -15 -15 -14 -14 -14 -14
-14 -14 -14 -14 -14 -14 -14 -14 -14 -14 -14 -14 -14 -14 -14 -15 -15 -14 -15 -15 -15 -15 -14 -14 -14 -14 -14 -14 -14 -14 -14 -14 -14 -14 -14 -14 -15 -15 -15 -15 -15 -15 -14
-14 -13 -14 -14 -14 -14 -15 -14 -14 -15 -15 -15 -14 -14 -14 -14 -14 -14 -14 -14 -14 -14 -14 -14 -14 -14 -14 -14 -14 -14 -14 -14 -14 -15 -15 -14 -14 -15 -15 -15 -15 -15 -15
-14 -14 -15 -14 -14 -14 -14 -15 -15 -14 -14 -14 -14 -15 -15 -15 -15 -15 -15 -15 -15 -15 -15 -15 -15 -15 -15 -15 -15 -15 -15 -15 -15 -15 -15 -15 -15 -15 -15 -15 -15 -15 -15
-14 -14 -14 -14 -14 -15 -15 -14 -14 -14 -15 -15 -15 -15 -15 -15 -15 -15 -15 -15 -15 -15 -15 -15 -15 -16 -16 -16 -16 -16 -16 -16 -16 -16 -16 -15 -15 -15 -15 -16 -16 -16 -15
-14 -14 -14 -14 -15 -15 -15 -15 -15 -15 -15 -15 -16 -16 -15 -15 -15 -15 -15 -15 -15 -15 -15 -15 -15 -15 -16 -17 -17 -17 -17 -17 -17 -17 -17 -17 -16 -16 -16 -16 -16 -16 -16
-14 -14 -15 -15 -15 -15 -15 -15 -15 -16 -16 -16 -16 -16 -15 -16 -15 -15 -15 -15 -15 -15 -16 -16 -16 -16 -17 -17 -17 -18 -18 -17 -18 -18 -18 -18 -18 -17 -16 -16 -16 -16 -16
-15 -15 -15 -15 -16 -16 -16 -16 -16 -16 -16 -16 -16 -16 -16 -15 -15 -15 -15 -15 -15 -16 -16 -17 -18 -17 -17 -18 -18 -19 -18 -18 -18 -19 -19 -19 -19 -18 -18 -18 -17 -17 -17
-15 -15 -15 -16 -16 -16 -16 -16 -16 -16 -16 -15 -15 -15 -16 -16 -16 -16 -17 -17 -17 -17 -17 -18 -18 -18 -18 -18 -19 -19 -19 -18 -19 -18 -17 -20 -19 -19 -19 -19 -18 -18 -18
-15 -15 -16 -16 -16 -16 -16 -16 -16 -16 -16 -16 -16 -16 -17 -17 -18 -18 -18 -18 -18 -18 -19 -19 -19 -19 -20 -20 -20 -20 -19 -20 -20 -20 -19 -19 -20 -19 -20 -20 -20 -19 -19
-15 -16 -16 -16 -16 -16 -16 -17 -17 -16 -16 -16 -17 -17 -18 -18 -19 -19 -19 -19 -19 -20 -20 -20 -21 -21 -21 -21 -22 -21 -21 -20 -20 -20 -20 -21 -20 -20 -20 -20 -20 -20 -20
-16 -16 -16 -16 -16 -16 -17 -16 -16 -17 -17 -18 -18 -19 -19 -20 -20 -20 -20 -20 -20 -21 -21 -21 -21 -21 -22 -22 -22 -22 -22 -22 -22 -21 -21 -21 -23 -21 -20 -21 -21 -21 -21

GFSSE_500_temp_015.txt.gz
Temp
-12 -12 -13 -13 -13 -13 -13 -13 -13 -14 -14 -15 -15 -15 -14 -15 -14 -15 -14 -14 -14 -14 -14 -14 -14 -14 -14 -14 -15 -15 -14 -14 -13 -13 -13 -13 -12 -12 -12 -12 -12 -12 -12
-12 -12 -13 -13 -12 -13 -13 -14 -14 -14 -14 -15 -15 -15 -15 -15 -15 -15 -15 -14 -14 -14 -14 -14 -14 -14 -14 -14 -14 -15 -14 -14 -14 -14 -14 -13 -13 -13 -12 -12 -12 -12 -11
-13 -12 -12 -13 -14 -14 -14 -14 -14 -14 -14 -14 -14 -15 -15 -14 -14 -15 -14 -14 -14 -14 -14 -14 -14 -14 -14 -14 -14 -14 -15 -15 -15 -15 -14 -14 -13 -14 -13 -13 -12 -13 -13
-12 -13 -13 -13 -14 -14 -14 -14 -14 -14 -14 -14 -14 -14 -14 -15 -15 -14 -14 -14 -14 -15 -14 -14 -14 -14 -14 -14 -14 -15 -15 -15 -15 -15 -15 -15 -14 -14 -14 -14 -13 -13 -13
-13 -13 -13 -13 -13 -14 -14 -14 -14 -14 -14 -14 -14 -14 -14 -14 -15 -14 -15 -15 -15 -14 -15 -14 -15 -15 -14 -14 -14 -15 -15 -15 -15 -14 -14 -14 -15 -15 -15 -14 -14 -14 -14
-13 -13 -13 -13 -14 -14 -14 -14 -14 -14 -14 -14 -14 -14 -14 -14 -14 -14 -14 -14 -14 -14 -14 -14 -14 -15 -15 -15 -15 -15 -15 -15 -15 -15 -14 -14 -15 -14 -15 -15 -15 -14 -14
-13 -13 -13 -13 -13 -14 -14 -14 -14 -13 -13 -13 -14 -14 -14 -14 -14 -14 -14 -14 -14 -14 -14 -14 -14 -14 -14 -15 -15 -15 -15 -15 -15 -15 -15 -14 -14 -14 -14 -15 -15 -14 -14
-13 -13 -14 -14 -14 -13 -13 -13 -13 -13 -13 -13 -13 -14 -14 -13 -13 -13 -13 -13 -14 -14 -14 -14 -14 -14 -14 -14 -14 -14 -15 -15 -15 -15 -15 -14 -15 -15 -15 -15 -15 -14 -16
-13 -14 -14 -13 -13 -13 -13 -13 -13 -13 -13 -13 -13 -14 -14 -14 -14 -14 -14 -14 -14 -14 -14 -14 -14 -14 -14 -14 -14 -14 -14 -15 -15 -15 -15 -14 -15 -14 -14 -15 -15 -14 -14
-13 -13 -13 -13 -13 -13 -13 -13 -13 -13 -13 -14 -14 -14 -14 -14 -14 -14 -14 -14 -14 -14 -14 -14 -14 -14 -14 -14 -14 -14 -14 -14 -14 -14 -14 -15 -14 -14 -14 -14 -14 -14 -14
-13 -13 -13 -13 -12 -13 -13 -13 -13 -13 -13 -13 -13 -14 -14 -14 -14 -14 -14 -14 -14 -15 -15 -15 -15 -14 -14 -14 -14 -14 -14 -14 -14 -14 -14 -15 -14 -14 -14 -14 -14 -14 -14
-13 -13 -13 -13 -13 -13 -13 -13 -13 -13 -14 -14 -14 -14 -14 -14 -14 -14 -15 -15 -15 -15 -15 -15 -15 -15 -15 -15 -14 -14 -14 -14 -14 -14 -14 -14 -14 -14 -14 -14 -14 -14 -14
-13 -13 -13 -13 -13 -13 -13 -13 -14 -14 -14 -14 -14 -14 -14 -14 -14 -14 -14 -14 -15 -15 -15 -15 -15 -15 -15 -15 -15 -14 -15 -15 -14 -14 -14 -14 -14 -14 -14 -14 -14 -14 -14
-13 -13 -13 -13 -13 -13 -13 -14 -14 -14 -14 -14 -14 -14 -15 -15 -15 -15 -15 -15 -15 -15 -15 -15 -14 -15 -14 -14 -15 -14 -14 -14 -14 -14 -14 -14 -14 -14 -14 -14 -14 -14 -14
-13 -13 -13 -14 -14 -14 -14 -14 -14 -14 -14 -15 -15 -15 -15 -15 -15 -15 -15 -15 -15 -15 -14 -14 -14 -14 -14 -14 -14 -14 -14 -14 -14 -14 -14 -15 -14 -14 -14 -14 -14 -14 -14
-14 -14 -14 -14 -14 -14 -14 -14 -14 -15 -15 -15 -15 -15 -15 -15 -15 -15 -15 -15 -15 -14 -14 -14 -14 -14 -14 -14 -14 -14 -14 -14 -14 -15 -14 -14 -14 -14 -14 -14 -14 -14 -14
-14 -14 -14 -14 -14 -14 -14 -15 -15 -14 -14 -15 -15 -15 -14 -14 -14 -15 -15 -15 -14 -14 -14 -14 -14 -14 -14 -14 -14 -14 -14 -14 -14 -14 -14 -14 -14 -15 -15 -15 -15 -15 -15
-14 -14 -14 -14 -14 -15 -15 -15 -15 -15 -15 -14 -14 -15 -15 -15 -15 -15 -15 -15 -15 -15 -15 -15 -15 -14 -15 -15 -15 -15 -14 -14 -14 -14 -14 -14 -14 -14 -15 -15 -15 -15 -15
-14 -14 -14 -14 -14 -15 -15 -15 -15 -15 -15 -15 -15 -15 -15 -15 -15 -15 -15 -15 -15 -15 -15 -15 -16 -16 -16 -16 -16 -15 -16 -16 -16 -16 -15 -15 -16 -15 -14 -15 -15 -15 -16
-14 -15 -15 -15 -15 -15 -15 -15 -15 -15 -15 -15 -15 -16 -16 -16 -16 -15 -15 -16 -16 -15 -16 -16 -16 -16 -16 -16 -16 -15 -16 -16 -16 -16 -16 -16 -16 -16 -17 -15 -15 -16 -15
-15 -15 -15 -15 -15 -15 -15 -16 -16 -16 -16 -16 -16 -16 -16 -16 -16 -16 -16 -16 -16 -16 -16 -16 -17 -16 -16 -17 -16 -17 -16 -17 -16 -17 -18 -17 -16 -16 -16 -17 -16 -16 -16
-15 -15 -15 -15 -16 -16 -16 -16 -17 -17 -17 -17 -16 -16 -16 -16 -16 -16 -16 -16 -17 -17 -17 -17 -17 -17 -17 -18 -18 -18 -17 -17 -17 -17 -17 -18 -18 -18 -17 -17 -17 -17 -17
-16 -16 -16 -16 -16 -16 -17 -17 -17 -17 -17 -16 -16 -16 -16 -17 -17 -18 -18 -18 -18 -18 -17 -18 -18 -18 -18 -18 -19 -19 -19 -19 -19 -19 -19 -17 -17 -18 -19 -18 -17 -18 -19
-16 -16 -16 -16 -16 -16 -17 -17 -17 -16 -16 -16 -16 -17 -17 -18 -18 -18 -18 -18 -19 -19 -19 -19 -19 -19 -20 -20 -20 -21 -21 -20 -21 -20 -21 -21 -19 -19 -18 -19 -19 -18 -18
-16 -16 -16 -16 -16 -16 -16 -16 -16 -16 -17 -17 -17 -18 -18 -18 -19 -19 -19 -19 -20 -20 -20 -20 -20 -20 -21 -21 -21 -21 -21 -22 -22 -22 -21 -21 -22 -21 -21 -20 -20 -20 -19
-16 -16 -17 -17 -17 -16 -16 -16 -16 -17 -18 -18 -19 -19 -19 -19 -20 -20 -20 -20 -20 -20 -21 -21 -21 -21 -21 -22 -22 -22 -22 -23 -23 -23 -23 -23 -23 -23 -23 -22 -21 -20 -20

GFSSE_500_temp_018.txt.gz
Temp
-11 -12 -12 -12 -13 -13 -13 -13 -13 -13 -13 -14 -14 -15 -15 -14 -14 -14 -14 -14 -14 -14 -14 -14 -14 -14 -14 -14 -14 -14 -14 -14 -14 -14 -12 -12 -12 -13 -12 -12 -12 -13 -12
-12 -12 -13 -13 -13 -13 -13 -13 -14 -14 -14 -14 -14 -14 -14 -14 -14 -14 -14 -14 -14 -14 -14 -14 -14 -14 -14 -14 -14 -14 -14 -14 -14 -14 -14 -13 -13 -12 -12 -12 -12 -13 -12
-12 -13 -13 -13 -13 -13 -13 -13 -13 -14 -13 -13 -13 -14 -14 -14 -14 -14 -14 -14 -14 -14 -14 -14 -15 -15 -14 -14 -14 -14 -14 -14 -14 -14 -14 -14 -14 -13 -13 -13 -12 -12 -12
-12 -12 -13 -13 -13 -13 -13 -13 -13 -13 -13 -13 -13 -13 -14 -14 -14 -14 -14 -14 -14 -14 -14 -14 -14 -14 -14 -14 -14 -14 -14 -14 -14 -14 -14 -14 -14 -14 -14 -14 -14 -13 -12
-13 -13 -13 -13 -13 -13 -13 -13 -13 -13 -13 -13 -13 -14 -14 -14 -14 -14 -14 -14 -14 -14 -14 -14 -14 -14 -14 -14 -14 -14 -14 -14 -14 -14 -13 -14 -14 -13 -14 -15 -15 -14 -13
-13 -13 -13 -13 -13 -13 -13 -13 -13 -13 -13 -13 -13 -13 -13 -14 -14 -14 -14 -14 -14 -14 -14 -14 -14 -14 -14 -14 -14 -14 -15 -15 -14 -14 -14 -14 -14 -15 -15 -15 -14 -14 -14
-13 -13 -13 -13 -13 -13 -13 -13 -13 -13 -13 -13 -13 -13 -13 -13 -13 -13 -13 -13 -13 -13 -13 -13 -14 -14 -14 -14 -14 -14 -14 -14 -14 -14 -14 -14 -14 -14 -14 -15 -14 -14 -14
-13 -13 -13 -12 -12 -13 -13 -13 -13 -13 -13 -13 -13 -13 -13 -13 -13 -13 -13 -13 -13 -13 -13 -13 -13 -13 -13 -14 -14 -14 -14 -14 -14 -14 -14 -14 -14 -14 -14 -15 -15 -14 -14
-12 -12 -12 -12 -12 -13 -13 -12 -13 -13 -13 -13 -13 -13 -13 -13 -13 -14 -14 -14 -14 -14 -14 -14 -14 -14 -14 -14 -14 -14 -14 -14 -14 -14 -13 -14 -14 -14 -14 -14 -14 -14 -14
-12 -12 -12 -13 -13 -13 -13 -13 -13 -13 -13 -13 -13 -13 -13 -14 -13 -14 -14 -14 -15 -15 -15 -15 -15 -15 -15 -14 -14 -14 -14 -14 -14 -14 -14 -14 -14 -14 -14 -14 -14 -14 -14
-13 -13 -13 -12 -12 -13 -13 -13 -13 -13 -13 -13 -13 -13 -14 -14 -14 -14 -14 -14 -15 -15 -15 -15 -15 -15 -15 -15 -15 -15 -14 -14 -14 -14 -14 -14 -14 -14 -14 -14 -14 -14 -14
-13 -12 -12 -12 -12 -12 -12 -13 -13 -13 -13 -14 -14 -14 -14 -14 -14 -14 -14 -14 -14 -14 -14 -15 -15 -15 -14 -15 -14 -15 -15 -14 -14 -14 -14 -14 -14 -14 -14 -14 -14 -14 -14
-12 -12 -13 -12 -12 -13 -13 -13 -13 -14 -14 -14 -14 -14 -14 -14 -14 -14 -14 -14 -14 -14 -14 -14 -14 -14 -14 -14 -14 -14 -14 -14 -14 -14 -14 -14 -14 -14 -14 -14 -14 -14 -14
-13 -13 -13 -13 -13 -13 -13 -14 -14 -14 -14 -14 -14 -15 -15 -14 -14 -14 -15 -15 -15 -15 -14 -14 -14 -14 -14 -14 -14 -14 -14 -14 -14 -14 -14 -14 -14 -14 -14 -14 -14 -14 -14
-13 -13 -13 -13 -13 -13 -14 -14 -14 -14 -14 -14 -14 -15 -15 -15 -15 -15 -15 -15 -15 -14 -14 -14 -14 -14 -14 -14 -14 -14 -14 -14 -14 -14 -13 -14 -14 -14 -14 -14 -14 -14 -14
-13 -13 -13 -14 -14 -14 -14 -14 -14 -14 -14 -14 -15 -15 -15 -15 -15 -15 -15 -15 -15 -15 -14 -14 -14 -15 -14 -14 -14 -14 -14 -14 -14 -14 -14 -13 -14 -14 -14 -14 -14 -14 -14
-13 -13 -14 -13 -14 -14 -14 -15 -15 -15 -14 -14 -14 -14 -14 -15 -15 -15 -15 -15 -14 -14 -14 -14 -14 -15 -15 -15 -15 -14 -14 -14 -15 -15 -14 -14 -14 -14 -14 -13 -14 -14 -14
-14 -14 -14 -13 -14 -14 -14 -14 -15 -14 -15 -15 -15 -14 -15 -15 -15 -15 -15 -15 -15 -15 -15 -15 -15 -15 -14 -14 -15 -15 -14 -15 -15 -15 -15 -15 -15 -14 -15 -14 -14 -14 -14
-14 -14 -14 -14 -14 -15 -15 -15 -15 -15 -15 -15 -15 -15 -15 -15 -15 -16 -15 -15 -15 -15 -15 -15 -15 -15 -15 -15 -15 -15 -15 -15 -15 -14 -14 -15 -16 -15 -13 -15 -15 -14 -14
-14 -15 -15 -15 -15 -15 -15 -16 -16 -15 -16 -16 -16 -16 -16 -16 -16 -15 -15 -15 -15 -15 -15 -16 -16 -16 -16 -15 -15 -15 -15 -15 -15 -15 -15 -15 -14 -14 -15 -13 -14 -15 -16
-15 -15 -15 -16 -16 -16 -16 -16 -16 -16 -16 -16 -16 -16 -16 -15 -16 -15 -15 -15 -15 -15 -15 -16 -15 -15 -16 -16 -16 -16 -16 -16 -16 -16 -16 -16 -16 -16 -15 -16 -15 -14 -16
-15 -16 -16 -16 -16 -17 -16 -16 -17 -16 -16 -16 -17 -16 -16 -16 -15 -16 -16 -16 -16 -16 -17 -17 -16 -16 -17 -17 -18 -17 -17 -16 -17 -18 -17 -18 -17 -17 -17 -16 -16 -16 -16
-16 -16 -16 -16 -16 -17 -16 -16 -17 -17 -17 -17 -16 -17 -17 -17 -17 -17 -17 -17 -17 -17 -17 -18 -18 -18 -18 -18 -19 -19 -19 -18 -18 -19 -19 -19 -20 -20 -20 -20 -17 -17 -18
-16 -16 -16 -16 -16 -17 -17 -17 -17 -17 -17 -17 -17 -17 -17 -17 -17 -18 -18 -18 -18 -19 -19 -19 -19 -20 -20 -20 -20 -21 -21 -21 -20 -19 -20 -21 -21 -21 -22 -21 -22 -20 -18
-16 -16 -16 -17 -16 -16 -16 -16 -17 -17 -17 -17 -17 -17 -17 -18 -18 -19 -19 -19 -19 -20 -20 -20 -20 -21 -21 -21 -21 -21 -21 -22 -23 -23 -21 -21 -22 -24 -23 -23 -22 -22 -22
-16 -16 -16 -17 -17 -16 -16 -16 -17 -17 -17 -17 -17 -17 -18 -18 -19 -19 -19 -20 -21 -20 -21 -21 -22 -22 -22 -22 -22 -22 -23 -22 -23 -24 -25 -23 -22 -23 -24 -25 -23 -23 -24

GFSSE_500_temp_021.txt.gz
Temp
-10 -11 -12 -12 -13 -13 -13 -13 -13 -13 -13 -13 -13 -13 -13 -14 -14 -14 -14 -14 -14 -14 -14 -14 -14 -14 -14 -14 -14 -14 -14 -14 -14 -14 -13 -13 -14 -14 -13 -13 -14 -13 -14
-11 -12 -12 -13 -13 -13 -13 -13 -13 -13 -13 -13 -13 -13 -13 -14 -14 -14 -14 -14 -14 -14 -14 -14 -14 -14 -14 -14 -14 -14 -14 -14 -14 -14 -14 -14 -14 -14 -15 -14 -14 -15 -14
-12 -13 -13 -13 -13 -13 -13 -13 -13 -13 -13 -13 -13 -13 -13 -13 -13 -13 -13 -14 -13 -14 -14 -14 -14 -14 -14 -14 -14 -14 -14 -14 -14 -14 -13 -13 -14 -14 -14 -15 -14 -14 -14
-12 -13 -13 -13 -13 -13 -13 -13 -13 -13 -13 -13 -13 -13 -13 -13 -13 -13 -13 -13 -13 -13 -13 -13 -14 -14 -14 -14 -14 -14 -14 -14 -14 -14 -13 -13 -14 -14 -14 -14 -14 -14 -14
-13 -13 -13 -13 -13 -13 -13 -13 -13 -13 -12 -13 -13 -13 -13 -13 -13 -13 -13 -13 -13 -13 -13 -13 -13 -13 -14 -14 -14 -14 -14 -14 -14 -14 -14 -13 -13 -14 -14 -14 -15 -15 -14
-13 -13 -13 -12 -12 -12 -12 -12 -12 -12 -12 -12 -13 -13 -13 -13 -13 -13 -13 -13 -13 -13 -13 -13 -13 -13 -13 -14 -14 -14 -14 -14 -14 -14 -14 -14 -14 -14 -14 -14 -14 -15 -14
-12 -13 -12 -12 -12 -12 -12 -12 -12 -12 -12 -13 -13 -13 -13 -13 -13 -13 -13 -13 -13 -13 -13 -13 -14 -13 -13 -13 -13 -14 -14 -14 -14 -14 -14 -14 -14 -14 -14 -15 -15 -15 -15
-12 -12 -12 -12 -12 -12 -12 -12 -12 -12 -13 -13 -13 -13 -13 -13 -13 -14 -13 -14 -14 -14 -14 -14 -14 -14 -14 -14 -14 -14 -14 -14 -14 -14 -14 -14 -14 -14 -14 -15 -15 -14 -14
-12 -12 -12 -12 -12 -12 -12 -12 -13 -12 -13 -13 -13 -13 -13 -13 -14 -14 -14 -14 -14 -14 -14 -14 -14 -14 -14 -14 -14 -14 -14 -14 -14 -14 -14 -14 -14 -14 -14 -14 -14 -14 -15
-12 -12 -12 -12 -12 -12 -12 -12 -12 -12 -13 -13 -13 -13 -14 -14 -14 -14 -14 -14 -14 -14 -15 -15 -14 -14 -14 -14 -14 -14 -14 -14 -14 -14 -14 -14 -14 -14 -14 -14 -14 -14 -14
-12 -12 -13 -13 -12 -12 -12 -13 -13 -13 -13 -13 -13 -14 -14 -14 -14 -15 -15 -15 -15 -15 -15 -15 -15 -15 -15 -14 -14 -14 -14 -14 -14 -14 -14 -14 -14 -14 -14 -14 -14 -14 -14
-12 -13 -13 -12 -13 -13 -13 -13 -13 -13 -14 -14 -14 -14 -14 -14 -14 -15 -14 -14 -15 -15 -15 -15 -14 -14 -14 -14 -14 -14 -14 -14 -14 -14 -14 -14 -14 -14 -14 -14 -14 -14 -14
-12 -13 -12 -12 -13 -13 -13 -13 -14 -14 -14 -15 -14 -14 -14 -14 -14 -14 -14 -15 -14 -14 -15 -15 -14 -14 -14 -15 -14 -14 -14 -14 -14 -14 -14 -14 -14 -14 -14 -14 -14 -14 -14
-13 -12 -13 -13 -13 -13 -13 -12 -13 -13 -13 -14 -14 -14 -14 -14 -15 -15 -15 -15 -15 -14 -14 -14 -14 -14 -14 -14 -14 -14 -14 -14 -14 -13 -13 -14 -14 -14 -14 -14 -14 -14 -14
-13 -12 -13 -13 -13 -14 -14 -14 -14 -14 -14 -14 -15 -15 -15 -15 -15 -15 -15 -15 -15 -15 -14 -14 -14 -14 -14 -14 -14 -14 -14 -14 -14 -13 -13 -13 -13 -14 -14 -14 -14 -14 -14
-13 -12 -12 -14 -14 -14 -15 -14 -15 -15 -15 -15 -15 -15 -15 -15 -15 -15 -15 -15 -15 -14 -14 -14 -14 -14 -14 -14 -14 -14 -14 -14 -14 -14 -13 -14 -14 -14 -14 -14 -14 -14 -14
-13 -13 -13 -13 -14 -15 -15 -15 -15 -16 -16 -15 -15 -15 -15 -15 -15 -15 -15 -15 -14 -14 -14 -14 -14 -13 -13 -13 -14 -13 -13 -14 -14 -14 -14 -14 -14 -14 -14 -14 -14 -14 -14
-14 -13 -13 -14 -15 -15 -15 -15 -16 -16 -16 -15 -15 -14 -14 -15 -16 -15 -15 -15 -14 -14 -14 -14 -14 -14 -14 -14 -14 -14 -14 -14 -14 -14 -14 -14 -14 -15 -14 -15 -15 -15 -15
-14 -14 -14 -14 -14 -14 -15 -16 -16 -16 -16 -16 -15 -15 -15 -15 -15 -15 -15 -15 -15 -15 -15 -15 -15 -15 -15 -15 -15 -15 -15 -15 -15 -14 -14 -14 -15 -14 -14 -15 -15 -15 -15
-14 -15 -14 -14 -15 -15 -16 -16 -16 -16 -16 -16 -16 -16 -16 -15 -15 -16 -15 -15 -15 -15 -15 -15 -15 -15 -15 -15 -15 -15 -15 -15 -15 -15 -15 -15 -14 -15 -15 -14 -15 -15 -15
-15 -15 -15 -16 -16 -16 -16 -16 -16 -17 -16 -16 -16 -16 -16 -16 -16 -16 -16 -16 -16 -16 -16 -16 -16 -16 -16 -16 -15 -15 -15 -16 -16 -16 -16 -16 -16 -15 -15 -15 -15 -15 -16
-15 -15 -16 -16 -17 -16 -16 -17 -17 -17 -17 -17 -17 -17 -17 -16 -16 -16 -16 -16 -16 -16 -16 -16 -16 -16 -17 -17 -17 -16 -16 -17 -17 -17 -17 -18 -18 -17 -16 -16 -15 -15 -15
-15 -16 -16 -17 -17 -17 -17 -16 -17 -17 -17 -17 -17 -17 -16 -17 -16 -16 -16 -16 -16 -16 -16 -17 -17 -17 -18 -18 -19 -19 -18 -18 -18 -19 -20 -20 -20 -20 -19 -19 -18 -18 -17
-16 -16 -17 -16 -17 -17 -17 -17 -17 -17 -17 -17 -17 -17 -17 -17 -17 -17 -17 -17 -17 -17 -18 -18 -18 -19 -19 -19 -20 -21 -21 -21 -20 -19 -20 -21 -21 -21 -21 -21 -21 -21 -21
-16 -16 -16 -17 -16 -16 -17 -17 -17 -17 -17 -17 -17 -18 -18 -17 -18 -18 -18 -18 -18 -18 -19 -19 -20 -20 -21 -21 -21 -21 -22 -23 -22 -22 -21 -21 -22 -22 -22 -23 -23 -22 -22
-16 -17 -17 -17 -17 -16 -16 -16 -16 -16 -17 -17 -17 -17 -17 -17 -18 -18 -19 -19 -19 -20 -21 -21 -22 -22 -22 -22 -22 -22 -22 -22 -22 -22 -23 -22 -21 -22 -24 -23 -24 -24 -24

GFSSE_500_temp_024.txt.gz
Temp
-11 -11 -12 -13 -13 -13 -13 -13 -13 -13 -13 -13 -13 -13 -13 -14 -14 -14 -14 -14 -14 -14 -14 -14 -14 -14 -14 -14 -14 -14 -14 -14 -14 -14 -14 -14 -14 -14 -14 -14 -14 -14 -14
-11 -12 -13 -13 -13 -13 -13 -13 -13 -13 -13 -13 -13 -13 -13 -13 -13 -13 -13 -13 -13 -14 -14 -14 -14 -14 -14 -14 -14 -14 -13 -14 -14 -13 -13 -13 -13 -14 -14 -14 -15 -14 -15
-12 -12 -12 -12 -13 -13 -13 -13 -13 -13 -13 -13 -13 -13 -12 -12 -13 -13 -13 -13 -13 -13 -13 -13 -13 -13 -14 -14 -14 -14 -14 -14 -14 -13 -13 -13 -14 -14 -14 -14 -14 -14 -14
-12 -13 -12 -13 -13 -13 -13 -13 -13 -13 -13 -12 -12 -12 -12 -12 -13 -13 -13 -13 -13 -13 -13 -13 -13 -13 -13 -13 -13 -14 -14 -14 -14 -14 -14 -14 -14 -14 -15 -15 -15 -15 -15
-13 -13 -12 -13 -12 -13 -13 -13 -13 -12 -12 -12 -12 -12 -13 -13 -13 -13 -13 -13 -13 -13 -13 -13 -13 -13 -13 -14 -13 -14 -14 -14 -14 -14 -14 -14 -14 -14 -15 -15 -15 -15 -14
-13 -12 -12 -12 -12 -12 -12 -12 -12 -12 -12 -12 -13 -13 -13 -13 -13 -13 -13 -13 -13 -13 -13 -13 -13 -13 -13 -14 -14 -14 -14 -14 -14 -14 -14 -14 -14 -14 -14 -15 -15 -15 -14
-13 -13 -12 -12 -12 -12 -12 -12 -12 -12 -12 -13 -13 -13 -13 -13 -13 -13 -13 -13 -13 -14 -14 -14 -14 -14 -14 -14 -14 -14 -14 -14 -14 -14 -14 -14 -14 -15 -15 -15 -15 -15 -15
-12 -12 -12 -12 -12 -12 -12 -12 -12 -13 -13 -13 -13 -13 -13 -13 -13 -14 -14 -14 -14 -14 -14 -14 -14 -14 -14 -14 -14 -14 -14 -14 -14 -14 -14 -14 -14 -14 -14 -15 -15 -15 -15
-12 -12 -12 -12 -12 -12 -12 -13 -13 -13 -13 -13 -13 -13 -13 -13 -13 -14 -14 -14 -14 -14 -14 -14 -14 -14 -14 -14 -14 -14 -14 -14 -14 -14 -14 -14 -15 -14 -14 -14 -14 -15 -15
-12 -12 -12 -12 -12 -13 -13 -13 -13 -13 -13 -13 -13 -14 -14 -14 -14 -14 -14 -14 -14 -14 -14 -14 -14 -14 -14 -14 -14 -14 -14 -14 -14 -14 -14 -14 -14 -15 -14 -14 -14 -14 -14
-12 -12 -12 -13 -13 -13 -14 -13 -13 -13 -13 -14 -14 -14 -14 -15 -15 -15 -15 -14 -14 -14 -14 -14 -14 -14 -14 -14 -14 -14 -14 -14 -14 -14 -14 -14 -14 -14 -14 -14 -14 -14 -14
-12 -13 -12 -13 -13 -13 -13 -14 -14 -14 -14 -14 -14 -14 -14 -14 -15 -15 -14 -14 -14 -15 -15 -14 -14 -14 -14 -14 -14 -14 -14 -14 -14 -14 -14 -14 -14 -14 -14 -14 -14 -14 -14
-13 -13 -13 -13 -13 -14 -14 -14 -14 -14 -14 -14 -14 -14 -14 -15 -14 -14 -14 -14 -14 -14 -14 -14 -14 -14 -14 -14 -14 -14 -14 -14 -14 -14 -14 -14 -14 -14 -14 -14 -14 -14 -14
-13 -13 -13 -13 -14 -14 -14 -14 -14 -14 -14 -14 -14 -14 -14 -15 -14 -15 -15 -15 -14 -15 -15 -14 -14 -14 -14 -14 -14 -14 -14 -13 -13 -14 -14 -14 -14 -14 -14 -14 -14 -14 -14
-13 -13 -13 -14 -14 -15 -14 -15 -14 -14 -15 -15 -15 -15 -15 -15 -15 -15 -15 -14 -14 -14 -14 -14 -14 -14 -14 -14 -14 -14 -14 -14 -14 -14 -14 -14 -14 -14 -14 -14 -14 -14 -14
-13 -13 -14 -14 -14 -14 -14 -15 -15 -14 -15 -15 -15 -15 -15 -15 -15 -15 -15 -15 -15 -15 -14 -14 -14 -14 -14 -14 -14 -14 -14 -14 -14 -14 -14 -14 -14 -14 -14 -14 -14 -14 -14
-12 -13 -14 -14 -15 -15 -15 -15 -16 -16 -16 -15 -15 -16 -15 -16 -16 -16 -16 -16 -15 -15 -15 -15 -15 -15 -15 -14 -14 -14 -14 -14 -14 -14 -14 -14 -14 -15 -15 -15 -14 -14 -14
-14 -14 -14 -15 -16 -15 -15 -16 -16 -16 -16 -16 -16 -15 -16 -16 -16 -16 -16 -16 -16 -16 -15 -15 -15 -15 -15 -15 -15 -15 -15 -14 -14 -14 -14 -14 -14 -14 -15 -15 -15 -15 -15
-14 -14 -14 -15 -15 -15 -16 -16 -16 -16 -16 -16 -16 -16 -16 -16 -16 -16 -16 -16 -16 -15 -15 -15 -15 -15 -15 -15 -15 -15 -15 -15 -15 -15 -15 -15 -15 -15 -14 -15 -15 -15 -15
-14 -15 -15 -15 -16 -16 -16 -16 -16 -16 -16 -16 -16 -16 -17 -17 -16 -16 -16 -16 -16 -16 -16 -16 -16 -16 -15 -15 -15 -15 -15 -15 -15 -15 -15 -15 -15 -15 -15 -15 -15 -15 -15
-15 -15 -15 -16 -16 -16 -16 -16 -16 -16 -17 -17 -17 -17 -17 -17 -16 -16 -17 -16 -16 -16 -16 -16 -16 -16 -16 -16 -16 -16 -15 -15 -16 -16 -16 -16 -16 -16 -15 -15 -15 -15 -16
-16 -16 -16 -16 -16 -16 -16 -16 -17 -17 -17 -17 -17 -17 -18 -17 -17 -17 -17 -17 -16 -16 -16 -16 -16 -17 -17 -17 -17 -17 -17 -17 -17 -17 -18 -18 -18 -18 -17 -17 -16 -16 -16
-16 -16 -17 -17 -17 -17 -17 -17 -17 -18 -18 -18 -18 -18 -18 -18 -17 -17 -17 -17 -17 -17 -17 -18 -18 -18 -18 -18 -18 -18 -18 -18 -18 -18 -19 -20 -20 -20 -20 -19 -19 -18 -18
-17 -17 -17 -17 -17 -17 -17 -17 -17 -18 -18 -18 -18 -19 -18 -18 -18 -18 -17 -18 -18 -18 -18 -18 -19 -19 -19 -20 -20 -20 -20 -20 -20 -19 -19 -20 -21 -22 -22 -22 -21 -21 -20
-17 -17 -17 -17 -17 -17 -17 -17 -18 -18 -18 -18 -18 -17 -18 -18 -18 -18 -18 -18 -18 -19 -20 -20 -20 -21 -21 -22 -22 -21 -21 -22 -22 -21 -21 -21 -21 -21 -22 -22 -22 -22 -22
-17 -17 -17 -17 -17 -17 -17 -17 -17 -17 -17 -17 -17 -17 -18 -18 -18 -18 -19 -19 -20 -20 -21 -21 -22 -22 -22 -23 -23 -23 -23 -23 -23 -23 -22 -22 -22 -22 -22 -22 -22 -22 -23

GFSSE_500_temp_027.txt.gz
Temp
-10 -11 -11 -11 -12 -12 -12 -13 -13 -13 -13 -13 -12 -12 -12 -13 -13 -13 -13 -13 -13 -13 -13 -13 -13 -13 -13 -14 -13 -13 -13 -13 -13 -14 -14 -14 -14 -14 -14 -14 -14 -14 -15
-11 -11 -11 -12 -12 -12 -12 -12 -13 -13 -13 -12 -12 -12 -12 -12 -12 -12 -13 -13 -13 -13 -13 -13 -13 -13 -13 -13 -13 -13 -13 -13 -14 -14 -14 -14 -14 -14 -14 -14 -13 -14 -14
-12 -12 -12 -12 -12 -12 -13 -13 -13 -13 -13 -12 -12 -12 -12 -12 -12 -13 -13 -13 -13 -13 -13 -13 -13 -13 -13 -13 -13 -13 -13 -13 -14 -14 -14 -14 -14 -14 -14 -14 -14 -14 -14
-12 -12 -12 -12 -12 -13 -13 -13 -13 -13 -12 -12 -12 -12 -13 -13 -13 -13 -13 -13 -13 -13 -13 -13 -13 -13 -13 -13 -13 -13 -13 -13 -14 -14 -14 -14 -14 -14 -14 -14 -14 -14 -14
-12 -12 -12 -13 -13 -12 -12 -12 -12 -12 -12 -12 -12 -13 -13 -13 -13 -13 -13 -13 -13 -13 -13 -13 -13 -13 -14 -13 -13 -13 -13 -14 -14 -14 -14 -14 -14 -14 -14 -14 -14 -14 -15
-12 -12 -12 -12 -12 -12 -12 -12 -12 -12 -12 -12 -13 -13 -13 -13 -13 -13 -13 -13 -14 -14 -14 -14 -14 -14 -14 -14 -14 -14 -14 -14 -14 -14 -14 -14 -14 -14 -14 -15 -15 -15 -15
-12 -12 -12 -12 -12 -12 -12 -12 -12 -12 -13 -13 -13 -13 -13 -13 -13 -13 -13 -14 -14 -14 -14 -14 -14 -14 -14 -14 -14 -14 -14 -14 -14 -14 -14 -14 -14 -14 -15 -15 -15 -15 -15
-12 -12 -12 -12 -12 -12 -12 -12 -12 -13 -13 -13 -13 -13 -13 -13 -14 -14 -14 -14 -14 -14 -14 -14 -14 -14 -14 -14 -14 -14 -14 -15 -14 -14 -14 -14 -14 -14 -14 -14 -15 -15 -15
-13 -12 -12 -12 -12 -12 -12 -13 -13 -13 -13 -13 -13 -13 -14 -14 -14 -14 -14 -15 -14 -14 -14 -15 -15 -14 -14 -14 -14 -14 -14 -14 -15 -14 -15 -14 -14 -14 -14 -14 -14 -15 -15
-12 -12 -12 -12 -13 -13 -13 -13 -13 -13 -13 -13 -13 -14 -14 -14 -14 -14 -14 -15 -15 -14 -14 -14 -14 -14 -14 -14 -14 -14 -14 -14 -14 -14 -15 -15 -14 -14 -14 -14 -14 -14 -14
-12 -12 -12 -13 -13 -13 -13 -13 -13 -13 -13 -14 -14 -14 -14 -15 -15 -15 -15 -15 -15 -15 -14 -14 -14 -14 -14 -14 -14 -14 -14 -14 -14 -14 -14 -14 -14 -14 -14 -14 -14 -14 -14
-12 -13 -12 -13 -13 -13 -13 -13 -14 -14 -14 -14 -14 -14 -15 -15 -15 -15 -15 -15 -15 -15 -14 -15 -14 -14 -14 -15 -15 -14 -14 -14 -14 -14 -14 -14 -14 -14 -14 -14 -14 -14 -14
-12 -12 -13 -13 -13 -14 -13 -14 -14 -14 -14 -14 -15 -15 -15 -15 -15 -15 -15 -15 -15 -15 -15 -15 -14 -15 -15 -15 -15 -15 -15 -15 -14 -15 -15 -14 -14 -14 -14 -14 -14 -14 -14
-13 -13 -13 -14 -14 -14 -14 -14 -14 -15 -15 -15 -15 -15 -15 -15 -15 -14 -15 -15 -15 -14 -14 -14 -14 -15 -15 -15 -15 -15 -15 -15 -15 -15 -14 -15 -15 -15 -14 -14 -14 -14 -14
-13 -13 -14 -14 -14 -14 -14 -15 -15 -15 -15 -15 -15 -15 -15 -14 -14 -14 -14 -15 -15 -15 -15 -14 -15 -15 -15 -15 -15 -15 -15 -15 -15 -15 -15 -15 -14 -14 -14 -14 -14 -14 -14
-14 -14 -14 -15 -14 -14 -15 -15 -15 -15 -15 -15 -15 -15 -15 -15 -15 -15 -15 -15 -15 -15 -15 -15 -15 -15 -15 -15 -15 -15 -15 -15 -15 -15 -15 -15 -15 -14 -14 -14 -14 -14 -14
-14 -14 -14 -14 -14 -15 -15 -15 -15 -15 -15 -15 -15 -15 -15 -16 -16 -16 -16 -16 -16 -15 -15 -15 -15 -15 -15 -15 -15 -15 -15 -15 -15 -15 -15 -15 -15 -15 -15 -15 -14 -14 -14
-14 -14 -14 -14 -14 -14 -15 -15 -15 -16 -16 -15 -15 -16 -16 -16 -16 -16 -16 -16 -16 -16 -16 -16 -16 -16 -15 -15 -15 -16 -16 -16 -15 -15 -15 -15 -15 -15 -15 -15 -15 -15 -15
-14 -14 -14 -14 -14 -15 -16 -16 -16 -16 -16 -16 -16 -16 -16 -17 -17 -17 -17 -16 -16 -16 -16 -16 -16 -15 -15 -15 -15 -15 -16 -16 -16 -16 -16 -16 -16 -15 -15 -15 -15 -15 -15
-14 -14 -14 -15 -15 -16 -16 -17 -17 -16 -16 -17 -17 -17 -17 -17 -17 -17 -17 -16 -16 -16 -16 -16 -16 -16 -16 -16 -15 -16 -16 -16 -16 -16 -16 -16 -16 -16 -15 -15 -15 -15 -15
-14 -15 -16 -16 -17 -16 -17 -16 -16 -16 -17 -17 -17 -17 -17 -17 -17 -17 -16 -16 -16 -16 -16 -16 -16 -16 -17 -17 -16 -16 -16 -16 -17 -17 -17 -17 -17 -17 -17 -16 -16 -16 -16
-16 -16 -17 -17 -17 -16 -16 -16 -16 -17 -17 -17 -17 -18 -18 -17 -17 -17 -17 -17 -17 -17 -17 -17 -17 -18 -18 -18 -18 -18 -17 -17 -18 -18 -18 -18 -18 -18 -18 -18 -17 -17 -17
-17 -17 -17 -16 -16 -16 -17 -17 -17 -18 -18 -18 -18 -18 -17 -17 -17 -17 -18 -18 -18 -18 -18 -18 -18 -18 -19 -19 -19 -19 -18 -18 -18 -19 -19 -20 -20 -20 -20 -20 -20 -19 -19
-16 -16 -17 -17 -17 -17 -18 -18 -18 -18 -18 -18 -18 -18 -18 -19 -19 -19 -18 -18 -18 -18 -18 -19 -19 -19 -20 -20 -20 -20 -21 -21 -20 -19 -20 -21 -21 -21 -22 -21 -21 -21 -21
-16 -17 -17 -17 -17 -17 -18 -18 -18 -19 -19 -18 -18 -18 -18 -18 -18 -18 -18 -18 -19 -19 -19 -20 -20 -21 -21 -22 -22 -22 -22 -22 -22 -22 -22 -22 -22 -22 -22 -22 -22 -22 -22
-17 -17 -17 -18 -18 -18 -18 -18 -18 -18 -18 -18 -18 -18 -18 -18 -18 -18 -19 -19 -20 -20 -20 -21 -22 -22 -23 -23 -24 -24 -24 -24 -24 -24 -24 -24 -24 -24 -24 -23 -23 -22 -23

GFSSE_500_temp_030.txt.gz
Temp
-11 -10 -10 -11 -11 -11 -11 -11 -12 -12 -12 -12 -12 -12 -12 -12 -12 -12 -12 -12 -12 -12 -12 -13 -13 -13 -13 -13 -13 -13 -13 -13 -14 -14 -14 -14 -14 -14 -14 -14 -14 -14 -14
-11 -11 -11 -11 -12 -11 -11 -12 -12 -13 -13 -12 -12 -12 -12 -12 -12 -12 -12 -12 -13 -13 -13 -13 -13 -13 -13 -13 -13 -13 -13 -13 -14 -14 -14 -14 -14 -14 -14 -14 -14 -14 -14
-11 -11 -12 -12 -12 -12 -12 -12 -13 -13 -13 -13 -13 -13 -13 -13 -13 -13 -13 -13 -13 -13 -13 -13 -13 -13 -13 -13 -13 -13 -13 -13 -13 -14 -14 -14 -14 -14 -14 -14 -14 -14 -14
-12 -11 -11 -12 -12 -12 -12 -13 -13 -13 -13 -12 -12 -13 -13 -13 -13 -13 -13 -13 -13 -13 -13 -13 -13 -13 -13 -13 -13 -13 -13 -13 -13 -14 -14 -14 -14 -14 -14 -14 -14 -14 -14
-12 -12 -12 -12 -12 -13 -13 -13 -13 -12 -12 -12 -12 -13 -13 -13 -13 -13 -13 -13 -13 -13 -13 -13 -14 -14 -14 -14 -14 -14 -14 -14 -14 -14 -14 -14 -14 -14 -14 -14 -14 -15 -14
-12 -12 -12 -12 -12 -13 -13 -12 -12 -12 -12 -12 -13 -13 -13 -13 -13 -13 -13 -13 -13 -14 -14 -14 -14 -14 -14 -14 -14 -14 -14 -14 -14 -14 -14 -14 -14 -14 -14 -14 -14 -14 -14
-13 -12 -12 -12 -13 -13 -12 -12 -12 -12 -12 -12 -13 -13 -13 -13 -13 -13 -14 -14 -14 -14 -14 -14 -14 -14 -14 -14 -14 -14 -14 -14 -14 -14 -14 -14 -14 -14 -14 -14 -14 -14 -14
-13 -12 -12 -13 -13 -13 -12 -12 -12 -12 -13 -13 -13 -13 -13 -13 -14 -14 -14 -14 -14 -14 -15 -15 -15 -15 -14 -14 -14 -14 -14 -14 -14 -14 -14 -15 -14 -14 -14 -14 -14 -15 -14
-13 -13 -13 -13 -13 -13 -13 -13 -13 -13 -13 -13 -13 -13 -14 -14 -14 -14 -14 -14 -14 -14 -14 -14 -14 -14 -14 -14 -14 -14 -14 -14 -14 -14 -14 -14 -15 -14 -14 -14 -14 -14 -15
-13 -13 -13 -13 -13 -12 -13 -13 -13 -13 -13 -13 -13 -14 -14 -14 -14 -14 -14 -14 -14 -15 -15 -15 -14 -14 -14 -14 -14 -14 -14 -14 -14 -14 -14 -14 -14 -14 -14 -14 -14 -14 -14
-13 -13 -13 -13 -13 -13 -13 -13 -13 -13 -14 -14 -14 -14 -15 -15 -15 -14 -15 -15 -15 -15 -15 -15 -15 -15 -14 -14 -14 -14 -14 -14 -14 -14 -14 -14 -14 -14 -14 -14 -14 -14 -14
-13 -13 -13 -13 -13 -13 -13 -13 -13 -13 -14 -14 -15 -15 -15 -15 -15 -15 -15 -15 -15 -15 -15 -15 -15 -15 -15 -15 -15 -14 -14 -14 -14 -14 -14 -14 -14 -14 -14 -14 -14 -14 -14
-13 -13 -13 -13 -13 -13 -13 -13 -14 -14 -14 -15 -15 -15 -15 -15 -15 -15 -15 -15 -15 -15 -15 -15 -15 -15 -15 -15 -15 -15 -15 -15 -14 -14 -14 -14 -14 -14 -14 -14 -14 -14 -14
-13 -13 -13 -13 -14 -14 -14 -14 -14 -15 -15 -15 -15 -15 -16 -15 -15 -15 -15 -15 -15 -15 -15 -15 -15 -15 -16 -16 -16 -16 -15 -15 -15 -15 -15 -15 -15 -14 -14 -14 -14 -14 -14
-13 -13 -14 -14 -14 -14 -14 -15 -15 -16 -16 -15 -15 -16 -16 -15 -15 -15 -15 -15 -15 -15 -15 -15 -15 -15 -16 -16 -16 -16 -16 -15 -15 -15 -15 -15 -15 -15 -15 -15 -15 -15 -14
-14 -13 -14 -14 -14 -14 -14 -15 -15 -16 -16 -16 -16 -16 -15 -15 -15 -15 -15 -15 -15 -15 -15 -15 -16 -16 -16 -16 -16 -16 -16 -16 -16 -16 -16 -16 -16 -15 -15 -15 -15 -15 -15
-14 -14 -15 -15 -15 -14 -15 -15 -16 -16 -16 -15 -16 -15 -15 -15 -15 -16 -16 -16 -16 -16 -16 -16 -16 -16 -16 -16 -16 -16 -16 -16 -16 -16 -16 -16 -16 -15 -15 -16 -16 -15 -15
-14 -14 -15 -15 -14 -14 -14 -15 -15 -16 -16 -16 -16 -16 -16 -16 -16 -17 -16 -16 -16 -16 -16 -16 -16 -16 -16 -16 -16 -16 -16 -16 -16 -16 -16 -15 -15 -15 -15 -15 -15 -15 -16
-14 -14 -14 -14 -14 -14 -14 -15 -15 -16 -16 -16 -16 -16 -17 -17 -17 -17 -17 -17 -17 -16 -16 -16 -16 -16 -16 -16 -16 -16 -16 -17 -17 -17 -17 -17 -16 -16 -16 -16 -15 -15 -15
-14 -14 -14 -14 -14 -15 -15 -15 -16 -17 -17 -16 -16 -16 -17 -17 -17 -17 -17 -17 -16 -16 -16 -17 -17 -17 -17 -16 -16 -16 -16 -17 -17 -17 -17 -17 -17 -17 -16 -16 -16 -16 -15
-14 -14 -14 -14 -14 -15 -16 -16 -17 -16 -16 -17 -17 -17 -17 -17 -17 -17 -17 -17 -17 -17 -17 -17 -17 -17 -17 -17 -17 -17 -17 -18 -17 -18 -18 -18 -17 -17 -17 -17 -17 -17 -17
-15 -15 -15 -15 -15 -16 -16 -16 -16 -17 -17 -17 -17 -17 -17 -18 -18 -17 -17 -17 -17 -17 -18 -18 -18 -18 -19 -19 -18 -18 -18 -18 -18 -19 -19 -19 -19 -19 -19 -18 -18 -18 -17
-15 -15 -15 -16 -16 -16 -17 -17 -17 -17 -17 -17 -17 -17 -17 -17 -17 -18 -18 -18 -19 -19 -19 -19 -19 -19 -19 -19 -19 -19 -19 -19 -18 -19 -20 -21 -21 -21 -21 -21 -20 -19 -19
-15 -15 -16 -16 -16 -17 -16 -17 -17 -18 -18 -18 -18 -18 -19 -19 -19 -19 -18 -18 -18 -18 -18 -18 -19 -19 -19 -19 -20 -20 -20 -21 -21 -20 -20 -20 -21 -22 -22 -22 -22 -22 -22
-16 -16 -17 -17 -17 -17 -17 -17 -18 -18 -18 -18 -19 -19 -19 -18 -18 -18 -18 -18 -18 -18 -19 -19 -19 -20 -20 -21 -21 -22 -22 -23 -23 -24 -24 -24 -23 -23 -24 -24 -23 -23 -23
-16 -16 -17 -17 -17 -17 -18 -19 -19 -19 -19 -18 -18 -18 -18 -18 -18 -18 -18 -18 -19 -19 -19 -20 -20 -21 -22 -23 -23 -24 -24 -25 -25 -27 -27 -28 -27 -26 -27 -27 -26 -26 -25

GFSSE_500_temp_036.txt.gz
Temp
-10 -11 -11 -11 -11 -12 -11 -11 -11 -11 -12 -12 -12 -12 -12 -12 -12 -12 -12 -12 -12 -12 -12 -13 -13 -13 -13 -13 -13 -13 -13 -13 -13 -13 -13 -13 -13 -13 -13 -13 -13 -13 -13
-10 -11 -11 -11 -11 -11 -11 -11 -11 -12 -12 -12 -12 -12 -12 -12 -12 -12 -12 -12 -12 -13 -13 -13 -13 -13 -13 -13 -13 -13 -13 -13 -13 -13 -13 -13 -13 -13 -14 -14 -14 -13 -13
-11 -11 -11 -12 -12 -11 -12 -12 -12 -12 -12 -12 -12 -12 -12 -12 -12 -12 -12 -12 -13 -13 -13 -13 -13 -13 -13 -13 -13 -14 -14 -14 -14 -13 -13 -13 -13 -14 -14 -14 -14 -14 -14
-12 -11 -11 -13 -13 -13 -12 -13 -13 -12 -12 -12 -12 -12 -12 -12 -12 -12 -13 -13 -13 -13 -13 -13 -13 -13 -13 -14 -14 -14 -14 -14 -14 -14 -14 -14 -14 -14 -14 -14 -14 -14 -14
-12 -11 -13 -13 -13 -13 -13 -13 -13 -13 -13 -12 -12 -12 -12 -12 -12 -12 -13 -13 -13 -13 -13 -13 -13 -13 -13 -14 -14 -14 -14 -14 -14 -14 -14 -14 -14 -14 -14 -14 -14 -14 -14
-11 -13 -14 -13 -13 -13 -13 -13 -13 -13 -12 -12 -12 -12 -13 -13 -13 -13 -13 -13 -13 -13 -13 -13 -13 -13 -13 -14 -13 -13 -13 -13 -13 -13 -14 -14 -14 -14 -14 -14 -14 -14 -14
-14 -15 -14 -14 -14 -13 -13 -13 -13 -13 -13 -13 -13 -13 -13 -13 -13 -13 -13 -13 -13 -13 -13 -13 -13 -14 -14 -14 -14 -14 -13 -13 -13 -14 -13 -14 -14 -14 -14 -14 -14 -14 -14
-15 -15 -14 -14 -14 -14 -14 -14 -14 -13 -13 -13 -13 -13 -13 -13 -13 -13 -13 -13 -13 -13 -13 -13 -14 -14 -14 -14 -14 -14 -14 -13 -13 -14 -14 -14 -14 -14 -14 -14 -13 -14 -14
-15 -15 -15 -15 -15 -14 -14 -14 -14 -13 -13 -13 -13 -13 -13 -13 -13 -13 -13 -14 -14 -14 -14 -14 -14 -14 -14 -14 -14 -14 -14 -14 -14 -14 -14 -14 -14 -14 -14 -14 -14 -13 -13
-15 -15 -15 -15 -15 -14 -14 -14 -14 -13 -13 -13 -13 -13 -13 -14 -14 -14 -14 -14 -14 -14 -14 -14 -14 -14 -14 -14 -14 -14 -13 -13 -14 -14 -14 -14 -14 -14 -14 -14 -14 -14 -13
-15 -15 -15 -15 -15 -14 -14 -14 -13 -13 -13 -13 -14 -14 -14 -14 -15 -15 -14 -14 -14 -15 -15 -15 -15 -15 -15 -14 -14 -14 -14 -14 -14 -14 -14 -14 -14 -14 -14 -14 -14 -13 -14
-15 -15 -15 -15 -14 -14 -13 -13 -13 -13 -14 -14 -14 -15 -15 -15 -15 -15 -15 -15 -15 -15 -14 -14 -14 -15 -15 -15 -15 -15 -15 -14 -14 -14 -14 -14 -14 -15 -15 -15 -15 -14 -14
-15 -15 -14 -14 -14 -13 -13 -13 -14 -14 -14 -15 -15 -15 -16 -16 -16 -16 -15 -15 -15 -15 -15 -15 -15 -15 -15 -15 -15 -15 -15 -15 -15 -15 -15 -15 -15 -15 -15 -15 -15 -15 -15
-14 -14 -14 -14 -14 -14 -14 -14 -14 -14 -15 -15 -15 -16 -16 -16 -16 -16 -16 -15 -15 -15 -15 -15 -15 -15 -15 -15 -15 -16 -16 -16 -16 -16 -16 -16 -16 -16 -16 -15 -15 -15 -15
-14 -14 -14 -14 -14 -14 -14 -14 -15 -15 -15 -15 -15 -16 -16 -16 -16 -16 -16 -15 -15 -15 -15 -15 -15 -15 -15 -15 -16 -16 -16 -16 -16 -16 -16 -16 -16 -16 -16 -16 -16 -16 -16
-14 -14 -14 -14 -14 -14 -14 -15 -15 -15 -15 -16 -16 -16 -15 -16 -16 -16 -16 -16 -16 -16 -16 -16 -16 -16 -16 -16 -17 -17 -17 -17 -16 -16 -16 -16 -16 -16 -16 -16 -16 -16 -16
-14 -14 -14 -14 -15 -15 -15 -15 -15 -15 -15 -15 -15 -15 -16 -16 -17 -16 -16 -15 -16 -16 -17 -17 -17 -17 -17 -17 -17 -17 -16 -16 -16 -16 -16 -16 -16 -16 -16 -16 -16 -16 -16
-14 -15 -14 -15 -15 -15 -15 -15 -15 -15 -15 -16 -16 -16 -16 -17 -16 -16 -16 -16 -17 -17 -17 -17 -17 -17 -17 -17 -17 -16 -16 -16 -16 -16 -16 -16 -16 -16 -16 -16 -16 -16 -16
-15 -15 -15 -16 -16 -15 -15 -16 -14 -15 -16 -16 -17 -17 -17 -17 -17 -17 -17 -17 -17 -17 -17 -17 -17 -17 -17 -17 -17 -17 -17 -17 -17 -17 -16 -16 -16 -16 -16 -16 -16 -16 -16
-14 -14 -14 -14 -15 -15 -15 -15 -15 -15 -16 -16 -16 -16 -17 -17 -16 -16 -17 -17 -17 -17 -17 -17 -17 -17 -17 -18 -18 -18 -18 -18 -18 -18 -18 -18 -17 -17 -17 -17 -16 -16 -16
-14 -15 -15 -15 -15 -15 -14 -15 -15 -15 -16 -16 -16 -16 -17 -16 -16 -17 -17 -17 -18 -18 -18 -18 -18 -18 -18 -18 -18 -18 -18 -18 -18 -18 -18 -18 -18 -18 -19 -18 -18 -17 -17
-14 -15 -15 -15 -16 -16 -16 -15 -15 -16 -15 -15 -16 -17 -17 -18 -19 -19 -19 -19 -19 -19 -19 -19 -18 -18 -18 -18 -18 -18 -18 -18 -18 -18 -18 -19 -19 -19 -19 -19 -19 -19 -18
-15 -15 -15 -15 -15 -15 -15 -15 -15 -15 -15 -16 -17 -17 -18 -18 -18 -19 -19 -19 -19 -18 -18 -18 -18 -18 -18 -18 -18 -18 -18 -19 -19 -20 -19 -19 -20 -20 -20 -20 -20 -20 -19
-16 -16 -15 -15 -15 -14 -14 -14 -15 -16 -16 -16 -17 -17 -18 -18 -19 -19 -19 -18 -18 -18 -18 -18 -18 -18 -19 -19 -19 -19 -19 -20 -20 -20 -20 -21 -21 -21 -22 -22 -22 -22 -22
-16 -16 -15 -15 -15 -15 -15 -15 -16 -16 -16 -16 -17 -18 -18 -18 -18 -18 -19 -18 -18 -18 -18 -18 -19 -19 -19 -19 -19 -20 -20 -21 -21 -21 -21 -22 -23 -24 -25 -26 -26 -26 -27
-15 -15 -15 -15 -15 -15 -15 -15 -15 -16 -17 -17 -18 -18 -18 -18 -18 -19 -19 -19 -19 -18 -19 -19 -19 -19 -19 -20 -20 -21 -21 -22 -22 -23 -24 -26 -27 -28 -28 -28 -28 -28 -29

GFSSE_500_temp_039.txt.gz
Temp
-10 -10 -10 -10 -10 -10 -11 -10 -10 -10 -10 -10 -11 -11 -11 -11 -11 -12 -12 -12 -12 -12 -13 -13 -13 -13 -13 -13 -13 -13 -13 -13 -13 -13 -13 -13 -13 -13 -13 -13 -13 -13 -13
-10 -10 -10 -10 -10 -10 -11 -11 -10 -10 -11 -11 -12 -12 -12 -12 -12 -12 -12 -12 -12 -13 -13 -13 -13 -13 -13 -13 -13 -13 -13 -13 -13 -13 -13 -13 -13 -13 -13 -13 -13 -13 -13
-11 -11 -11 -11 -11 -11 -11 -11 -10 -10 -12 -12 -12 -12 -12 -12 -12 -12 -12 -12 -13 -13 -13 -13 -13 -13 -13 -13 -13 -14 -13 -13 -13 -13 -13 -13 -13 -13 -13 -13 -13 -13 -14
-11 -11 -11 -12 -11 -12 -11 -11 -11 -11 -12 -12 -12 -12 -12 -12 -12 -12 -12 -12 -13 -13 -13 -13 -13 -13 -13 -13 -13 -13 -14 -13 -13 -13 -13 -13 -13 -13 -13 -13 -13 -13 -14
-11 -11 -11 -11 -11 -12 -12 -11 -12 -12 -12 -12 -12 -12 -12 -12 -12 -12 -12 -13 -13 -13 -13 -13 -13 -13 -13 -13 -13 -13 -13 -14 -13 -13 -13 -13 -13 -13 -13 -13 -13 -13 -13
-11 -10 -11 -11 -13 -13 -13 -12 -12 -13 -13 -12 -12 -12 -12 -12 -12 -12 -12 -13 -13 -13 -13 -13 -13 -13 -13 -13 -13 -13 -13 -13 -13 -13 -13 -13 -13 -13 -13 -13 -13 -13 -13
-11 -10 -11 -12 -14 -14 -13 -13 -13 -13 -13 -13 -12 -12 -12 -12 -12 -12 -13 -13 -13 -13 -13 -13 -13 -13 -13 -13 -13 -13 -13 -13 -13 -13 -13 -13 -13 -13 -13 -13 -14 -14 -14
-10 -11 -13 -15 -14 -14 -14 -14 -13 -13 -13 -12 -12 -12 -12 -12 -13 -13 -13 -13 -13 -13 -13 -14 -14 -13 -13 -13 -13 -13 -13 -13 -13 -13 -13 -13 -13 -13 -13 -13 -13 -14 -14
-11 -12 -14 -15 -15 -14 -15 -14 -14 -13 -13 -13 -13 -12 -12 -13 -13 -13 -13 -13 -13 -14 -13 -13 -14 -14 -14 -14 -13 -13 -13 -13 -14 -13 -14 -14 -13 -13 -13 -13 -13 -13 -14
-12 -15 -16 -15 -15 -14 -14 -14 -14 -13 -13 -13 -13 -13 -13 -13 -13 -14 -14 -14 -14 -14 -14 -14 -14 -14 -14 -13 -13 -13 -13 -14 -14 -14 -14 -14 -14 -14 -13 -13 -13 -14 -14
-13 -16 -15 -15 -14 -15 -14 -14 -14 -13 -13 -13 -13 -13 -13 -14 -14 -15 -14 -15 -15 -14 -14 -14 -14 -14 -14 -14 -14 -14 -14 -14 -14 -14 -14 -14 -14 -14 -14 -14 -14 -14 -14
-15 -15 -15 -15 -15 -14 -14 -14 -14 -13 -13 -13 -13 -14 -14 -14 -15 -15 -15 -15 -15 -15 -15 -15 -14 -14 -14 -14 -14 -14 -14 -15 -15 -15 -15 -15 -15 -14 -15 -15 -14 -14 -14
-14 -14 -14 -14 -14 -14 -14 -14 -14 -14 -14 -14 -14 -14 -15 -15 -15 -15 -15 -15 -15 -15 -15 -15 -14 -14 -14 -14 -14 -15 -15 -15 -15 -15 -15 -16 -15 -15 -15 -15 -15 -15 -15
-14 -14 -14 -14 -14 -14 -14 -14 -14 -14 -14 -14 -15 -15 -15 -15 -16 -16 -16 -16 -16 -16 -15 -15 -14 -14 -15 -15 -15 -16 -16 -16 -16 -16 -16 -16 -16 -16 -16 -16 -15 -16 -15
-14 -14 -14 -14 -14 -14 -14 -14 -15 -15 -15 -14 -15 -15 -16 -16 -16 -16 -17 -16 -16 -16 -16 -15 -15 -15 -15 -15 -16 -16 -16 -16 -17 -17 -17 -16 -16 -17 -16 -16 -16 -16 -16
-14 -14 -14 -14 -14 -14 -14 -14 -14 -14 -14 -15 -15 -15 -16 -16 -15 -16 -15 -15 -16 -16 -15 -15 -15 -16 -16 -17 -17 -17 -17 -17 -17 -17 -17 -17 -16 -16 -16 -16 -16 -16 -16
-14 -14 -15 -15 -14 -14 -14 -14 -14 -14 -14 -14 -14 -15 -15 -16 -16 -16 -17 -17 -16 -16 -16 -17 -17 -17 -17 -17 -17 -17 -17 -17 -17 -17 -16 -16 -16 -16 -16 -16 -16 -16 -16
-15 -15 -15 -14 -14 -15 -15 -15 -14 -14 -14 -15 -16 -16 -16 -17 -16 -16 -17 -17 -17 -17 -17 -17 -17 -17 -17 -17 -17 -17 -17 -17 -17 -17 -16 -16 -16 -16 -16 -16 -16 -16 -16
-14 -14 -14 -14 -15 -15 -15 -15 -15 -14 -15 -15 -16 -16 -16 -16 -17 -17 -16 -17 -16 -16 -17 -17 -17 -17 -17 -17 -17 -17 -17 -17 -17 -18 -17 -17 -17 -17 -16 -16 -16 -16 -16
-15 -15 -14 -15 -15 -15 -15 -15 -15 -15 -15 -16 -15 -16 -16 -17 -17 -17 -16 -17 -17 -17 -17 -17 -18 -18 -18 -18 -18 -18 -18 -18 -18 -18 -18 -18 -18 -17 -17 -17 -17 -17 -16
-14 -15 -15 -15 -15 -15 -15 -15 -15 -14 -15 -15 -15 -16 -16 -16 -16 -17 -17 -18 -18 -19 -19 -19 -19 -19 -19 -19 -18 -18 -18 -18 -18 -18 -18 -18 -18 -18 -18 -18 -18 -18 -18
-15 -15 -15 -15 -15 -15 -15 -15 -15 -15 -14 -15 -16 -16 -16 -16 -17 -18 -19 -19 -19 -19 -19 -19 -19 -19 -19 -19 -18 -18 -18 -18 -18 -19 -18 -18 -18 -18 -19 -19 -19 -18 -18
-15 -15 -15 -15 -15 -15 -15 -15 -15 -15 -15 -15 -15 -16 -16 -16 -17 -17 -18 -18 -19 -19 -19 -19 -19 -19 -19 -19 -18 -19 -18 -18 -18 -19 -19 -19 -19 -19 -19 -20 -20 -20 -19
-16 -15 -15 -15 -15 -15 -15 -15 -14 -14 -15 -15 -15 -15 -15 -16 -17 -17 -18 -18 -18 -19 -19 -19 -19 -19 -19 -19 -19 -19 -19 -19 -19 -19 -19 -20 -20 -21 -21 -20 -21 -21 -21
-15 -15 -15 -15 -14 -14 -14 -14 -15 -15 -15 -15 -15 -16 -16 -17 -17 -17 -18 -18 -19 -19 -19 -19 -19 -19 -19 -19 -19 -19 -19 -19 -19 -20 -20 -20 -21 -22 -23 -24 -25 -26 -27
-15 -15 -14 -14 -15 -15 -14 -15 -15 -15 -15 -16 -16 -16 -17 -17 -17 -18 -18 -18 -19 -19 -19 -19 -19 -19 -19 -19 -19 -20 -20 -21 -21 -22 -22 -23 -25 -27 -28 -29 -29 -29 -29

GFSSE_500_temp_042.txt.gz
Temp
-10 -9 -9 -10 -10 -10 -10 -10 -10 -10 -10 -9 -10 -10 -11 -11 -11 -11 -12 -12 -12 -12 -12 -12 -12 -13 -13 -13 -13 -13 -13 -13 -12 -12 -12 -13 -13 -13 -13 -13 -13 -13 -13
-9 -10 -10 -10 -10 -10 -11 -11 -10 -10 -10 -10 -10 -11 -11 -11 -11 -12 -12 -12 -12 -12 -12 -12 -13 -13 -13 -13 -13 -13 -13 -13 -12 -12 -12 -13 -13 -13 -13 -13 -13 -13 -13
-9 -11 -11 -11 -11 -11 -11 -11 -11 -11 -10 -10 -11 -11 -12 -12 -12 -12 -12 -12 -12 -12 -12 -13 -13 -12 -12 -13 -13 -13 -13 -13 -13 -12 -13 -13 -13 -13 -13 -13 -13 -13 -13
-10 -10 -11 -12 -11 -11 -12 -11 -12 -11 -11 -11 -12 -12 -12 -12 -12 -12 -12 -12 -12 -12 -12 -13 -12 -13 -13 -13 -13 -13 -13 -13 -13 -13 -13 -13 -13 -13 -13 -13 -13 -13 -13
-11 -11 -11 -12 -12 -11 -11 -12 -12 -12 -12 -12 -12 -12 -12 -12 -12 -12 -12 -12 -12 -12 -13 -13 -13 -13 -13 -13 -13 -13 -13 -13 -13 -13 -13 -12 -13 -13 -13 -13 -13 -13 -13
-11 -11 -11 -11 -11 -11 -12 -12 -13 -13 -12 -13 -12 -12 -12 -12 -12 -12 -12 -12 -12 -12 -12 -13 -13 -13 -13 -13 -13 -13 -13 -13 -13 -12 -13 -13 -13 -13 -13 -13 -13 -13 -13
-11 -10 -10 -11 -11 -12 -13 -14 -13 -13 -13 -13 -13 -12 -12 -12 -12 -12 -12 -12 -12 -13 -13 -13 -13 -13 -13 -13 -13 -13 -13 -13 -13 -12 -13 -13 -13 -13 -13 -13 -13 -13 -13
-9 -10 -10 -11 -12 -13 -14 -14 -14 -13 -13 -13 -12 -12 -12 -12 -12 -12 -12 -12 -13 -13 -13 -13 -13 -13 -13 -13 -13 -13 -13 -13 -13 -13 -13 -13 -13 -13 -13 -13 -13 -13 -13
-10 -10 -11 -12 -12 -13 -14 -15 -15 -14 -13 -13 -13 -12 -12 -12 -12 -12 -12 -13 -13 -13 -13 -13 -13 -13 -13 -13 -13 -13 -14 -14 -13 -13 -14 -13 -13 -14 -14 -14 -13 -13 -13
-9 -10 -11 -12 -14 -15 -16 -15 -15 -14 -13 -13 -13 -12 -12 -12 -12 -13 -13 -13 -13 -14 -14 -13 -14 -14 -14 -14 -14 -13 -13 -13 -13 -13 -14 -14 -14 -14 -14 -14 -14 -14 -14
-10 -11 -12 -13 -15 -15 -14 -14 -14 -14 -13 -13 -13 -12 -12 -12 -13 -13 -13 -13 -14 -14 -14 -14 -15 -14 -14 -14 -14 -13 -13 -13 -13 -13 -14 -15 -14 -14 -14 -14 -14 -14 -14
-11 -12 -14 -14 -15 -15 -14 -14 -14 -14 -13 -13 -13 -13 -13 -13 -13 -14 -14 -14 -15 -15 -15 -15 -15 -14 -14 -14 -14 -13 -13 -14 -14 -14 -15 -15 -15 -15 -15 -15 -15 -15 -15
-13 -12 -14 -14 -14 -15 -14 -14 -14 -13 -13 -14 -14 -13 -13 -14 -14 -14 -15 -15 -16 -16 -15 -15 -14 -14 -14 -13 -13 -13 -13 -14 -14 -15 -15 -16 -16 -16 -16 -16 -16 -16 -15
-13 -14 -14 -14 -14 -14 -14 -14 -14 -14 -14 -14 -14 -14 -14 -15 -15 -15 -15 -16 -16 -15 -15 -14 -14 -14 -14 -14 -14 -14 -14 -15 -15 -16 -16 -17 -17 -17 -17 -17 -17 -17 -16
-13 -14 -14 -14 -14 -14 -15 -14 -14 -14 -14 -14 -14 -15 -14 -15 -15 -16 -16 -15 -16 -15 -16 -15 -15 -15 -15 -15 -15 -15 -16 -16 -16 -17 -17 -17 -17 -17 -17 -17 -17 -17 -17
-14 -14 -14 -14 -14 -15 -14 -14 -14 -15 -15 -14 -15 -15 -15 -16 -16 -16 -16 -16 -15 -15 -14 -16 -16 -16 -16 -16 -16 -17 -17 -17 -17 -17 -17 -17 -17 -17 -17 -17 -17 -17 -17
-14 -14 -14 -14 -15 -14 -14 -14 -15 -15 -15 -15 -15 -15 -16 -16 -16 -16 -16 -16 -15 -16 -16 -16 -17 -17 -17 -17 -17 -17 -17 -17 -17 -17 -17 -17 -17 -16 -17 -17 -17 -17 -17
-14 -14 -14 -14 -14 -14 -15 -15 -15 -15 -15 -15 -15 -15 -15 -16 -16 -16 -15 -15 -16 -16 -16 -17 -17 -17 -17 -17 -17 -17 -17 -17 -17 -17 -17 -17 -17 -17 -17 -16 -16 -16 -16
-14 -14 -14 -14 -15 -15 -15 -15 -15 -15 -15 -15 -15 -15 -15 -15 -15 -15 -16 -17 -17 -16 -16 -17 -18 -18 -17 -17 -17 -17 -17 -18 -18 -18 -18 -18 -18 -18 -18 -17 -17 -17 -17
-14 -14 -14 -15 -15 -15 -15 -15 -15 -15 -15 -15 -15 -15 -15 -14 -15 -15 -16 -16 -16 -16 -17 -17 -18 -18 -19 -19 -19 -19 -19 -19 -19 -19 -18 -18 -18 -18 -18 -18 -17 -17 -17
-15 -15 -14 -15 -15 -15 -15 -15 -15 -15 -15 -15 -15 -15 -14 -14 -15 -15 -16 -16 -17 -17 -17 -18 -18 -19 -19 -19 -19 -19 -19 -19 -19 -19 -19 -18 -18 -18 -18 -18 -18 -17 -17
-15 -15 -15 -14 -14 -15 -15 -15 -15 -15 -14 -14 -14 -14 -15 -15 -16 -16 -17 -17 -17 -18 -18 -18 -18 -18 -19 -19 -19 -19 -18 -19 -19 -19 -19 -19 -19 -19 -19 -19 -19 -18 -18
-15 -15 -15 -15 -15 -15 -15 -15 -14 -14 -14 -15 -15 -15 -15 -15 -16 -16 -17 -17 -18 -18 -18 -18 -18 -18 -18 -19 -19 -19 -19 -19 -18 -19 -19 -19 -19 -20 -20 -20 -19 -19 -19
-15 -15 -15 -15 -15 -15 -14 -14 -14 -14 -14 -14 -15 -15 -15 -16 -16 -16 -17 -17 -18 -18 -18 -18 -19 -19 -19 -19 -19 -19 -19 -19 -19 -19 -19 -19 -20 -20 -21 -21 -21 -21 -22
-15 -15 -15 -15 -14 -14 -14 -14 -15 -15 -14 -15 -15 -15 -15 -15 -16 -17 -17 -17 -17 -17 -18 -18 -19 -19 -19 -19 -19 -19 -20 -20 -20 -20 -20 -20 -21 -21 -22 -23 -25 -26 -27
-15 -14 -14 -14 -14 -14 -14 -15 -15 -15 -15 -15 -16 -16 -16 -17 -17 -17 -17 -17 -18 -18 -19 -19 -20 -20 -20 -20 -20 -20 -21 -21 -21 -21 -21 -22 -22 -24 -26 -27 -28 -30 -30

GFSSE_500_temp_045.txt.gz
Temp
-10 -10 -11 -10 -10 -10 -10 -10 -10 -10 -10 -10 -10 -10 -10 -11 -11 -11 -11 -11 -12 -12 -12 -12 -12 -12 -12 -12 -12 -11 -11 -11 -11 -11 -12 -12 -12 -12 -12 -12 -12 -12 -12
-10 -9 -10 -11 -11 -11 -10 -10 -10 -11 -11 -11 -10 -10 -10 -11 -11 -11 -11 -12 -12 -12 -12 -12 -12 -12 -12 -12 -12 -11 -11 -11 -11 -11 -12 -12 -12 -12 -13 -13 -13 -12 -12
-10 -10 -10 -10 -10 -11 -11 -11 -11 -11 -11 -11 -11 -10 -11 -11 -11 -11 -12 -12 -12 -12 -12 -12 -12 -12 -12 -12 -12 -11 -11 -10 -12 -12 -12 -12 -12 -13 -13 -13 -13 -13 -13
-10 -10 -11 -10 -11 -11 -12 -12 -12 -12 -12 -11 -11 -11 -11 -11 -12 -12 -12 -12 -12 -12 -12 -12 -12 -12 -12 -12 -12 -12 -11 -11 -12 -12 -12 -12 -12 -13 -13 -13 -13 -13 -13
-10 -10 -11 -11 -11 -11 -12 -12 -12 -12 -12 -12 -11 -12 -12 -12 -12 -12 -12 -12 -12 -12 -12 -13 -13 -13 -13 -12 -12 -12 -12 -12 -12 -12 -12 -12 -12 -12 -13 -13 -13 -13 -13
-10 -10 -10 -10 -11 -11 -11 -12 -12 -13 -12 -12 -12 -12 -12 -12 -12 -12 -12 -12 -12 -12 -12 -13 -13 -13 -13 -13 -13 -13 -13 -12 -12 -13 -13 -12 -12 -12 -12 -13 -13 -13 -13
-10 -10 -9 -10 -10 -11 -12 -11 -12 -13 -13 -13 -13 -13 -12 -12 -12 -12 -12 -12 -12 -12 -13 -13 -13 -13 -13 -13 -13 -13 -13 -13 -12 -13 -13 -12 -12 -12 -12 -13 -13 -13 -13
-9 -10 -9 -10 -10 -11 -11 -12 -14 -14 -13 -13 -13 -13 -13 -12 -12 -12 -12 -12 -12 -13 -13 -13 -13 -14 -13 -13 -14 -14 -14 -13 -13 -13 -13 -13 -12 -12 -12 -13 -13 -13 -13
-10 -10 -10 -10 -11 -11 -12 -13 -14 -15 -15 -15 -13 -13 -13 -12 -12 -12 -12 -12 -13 -13 -13 -13 -14 -14 -14 -14 -14 -14 -14 -13 -13 -13 -13 -12 -13 -13 -13 -13 -14 -14 -14
-10 -10 -10 -11 -11 -12 -13 -14 -15 -16 -15 -14 -14 -13 -12 -12 -12 -12 -13 -13 -13 -13 -13 -14 -14 -14 -14 -14 -14 -14 -14 -13 -13 -13 -12 -12 -12 -13 -14 -14 -14 -14 -15
-10 -11 -11 -11 -12 -12 -14 -16 -16 -16 -15 -14 -13 -12 -12 -13 -13 -13 -13 -13 -14 -14 -14 -14 -15 -14 -14 -14 -14 -13 -13 -13 -13 -13 -13 -13 -14 -14 -14 -15 -15 -15 -15
-11 -11 -11 -13 -13 -15 -16 -15 -14 -14 -14 -13 -13 -13 -13 -13 -13 -14 -14 -14 -14 -15 -15 -14 -15 -14 -14 -14 -14 -13 -13 -13 -13 -13 -14 -15 -15 -15 -15 -16 -16 -15 -16
-12 -12 -14 -14 -14 -14 -14 -14 -14 -14 -13 -13 -13 -13 -13 -14 -14 -14 -15 -15 -14 -15 -15 -14 -15 -15 -15 -15 -14 -14 -14 -15 -14 -14 -15 -15 -15 -16 -16 -16 -16 -17 -17
-14 -14 -13 -13 -13 -14 -14 -14 -14 -14 -14 -14 -14 -14 -14 -14 -15 -15 -15 -15 -15 -15 -15 -14 -14 -15 -15 -14 -15 -15 -15 -15 -15 -15 -16 -16 -16 -16 -17 -17 -17 -17 -17
-13 -13 -14 -14 -14 -14 -14 -14 -14 -14 -14 -14 -14 -14 -14 -15 -15 -15 -15 -14 -14 -14 -15 -15 -14 -15 -14 -15 -15 -16 -16 -16 -16 -16 -16 -16 -16 -17 -17 -17 -17 -17 -17
-13 -13 -13 -14 -14 -14 -14 -14 -15 -14 -14 -14 -15 -15 -15 -15 -15 -15 -14 -15 -14 -14 -15 -15 -15 -15 -16 -16 -16 -16 -17 -17 -17 -17 -17 -17 -17 -17 -17 -17 -17 -17 -17
-14 -14 -14 -14 -14 -14 -14 -14 -14 -15 -15 -15 -15 -15 -15 -15 -15 -15 -14 -14 -15 -15 -15 -15 -15 -15 -16 -16 -17 -17 -17 -17 -17 -17 -17 -17 -17 -17 -17 -17 -17 -17 -17
-14 -14 -14 -14 -15 -15 -15 -15 -14 -14 -15 -15 -15 -15 -15 -15 -15 -15 -15 -15 -15 -15 -16 -16 -16 -16 -16 -16 -16 -17 -17 -17 -18 -18 -17 -17 -17 -18 -18 -17 -17 -17 -17
-14 -14 -15 -15 -15 -15 -15 -15 -15 -15 -15 -16 -15 -15 -15 -14 -15 -15 -15 -15 -15 -15 -16 -16 -16 -16 -17 -17 -17 -17 -17 -18 -18 -19 -19 -19 -19 -18 -18 -18 -18 -18 -18
-14 -14 -14 -15 -14 -15 -15 -15 -15 -15 -15 -15 -15 -15 -15 -15 -15 -15 -15 -15 -16 -16 -16 -16 -17 -17 -18 -18 -18 -18 -18 -19 -19 -19 -19 -19 -19 -19 -19 -19 -19 -18 -18
-14 -14 -15 -15 -15 -15 -16 -15 -15 -15 -15 -15 -15 -15 -15 -15 -15 -15 -15 -16 -16 -16 -17 -17 -17 -17 -17 -18 -18 -18 -18 -19 -19 -19 -19 -19 -19 -19 -19 -19 -19 -18 -18
-15 -15 -15 -15 -15 -15 -15 -15 -15 -15 -14 -14 -14 -15 -15 -15 -15 -15 -15 -16 -17 -17 -17 -17 -17 -17 -17 -18 -18 -18 -18 -19 -19 -19 -19 -19 -19 -19 -19 -20 -20 -20 -20
-14 -15 -15 -15 -15 -15 -15 -15 -14 -14 -14 -14 -14 -15 -15 -15 -15 -15 -16 -16 -17 -17 -17 -17 -17 -18 -18 -18 -18 -19 -18 -19 -19 -19 -19 -20 -20 -20 -21 -21 -21 -21 -21
-15 -15 -15 -15 -15 -15 -14 -14 -14 -14 -15 -15 -15 -15 -15 -16 -15 -16 -16 -17 -17 -18 -18 -18 -18 -18 -19 -19 -19 -20 -20 -19 -19 -19 -19 -20 -21 -21 -21 -22 -22 -22 -23
-15 -15 -15 -15 -14 -14 -14 -15 -14 -15 -15 -15 -15 -15 -15 -16 -16 -16 -17 -17 -18 -18 -18 -18 -19 -19 -19 -19 -20 -20 -20 -20 -21 -21 -20 -21 -21 -21 -22 -22 -23 -25 -26
-15 -15 -15 -14 -14 -15 -15 -15 -15 -15 -15 -15 -15 -15 -15 -16 -16 -17 -17 -17 -17 -18 -18 -19 -19 -19 -20 -20 -21 -21 -21 -20 -21 -21 -21 -21 -21 -22 -23 -25 -26 -27 -29

GFSSE_500_temp_048.txt.gz
Temp
-9 -10 -10 -10 -10 -10 -11 -11 -11 -10 -11 -11 -11 -11 -11 -10 -10 -11 -11 -11 -11 -11 -11 -11 -11 -11 -11 -10 -10 -11 -11 -11 -11 -11 -11 -11 -11 -11 -11 -11 -11 -11 -12
-11 -11 -10 -10 -10 -9 -10 -11 -11 -12 -11 -12 -11 -11 -11 -11 -10 -11 -11 -11 -11 -12 -12 -12 -12 -11 -11 -11 -11 -11 -11 -11 -11 -11 -11 -11 -11 -11 -11 -12 -12 -12 -12
-11 -11 -10 -10 -10 -10 -10 -11 -11 -11 -11 -12 -12 -12 -12 -11 -11 -12 -11 -12 -12 -12 -12 -12 -12 -12 -12 -11 -11 -11 -11 -12 -12 -11 -11 -12 -12 -12 -12 -13 -13 -13 -13
-11 -11 -11 -11 -10 -11 -10 -11 -11 -12 -12 -12 -12 -12 -13 -12 -12 -12 -12 -12 -12 -12 -12 -12 -12 -12 -12 -12 -12 -12 -12 -12 -12 -12 -12 -12 -12 -12 -12 -12 -13 -12 -13
-10 -10 -11 -11 -10 -11 -11 -11 -12 -12 -12 -12 -12 -12 -13 -12 -12 -12 -12 -12 -12 -12 -12 -12 -12 -12 -12 -12 -12 -12 -12 -12 -12 -13 -13 -12 -12 -12 -12 -12 -12 -13 -13
-10 -11 -11 -11 -11 -11 -11 -11 -12 -12 -12 -12 -13 -13 -13 -13 -13 -12 -12 -12 -12 -12 -12 -12 -13 -13 -13 -13 -13 -13 -13 -13 -13 -12 -12 -12 -12 -12 -12 -12 -12 -12 -13
-11 -11 -12 -11 -10 -10 -11 -11 -11 -12 -12 -13 -14 -14 -14 -14 -13 -12 -12 -12 -12 -12 -12 -13 -13 -13 -14 -14 -14 -13 -13 -13 -13 -13 -13 -12 -12 -12 -12 -12 -12 -12 -13
-10 -10 -11 -10 -10 -10 -10 -11 -11 -12 -12 -14 -15 -13 -13 -13 -13 -12 -12 -12 -12 -13 -13 -13 -13 -13 -13 -14 -14 -13 -13 -13 -13 -13 -13 -12 -12 -12 -12 -12 -13 -13 -13
-9 -10 -10 -10 -10 -10 -10 -11 -11 -13 -14 -14 -14 -14 -13 -13 -12 -13 -12 -13 -13 -13 -13 -13 -13 -13 -14 -14 -14 -14 -13 -13 -13 -13 -13 -12 -12 -12 -12 -13 -13 -14 -14
-10 -11 -11 -10 -11 -11 -11 -11 -13 -16 -16 -16 -15 -14 -14 -13 -13 -13 -13 -13 -13 -13 -13 -14 -14 -14 -14 -14 -14 -14 -14 -13 -13 -13 -13 -12 -12 -12 -12 -13 -14 -14 -15
-11 -11 -11 -11 -11 -11 -11 -12 -13 -14 -16 -16 -15 -14 -14 -14 -13 -13 -13 -14 -14 -14 -14 -14 -14 -14 -14 -14 -15 -15 -15 -13 -13 -13 -13 -13 -13 -13 -14 -15 -15 -16 -16
-12 -11 -11 -11 -12 -11 -12 -13 -15 -16 -15 -15 -15 -14 -14 -14 -14 -14 -14 -14 -13 -14 -14 -14 -14 -14 -14 -14 -14 -14 -14 -14 -13 -14 -14 -14 -14 -14 -14 -15 -15 -16 -16
-11 -11 -11 -13 -14 -13 -14 -15 -14 -15 -15 -15 -14 -14 -14 -15 -15 -14 -14 -14 -14 -14 -14 -14 -14 -14 -14 -14 -14 -14 -15 -15 -14 -14 -14 -15 -15 -15 -15 -16 -16 -16 -17
-12 -14 -15 -15 -14 -14 -14 -14 -14 -14 -14 -14 -14 -15 -14 -14 -15 -15 -14 -14 -14 -14 -15 -14 -14 -14 -14 -14 -14 -14 -14 -15 -15 -15 -16 -16 -16 -16 -16 -16 -17 -17 -17
-16 -16 -15 -14 -14 -14 -14 -14 -14 -14 -14 -14 -14 -14 -14 -15 -15 -15 -14 -14 -14 -14 -15 -14 -14 -14 -14 -14 -14 -14 -15 -15 -15 -15 -16 -16 -17 -17 -17 -17 -17 -17 -17
-14 -13 -13 -13 -13 -14 -14 -14 -14 -14 -14 -14 -14 -14 -14 -14 -14 -15 -14 -15 -15 -14 -14 -14 -14 -15 -15 -15 -15 -15 -15 -15 -16 -16 -16 -16 -17 -17 -17 -17 -17 -18 -18
-13 -13 -14 -14 -14 -14 -15 -15 -15 -14 -15 -14 -15 -15 -15 -15 -14 -14 -14 -15 -15 -14 -14 -15 -15 -15 -15 -15 -15 -16 -16 -16 -16 -17 -17 -17 -17 -17 -17 -17 -17 -18 -18
-13 -14 -14 -14 -14 -14 -14 -15 -15 -15 -15 -15 -15 -15 -15 -15 -15 -15 -15 -15 -15 -15 -15 -15 -16 -15 -16 -16 -16 -16 -17 -17 -17 -17 -18 -18 -18 -18 -18 -18 -18 -18 -18
-15 -14 -14 -15 -15 -15 -15 -15 -15 -15 -15 -15 -15 -15 -15 -15 -15 -15 -15 -15 -15 -16 -16 -16 -16 -16 -17 -17 -17 -17 -17 -18 -18 -18 -19 -19 -19 -19 -19 -19 -19 -19 -18
-15 -15 -15 -15 -15 -15 -15 -15 -15 -16 -15 -15 -15 -15 -15 -15 -15 -15 -15 -15 -16 -16 -16 -16 -17 -17 -17 -17 -18 -18 -18 -18 -19 -19 -19 -19 -19 -19 -19 -19 -19 -19 -19
-14 -14 -15 -15 -15 -15 -16 -16 -16 -15 -15 -15 -15 -15 -15 -15 -15 -15 -15 -16 -16 -16 -16 -17 -17 -17 -18 -18 -18 -18 -18 -18 -19 -19 -19 -20 -20 -19 -19 -19 -19 -19 -19
-15 -15 -15 -15 -15 -15 -15 -15 -15 -15 -15 -15 -15 -15 -15 -15 -15 -16 -16 -16 -16 -17 -17 -17 -17 -17 -18 -18 -18 -18 -18 -19 -19 -20 -19 -20 -20 -20 -20 -20 -20 -20 -21
-16 -16 -15 -15 -15 -15 -15 -15 -14 -14 -15 -15 -15 -15 -15 -15 -15 -16 -16 -17 -17 -17 -17 -17 -17 -18 -18 -19 -19 -19 -19 -19 -19 -19 -20 -20 -20 -21 -21 -21 -21 -21 -21
-15 -16 -15 -15 -15 -15 -15 -14 -14 -15 -15 -15 -15 -15 -15 -15 -16 -16 -17 -17 -17 -17 -18 -18 -18 -19 -19 -19 -19 -19 -19 -19 -19 -19 -19 -20 -21 -21 -22 -22 -22 -22 -22
-15 -15 -15 -15 -15 -15 -15 -14 -15 -15 -15 -15 -15 -15 -16 -16 -16 -17 -17 -17 -17 -18 -18 -18 -20 -20 -19 -19 -19 -19 -19 -20 -20 -20 -20 -20 -21 -21 -22 -22 -22 -23 -23
-14 -14 -14 -15 -15 -15 -15 -15 -15 -15 -15 -15 -15 -16 -16 -16 -17 -17 -17 -17 -18 -18 -18 -19 -19 -19 -19 -19 -19 -20 -20 -20 -20 -21 -21 -21 -21 -22 -22 -23 -23 -23 -24

GFSSE_500_temp_051.txt.gz
Temp
-10 -10 -10 -10 -10 -10 -10 -10 -10 -10 -10 -11 -10 -10 -11 -11 -11 -11 -11 -11 -11 -11 -11 -11 -11 -11 -11 -11 -11 -10 -10 -11 -10 -10 -10 -11 -10 -11 -10 -11 -11 -10 -11
-11 -11 -11 -11 -11 -11 -11 -10 -10 -10 -10 -10 -11 -11 -12 -12 -12 -12 -11 -11 -11 -11 -11 -11 -11 -11 -11 -11 -11 -11 -11 -11 -11 -11 -11 -11 -11 -11 -11 -11 -11 -11 -11
-11 -11 -11 -11 -11 -11 -10 -11 -11 -11 -11 -11 -11 -12 -12 -12 -12 -12 -12 -12 -12 -12 -11 -11 -11 -11 -11 -11 -11 -12 -12 -12 -12 -11 -11 -12 -12 -11 -11 -11 -11 -11 -11
-11 -11 -11 -11 -11 -11 -11 -11 -11 -11 -11 -11 -12 -12 -12 -12 -13 -13 -12 -12 -12 -12 -12 -12 -12 -12 -12 -12 -12 -12 -12 -12 -12 -12 -12 -12 -12 -12 -12 -12 -11 -11 -11
-11 -11 -12 -12 -11 -11 -11 -11 -11 -11 -11 -12 -12 -12 -12 -13 -13 -14 -13 -13 -12 -12 -12 -12 -12 -12 -12 -12 -12 -12 -13 -13 -12 -12 -12 -12 -12 -12 -12 -12 -12 -12 -11
-11 -11 -12 -11 -12 -12 -11 -11 -11 -11 -11 -12 -12 -12 -13 -15 -15 -14 -13 -12 -12 -12 -12 -13 -12 -12 -12 -12 -12 -13 -13 -13 -13 -13 -13 -13 -13 -12 -12 -12 -12 -12 -11
-11 -10 -11 -11 -10 -11 -11 -11 -11 -11 -12 -12 -12 -12 -15 -15 -14 -14 -13 -14 -13 -13 -13 -13 -13 -13 -13 -13 -13 -13 -13 -13 -13 -13 -13 -12 -12 -12 -12 -12 -12 -12 -12
-11 -11 -10 -10 -11 -11 -11 -11 -11 -11 -11 -11 -12 -15 -15 -15 -15 -15 -14 -13 -13 -13 -13 -13 -13 -13 -13 -13 -13 -14 -13 -13 -13 -13 -13 -13 -13 -13 -13 -12 -12 -12 -12
-10 -8 -10 -10 -10 -10 -10 -11 -11 -11 -11 -12 -15 -16 -15 -14 -14 -14 -13 -14 -14 -14 -14 -13 -13 -14 -14 -14 -13 -13 -13 -13 -13 -12 -12 -12 -12 -13 -12 -12 -12 -12 -13
-11 -10 -10 -11 -11 -11 -11 -11 -11 -12 -14 -17 -15 -16 -16 -14 -14 -14 -14 -14 -14 -13 -13 -13 -14 -14 -14 -13 -13 -13 -13 -12 -12 -12 -12 -12 -12 -12 -13 -13 -13 -13 -14
-11 -12 -11 -11 -11 -11 -11 -11 -12 -12 -14 -16 -17 -15 -15 -15 -14 -14 -14 -14 -14 -13 -13 -14 -14 -14 -14 -14 -14 -13 -13 -12 -12 -12 -12 -12 -13 -13 -14 -14 -14 -15 -15
-11 -12 -12 -12 -12 -11 -12 -12 -12 -13 -15 -16 -16 -15 -15 -14 -14 -14 -14 -14 -14 -14 -13 -14 -14 -14 -14 -14 -14 -13 -13 -13 -13 -13 -13 -13 -13 -13 -14 -14 -15 -15 -16
-12 -12 -12 -12 -12 -12 -12 -12 -15 -17 -16 -16 -16 -15 -15 -15 -15 -15 -15 -14 -13 -13 -14 -14 -14 -14 -14 -14 -14 -14 -14 -14 -14 -14 -14 -14 -14 -14 -14 -14 -15 -16 -16
-12 -12 -13 -12 -12 -13 -14 -16 -16 -16 -16 -15 -14 -15 -15 -15 -15 -14 -14 -14 -14 -14 -14 -14 -14 -14 -14 -14 -14 -14 -14 -14 -14 -14 -15 -15 -15 -15 -15 -15 -15 -16 -17
-14 -15 -15 -16 -16 -16 -15 -15 -15 -14 -14 -15 -15 -14 -15 -15 -14 -14 -14 -15 -15 -14 -14 -15 -14 -14 -14 -14 -14 -14 -15 -15 -15 -15 -15 -15 -15 -15 -15 -16 -16 -16 -17
-15 -16 -16 -15 -15 -15 -14 -14 -14 -14 -15 -15 -15 -15 -15 -15 -15 -15 -15 -14 -14 -15 -14 -14 -14 -15 -15 -15 -15 -15 -15 -15 -15 -15 -16 -16 -16 -16 -16 -16 -16 -17 -17
-15 -15 -15 -15 -14 -14 -14 -14 -14 -14 -15 -15 -15 -15 -15 -15 -15 -15 -14 -14 -14 -14 -15 -15 -15 -15 -15 -15 -15 -15 -16 -16 -16 -16 -16 -16 -16 -16 -16 -16 -17 -17 -17
-14 -14 -14 -14 -14 -14 -14 -15 -15 -15 -15 -16 -15 -15 -15 -15 -14 -14 -14 -14 -14 -15 -15 -15 -15 -15 -16 -16 -16 -16 -17 -17 -17 -17 -17 -17 -17 -17 -17 -17 -18 -18 -18
-14 -14 -14 -14 -15 -15 -15 -15 -15 -16 -16 -15 -15 -15 -15 -14 -15 -15 -15 -15 -15 -15 -15 -15 -16 -16 -16 -17 -17 -17 -17 -18 -18 -18 -18 -18 -18 -18 -18 -18 -19 -18 -18
-15 -15 -15 -15 -15 -15 -16 -16 -16 -16 -15 -15 -15 -15 -15 -15 -15 -15 -15 -15 -15 -16 -16 -16 -16 -17 -17 -17 -17 -18 -18 -19 -19 -19 -19 -19 -19 -19 -19 -19 -19 -19 -19
-15 -15 -15 -15 -15 -16 -16 -16 -16 -15 -15 -15 -15 -15 -15 -15 -15 -15 -15 -15 -16 -16 -16 -16 -17 -17 -17 -18 -19 -19 -19 -19 -19 -19 -19 -19 -20 -20 -19 -19 -19 -19 -20
-15 -15 -15 -15 -15 -16 -16 -16 -16 -15 -15 -15 -15 -15 -15 -15 -15 -15 -16 -16 -16 -16 -16 -17 -17 -18 -18 -18 -19 -19 -19 -19 -19 -20 -20 -20 -20 -20 -20 -20 -20 -20 -20
-15 -15 -15 -15 -16 -16 -16 -15 -15 -15 -15 -15 -15 -15 -15 -15 -15 -16 -16 -16 -16 -16 -17 -17 -18 -18 -19 -19 -19 -19 -18 -19 -19 -20 -20 -20 -20 -20 -21 -21 -21 -21 -22
-15 -15 -16 -15 -15 -15 -15 -15 -15 -15 -15 -15 -15 -15 -15 -15 -16 -16 -16 -16 -16 -17 -18 -19 -19 -19 -19 -19 -19 -20 -20 -19 -19 -19 -19 -20 -20 -21 -21 -21 -22 -23 -23
-16 -16 -15 -15 -16 -15 -15 -15 -15 -15 -15 -15 -15 -15 -15 -16 -16 -16 -17 -17 -18 -18 -18 -19 -19 -19 -19 -19 -20 -20 -20 -20 -20 -19 -19 -20 -20 -21 -21 -22 -22 -22 -23
-15 -15 -15 -15 -15 -16 -15 -15 -16 -15 -15 -15 -15 -15 -15 -16 -16 -17 -17 -18 -18 -18 -19 -19 -19 -19 -19 -20 -20 -20 -20 -20 -20 -20 -20 -21 -21 -21 -22 -22 -23 -23 -24

GFSSE_500_temp_054.txt.gz
Temp
-11 -10 -10 -10 -10 -10 -10 -10 -10 -10 -10 -9 -9 -10 -10 -11 -11 -11 -11 -11 -11 -11 -11 -11 -11 -11 -11 -11 -11 -11 -11 -11 -11 -10 -11 -10 -10 -10 -10 -10 -10 -10 -10
-11 -11 -10 -10 -10 -11 -11 -11 -11 -10 -11 -10 -10 -11 -11 -11 -12 -12 -12 -12 -12 -11 -11 -11 -11 -12 -12 -11 -11 -11 -11 -11 -11 -11 -11 -11 -11 -10 -10 -10 -11 -11 -11
-11 -11 -11 -10 -11 -11 -11 -11 -11 -11 -11 -11 -11 -11 -11 -11 -12 -12 -12 -12 -12 -12 -12 -12 -12 -12 -12 -12 -12 -12 -12 -11 -11 -11 -11 -11 -11 -11 -11 -11 -11 -11 -11
-11 -11 -10 -10 -11 -11 -11 -11 -11 -11 -11 -11 -11 -11 -12 -12 -12 -13 -13 -13 -12 -12 -12 -12 -12 -12 -12 -12 -12 -12 -12 -12 -12 -12 -12 -12 -12 -11 -11 -12 -12 -12 -12
-11 -10 -10 -11 -11 -11 -11 -11 -11 -11 -11 -11 -12 -12 -12 -12 -12 -14 -14 -14 -13 -13 -12 -12 -12 -12 -12 -12 -12 -12 -12 -12 -12 -12 -12 -12 -12 -12 -12 -12 -12 -12 -12
-11 -11 -11 -11 -11 -11 -11 -11 -12 -12 -11 -11 -12 -12 -12 -12 -14 -15 -15 -14 -13 -13 -13 -13 -13 -13 -12 -12 -13 -12 -13 -13 -13 -13 -13 -13 -12 -12 -12 -12 -12 -12 -12
-11 -11 -11 -11 -11 -11 -11 -11 -12 -11 -12 -12 -12 -12 -11 -12 -15 -15 -15 -14 -13 -13 -13 -13 -13 -13 -13 -13 -13 -13 -13 -13 -13 -13 -13 -13 -13 -12 -12 -12 -12 -12 -12
-11 -11 -10 -11 -11 -11 -11 -11 -11 -12 -12 -12 -12 -12 -12 -15 -15 -16 -15 -15 -14 -14 -13 -13 -13 -13 -13 -12 -12 -13 -13 -13 -13 -13 -13 -12 -12 -12 -12 -12 -12 -12 -12
-12 -12 -9 -10 -10 -10 -11 -11 -11 -12 -12 -12 -12 -12 -14 -16 -16 -15 -15 -15 -14 -15 -14 -13 -13 -13 -12 -13 -13 -13 -13 -13 -13 -13 -12 -12 -12 -13 -13 -13 -13 -13 -13
-12 -12 -11 -10 -11 -10 -10 -10 -11 -11 -11 -12 -12 -14 -17 -16 -16 -15 -15 -15 -15 -14 -14 -13 -13 -13 -13 -13 -14 -14 -13 -13 -13 -13 -13 -13 -13 -13 -13 -13 -13 -13 -13
-11 -11 -12 -11 -12 -11 -11 -11 -12 -11 -12 -13 -14 -16 -16 -16 -15 -15 -15 -15 -15 -14 -14 -14 -13 -13 -13 -14 -14 -14 -14 -13 -13 -13 -13 -13 -13 -13 -13 -14 -14 -14 -14
-12 -12 -11 -11 -12 -12 -12 -12 -12 -13 -13 -14 -15 -17 -17 -16 -15 -15 -14 -14 -14 -14 -14 -14 -13 -14 -14 -14 -14 -14 -14 -14 -14 -14 -13 -13 -13 -14 -14 -14 -15 -15 -15
-12 -12 -12 -12 -12 -12 -12 -12 -12 -13 -15 -15 -16 -16 -16 -16 -15 -14 -14 -15 -15 -14 -14 -14 -14 -14 -14 -14 -14 -14 -14 -14 -14 -14 -14 -14 -14 -14 -14 -14 -15 -15 -15
-12 -12 -12 -12 -12 -13 -13 -12 -12 -15 -17 -17 -16 -16 -16 -15 -15 -15 -15 -15 -15 -14 -14 -14 -14 -14 -14 -14 -14 -15 -15 -15 -15 -15 -14 -14 -14 -14 -15 -15 -15 -15 -15
-12 -13 -13 -13 -12 -14 -16 -16 -16 -16 -16 -16 -16 -16 -16 -15 -15 -15 -15 -15 -14 -14 -14 -14 -14 -15 -15 -15 -15 -15 -15 -15 -15 -15 -15 -15 -15 -15 -15 -15 -16 -16 -16
-14 -15 -16 -16 -16 -16 -16 -16 -16 -16 -15 -15 -15 -15 -15 -15 -15 -15 -15 -15 -14 -14 -14 -14 -14 -15 -14 -15 -15 -15 -15 -15 -15 -15 -15 -16 -16 -16 -16 -16 -16 -16 -16
-16 -15 -16 -16 -15 -15 -15 -15 -15 -15 -15 -14 -15 -15 -15 -15 -15 -15 -15 -15 -14 -14 -15 -15 -15 -15 -15 -15 -15 -15 -15 -16 -16 -16 -16 -17 -17 -17 -17 -17 -17 -17 -17
-15 -15 -15 -15 -15 -15 -15 -15 -15 -15 -14 -15 -15 -15 -15 -15 -15 -15 -15 -15 -15 -15 -15 -15 -15 -15 -15 -15 -15 -15 -16 -16 -16 -17 -17 -17 -17 -17 -17 -18 -18 -18 -18
-15 -15 -15 -15 -16 -15 -15 -15 -15 -15 -14 -14 -15 -15 -15 -15 -15 -15 -15 -15 -15 -15 -15 -15 -15 -15 -15 -16 -16 -16 -17 -17 -17 -17 -17 -18 -18 -18 -18 -18 -18 -19 -19
-15 -15 -15 -15 -15 -15 -15 -15 -15 -15 -15 -15 -15 -15 -15 -15 -15 -15 -15 -15 -15 -15 -15 -15 -15 -16 -16 -16 -17 -17 -17 -18 -18 -18 -18 -19 -19 -19 -19 -19 -19 -19 -19
-15 -15 -15 -14 -15 -15 -15 -15 -15 -15 -15 -16 -15 -15 -15 -15 -15 -15 -15 -15 -15 -15 -15 -16 -16 -16 -16 -17 -17 -18 -18 -18 -19 -19 -19 -20 -19 -19 -19 -19 -19 -19 -19
-15 -15 -15 -15 -15 -15 -15 -16 -16 -16 -16 -15 -15 -15 -15 -15 -15 -15 -15 -15 -15 -15 -16 -16 -16 -16 -17 -17 -18 -18 -19 -19 -19 -20 -20 -20 -20 -20 -20 -20 -20 -20 -20
-16 -16 -16 -15 -16 -16 -16 -16 -15 -15 -15 -15 -15 -15 -15 -15 -15 -15 -15 -15 -16 -16 -16 -16 -17 -17 -17 -18 -19 -19 -19 -19 -19 -20 -20 -21 -21 -21 -21 -21 -20 -20 -20
-15 -15 -15 -15 -15 -15 -15 -15 -15 -15 -15 -15 -15 -15 -15 -15 -15 -15 -15 -16 -16 -16 -17 -17 -17 -18 -18 -19 -19 -19 -19 -19 -19 -19 -20 -20 -21 -21 -21 -21 -21 -21 -22
-16 -15 -15 -15 -15 -15 -15 -15 -15 -15 -15 -15 -16 -15 -15 -15 -15 -16 -16 -17 -17 -18 -18 -18 -18 -18 -19 -20 -20 -20 -20 -20 -20 -20 -20 -20 -20 -20 -20 -21 -22 -22 -23
-16 -16 -15 -15 -15 -15 -15 -15 -15 -16 -16 -16 -16 -15 -15 -15 -16 -16 -17 -18 -18 -19 -18 -19 -19 -19 -19 -19 -20 -19 -20 -20 -20 -21 -20 -20 -21 -21 -21 -22 -23 -23 -24

GFSSE_500_temp_057.txt.gz
Temp
-10 -10 -10 -10 -10 -10 -10 -10 -10 -10 -10 -10 -10 -10 -9 -10 -10 -11 -12 -12 -11 -12 -12 -11 -11 -11 -11 -11 -11 -11 -11 -11 -11 -11 -11 -11 -11 -11 -10 -10 -10 -10 -11
-11 -11 -11 -10 -10 -10 -10 -10 -10 -11 -10 -10 -10 -10 -10 -10 -11 -11 -12 -12 -12 -12 -12 -12 -12 -11 -12 -12 -11 -11 -11 -11 -11 -11 -11 -11 -11 -11 -11 -11 -11 -11 -11
-11 -11 -11 -10 -10 -10 -10 -11 -11 -11 -10 -10 -10 -10 -10 -11 -11 -11 -12 -12 -12 -12 -12 -12 -12 -12 -12 -12 -12 -12 -12 -12 -12 -11 -11 -11 -11 -11 -11 -11 -11 -11 -11
-11 -11 -11 -11 -10 -11 -11 -12 -11 -11 -11 -11 -11 -11 -11 -11 -12 -12 -12 -12 -12 -13 -12 -12 -13 -13 -12 -12 -12 -12 -12 -12 -12 -11 -11 -11 -11 -11 -11 -11 -11 -11 -11
-11 -11 -11 -11 -11 -12 -12 -12 -11 -11 -11 -11 -11 -11 -11 -12 -12 -12 -12 -12 -13 -13 -13 -13 -13 -13 -12 -12 -12 -12 -12 -12 -12 -12 -12 -12 -12 -12 -12 -12 -12 -12 -12
-11 -11 -11 -11 -12 -12 -12 -12 -11 -11 -11 -12 -11 -12 -12 -12 -12 -12 -12 -13 -14 -13 -13 -13 -13 -13 -13 -13 -12 -12 -12 -12 -12 -13 -12 -13 -13 -12 -12 -12 -12 -12 -12
-10 -11 -11 -11 -11 -11 -11 -11 -11 -11 -11 -11 -12 -12 -12 -12 -12 -12 -13 -14 -14 -14 -13 -13 -13 -13 -13 -13 -12 -12 -12 -12 -13 -13 -13 -13 -13 -13 -12 -12 -12 -12 -12
-12 -12 -12 -11 -11 -11 -11 -11 -10 -11 -11 -11 -11 -12 -12 -12 -12 -13 -14 -14 -14 -14 -14 -13 -13 -13 -13 -12 -12 -12 -13 -13 -13 -13 -13 -13 -13 -13 -12 -12 -12 -13 -12
-12 -12 -10 -12 -11 -11 -10 -11 -11 -11 -11 -11 -12 -12 -12 -12 -12 -14 -15 -15 -15 -14 -14 -14 -13 -13 -12 -12 -13 -13 -14 -14 -13 -13 -13 -13 -13 -13 -13 -13 -13 -13 -13
-12 -12 -13 -12 -10 -10 -10 -11 -11 -12 -11 -11 -11 -12 -13 -14 -14 -16 -15 -15 -15 -14 -14 -14 -13 -12 -13 -13 -12 -13 -14 -14 -14 -13 -14 -14 -14 -14 -14 -14 -14 -14 -14
-12 -12 -12 -12 -12 -12 -12 -12 -11 -11 -11 -11 -12 -13 -14 -16 -16 -16 -15 -15 -14 -14 -14 -13 -13 -13 -14 -14 -14 -14 -14 -14 -14 -14 -14 -13 -14 -14 -14 -14 -14 -14 -14
-12 -12 -12 -11 -11 -12 -13 -12 -12 -11 -11 -11 -12 -14 -16 -17 -16 -16 -15 -15 -14 -14 -14 -13 -13 -14 -14 -14 -14 -14 -14 -14 -14 -13 -14 -14 -14 -14 -15 -15 -15 -15 -15
-12 -12 -11 -12 -11 -11 -12 -12 -12 -12 -12 -13 -13 -15 -17 -17 -17 -16 -15 -15 -14 -14 -14 -14 -14 -14 -14 -14 -14 -14 -14 -14 -14 -14 -14 -14 -14 -14 -15 -15 -16 -16 -15
-13 -12 -11 -11 -12 -12 -12 -13 -12 -13 -14 -14 -16 -17 -17 -16 -16 -16 -15 -15 -15 -14 -14 -14 -14 -14 -14 -14 -14 -14 -14 -14 -14 -14 -14 -14 -14 -14 -14 -15 -15 -16 -16
-12 -11 -12 -12 -12 -12 -12 -13 -13 -15 -16 -16 -16 -17 -16 -16 -15 -16 -15 -15 -15 -15 -14 -14 -14 -14 -14 -14 -14 -14 -15 -14 -14 -14 -15 -15 -15 -15 -15 -15 -15 -16 -16
-13 -13 -13 -13 -13 -13 -15 -16 -16 -16 -16 -16 -16 -16 -16 -16 -15 -15 -15 -15 -14 -14 -14 -14 -14 -14 -14 -14 -14 -14 -15 -15 -15 -15 -15 -15 -16 -16 -16 -16 -16 -16 -16
-14 -14 -14 -14 -14 -15 -15 -16 -16 -16 -16 -16 -16 -15 -15 -16 -15 -15 -14 -14 -14 -14 -14 -14 -14 -14 -14 -15 -15 -15 -15 -15 -16 -16 -16 -16 -16 -16 -17 -17 -17 -17 -17
-16 -15 -15 -15 -15 -15 -16 -16 -16 -15 -15 -15 -15 -15 -15 -15 -15 -15 -15 -14 -14 -14 -14 -15 -15 -15 -15 -15 -15 -15 -15 -16 -16 -16 -16 -17 -17 -17 -17 -17 -17 -18 -18
-16 -16 -16 -15 -15 -15 -15 -15 -15 -15 -15 -15 -14 -15 -15 -15 -15 -14 -14 -14 -15 -15 -15 -15 -15 -15 -15 -15 -15 -15 -16 -16 -16 -16 -17 -17 -17 -17 -17 -17 -17 -18 -18
-15 -15 -15 -15 -15 -15 -15 -15 -15 -15 -15 -15 -15 -15 -15 -15 -15 -15 -15 -15 -15 -15 -15 -15 -15 -15 -15 -15 -16 -16 -17 -17 -17 -18 -17 -17 -17 -17 -18 -18 -18 -18 -18
-16 -16 -15 -15 -15 -15 -16 -16 -15 -15 -15 -15 -15 -15 -15 -15 -15 -15 -15 -15 -15 -15 -15 -15 -15 -15 -15 -16 -16 -16 -17 -17 -18 -18 -18 -18 -18 -19 -19 -19 -19 -19 -19
-16 -16 -16 -16 -16 -16 -16 -16 -15 -15 -15 -15 -15 -15 -15 -15 -15 -15 -15 -15 -15 -15 -15 -15 -16 -16 -16 -16 -17 -17 -18 -18 -18 -19 -19 -19 -19 -19 -20 -20 -19 -19 -19
-15 -16 -16 -16 -16 -15 -15 -15 -15 -16 -16 -15 -15 -15 -15 -15 -15 -15 -15 -15 -15 -16 -15 -16 -16 -17 -17 -17 -18 -18 -18 -18 -19 -19 -19 -19 -19 -20 -20 -20 -20 -20 -20
-15 -15 -15 -15 -15 -16 -16 -16 -16 -16 -16 -15 -15 -15 -16 -15 -15 -15 -16 -16 -16 -16 -16 -17 -17 -17 -17 -18 -18 -19 -19 -19 -19 -19 -20 -20 -20 -20 -20 -20 -20 -21 -21
-15 -15 -15 -15 -15 -15 -16 -16 -16 -15 -15 -15 -15 -16 -16 -16 -15 -16 -16 -16 -16 -16 -17 -17 -17 -17 -18 -19 -19 -19 -20 -20 -20 -20 -20 -20 -20 -20 -21 -21 -21 -22 -22
-16 -15 -15 -15 -15 -16 -16 -16 -16 -16 -15 -16 -16 -16 -16 -16 -16 -16 -16 -16 -16 -17 -17 -18 -18 -18 -19 -19 -19 -20 -20 -19 -20 -21 -20 -20 -20 -21 -21 -22 -22 -22 -22

GFSSE_500_temp_060.txt.gz
Temp
-11 -11 -10 -10 -10 -10 -9 -9 -9 -9 -9 -9 -9 -9 -9 -10 -10 -10 -10 -11 -10 -11 -11 -11 -11 -11 -11 -11 -11 -11 -11 -11 -11 -11 -11 -11 -11 -11 -10 -10 -10 -10 -11
-11 -11 -10 -10 -10 -10 -10 -10 -10 -9 -9 -9 -10 -10 -9 -10 -10 -11 -11 -11 -11 -11 -12 -12 -12 -11 -11 -11 -11 -11 -11 -11 -11 -11 -11 -11 -11 -11 -11 -11 -11 -11 -11
-11 -10 -10 -10 -10 -10 -10 -10 -10 -10 -10 -10 -10 -10 -10 -10 -11 -11 -11 -11 -12 -11 -12 -12 -12 -12 -12 -12 -12 -12 -12 -12 -11 -11 -11 -11 -11 -11 -11 -11 -11 -11 -11
-11 -10 -10 -10 -10 -10 -10 -10 -11 -11 -11 -11 -11 -11 -10 -11 -11 -11 -11 -11 -12 -12 -12 -12 -12 -12 -12 -12 -12 -12 -12 -12 -12 -12 -12 -12 -12 -12 -12 -12 -12 -12 -12
-11 -11 -11 -11 -11 -11 -11 -11 -12 -12 -11 -11 -11 -11 -11 -11 -12 -11 -11 -12 -12 -12 -13 -13 -13 -12 -13 -13 -12 -12 -12 -12 -12 -12 -12 -12 -12 -12 -12 -12 -12 -12 -12
-12 -12 -11 -11 -11 -11 -11 -11 -12 -11 -11 -11 -11 -12 -12 -11 -12 -12 -12 -12 -12 -13 -13 -13 -13 -13 -13 -13 -13 -12 -12 -12 -12 -12 -12 -12 -12 -12 -12 -12 -12 -12 -12
-11 -10 -11 -11 -11 -11 -11 -12 -11 -11 -11 -11 -11 -12 -12 -12 -12 -12 -12 -12 -13 -13 -13 -13 -13 -13 -13 -13 -13 -12 -12 -12 -13 -13 -13 -13 -13 -13 -13 -13 -13 -12 -12
-11 -9 -10 -9 -11 -11 -11 -11 -12 -11 -11 -11 -12 -12 -12 -12 -12 -12 -12 -12 -13 -14 -14 -14 -14 -14 -13 -13 -13 -12 -12 -13 -13 -13 -13 -13 -13 -13 -13 -13 -13 -13 -13
-12 -12 -12 -12 -11 -10 -11 -11 -11 -12 -12 -12 -12 -11 -11 -12 -12 -12 -13 -13 -15 -14 -14 -14 -14 -14 -13 -13 -12 -13 -13 -13 -13 -13 -13 -13 -13 -13 -13 -13 -13 -13 -13
-13 -13 -12 -12 -11 -11 -10 -10 -11 -12 -11 -12 -12 -11 -12 -12 -12 -13 -14 -14 -15 -15 -15 -14 -14 -14 -13 -13 -13 -13 -13 -13 -13 -13 -13 -13 -13 -13 -13 -13 -13 -14 -14
-13 -13 -13 -13 -13 -13 -11 -12 -12 -12 -12 -12 -12 -12 -12 -12 -13 -14 -15 -15 -15 -14 -14 -14 -14 -13 -13 -13 -13 -13 -13 -13 -13 -13 -13 -13 -13 -13 -14 -13 -13 -14 -14
-13 -13 -12 -13 -12 -12 -13 -13 -12 -12 -12 -12 -12 -13 -12 -13 -14 -14 -15 -15 -15 -14 -14 -14 -14 -14 -13 -13 -13 -14 -13 -13 -13 -13 -13 -13 -14 -14 -14 -14 -14 -14 -14
-12 -13 -12 -13 -12 -12 -12 -12 -11 -12 -12 -12 -12 -12 -12 -13 -16 -16 -16 -15 -15 -14 -14 -14 -14 -14 -13 -14 -14 -14 -13 -14 -14 -14 -14 -14 -14 -14 -15 -15 -15 -15 -15
-12 -12 -13 -12 -12 -12 -11 -11 -11 -12 -13 -12 -12 -13 -14 -16 -16 -16 -15 -15 -14 -14 -14 -14 -14 -14 -14 -14 -14 -14 -14 -14 -14 -14 -14 -14 -14 -14 -14 -15 -15 -15 -16
-12 -12 -13 -12 -11 -11 -12 -12 -12 -12 -12 -13 -14 -16 -16 -16 -16 -15 -15 -15 -14 -14 -14 -14 -14 -14 -14 -14 -14 -14 -14 -14 -14 -14 -14 -14 -14 -14 -14 -14 -15 -15 -16
-13 -12 -12 -12 -12 -12 -12 -12 -13 -13 -14 -15 -15 -15 -16 -16 -16 -16 -15 -15 -14 -14 -14 -14 -14 -14 -14 -15 -15 -14 -14 -14 -14 -14 -14 -14 -14 -14 -14 -15 -15 -15 -16
-13 -13 -12 -12 -12 -12 -13 -14 -14 -15 -15 -15 -16 -16 -16 -16 -16 -15 -15 -14 -15 -15 -14 -14 -14 -15 -15 -15 -15 -15 -15 -15 -15 -15 -15 -15 -15 -15 -15 -16 -16 -16 -16
-15 -14 -15 -15 -15 -14 -14 -15 -16 -16 -16 -16 -16 -16 -16 -16 -16 -15 -15 -14 -14 -14 -14 -14 -15 -15 -15 -15 -15 -15 -15 -15 -15 -15 -16 -16 -16 -16 -16 -17 -17 -17 -17
-16 -15 -15 -15 -15 -15 -15 -15 -16 -16 -16 -16 -16 -16 -16 -16 -16 -15 -14 -15 -15 -15 -15 -15 -15 -15 -15 -15 -15 -15 -15 -15 -15 -16 -16 -16 -17 -17 -17 -17 -17 -17 -18
-16 -15 -15 -15 -15 -14 -15 -15 -16 -17 -17 -16 -16 -16 -16 -16 -15 -15 -15 -15 -15 -15 -15 -15 -15 -15 -15 -15 -15 -15 -15 -16 -16 -16 -17 -17 -18 -18 -18 -18 -18 -18 -18
-16 -15 -15 -15 -16 -16 -16 -16 -16 -16 -16 -15 -16 -16 -15 -16 -15 -16 -15 -15 -15 -15 -15 -15 -15 -15 -15 -15 -16 -15 -16 -16 -16 -17 -17 -18 -18 -18 -18 -18 -19 -19 -19
-15 -15 -16 -16 -16 -16 -16 -16 -16 -16 -16 -15 -15 -15 -15 -15 -16 -15 -15 -16 -15 -16 -15 -15 -15 -15 -16 -16 -16 -16 -16 -16 -17 -18 -18 -18 -18 -19 -19 -19 -19 -19 -19
-16 -16 -16 -16 -16 -16 -16 -16 -16 -16 -16 -16 -16 -15 -15 -15 -15 -15 -16 -16 -16 -15 -15 -15 -16 -16 -16 -17 -17 -17 -17 -17 -18 -17 -18 -19 -19 -19 -19 -19 -19 -20 -20
-16 -16 -16 -16 -16 -16 -16 -16 -16 -16 -16 -16 -15 -15 -15 -16 -16 -15 -16 -16 -15 -15 -16 -16 -16 -16 -17 -17 -17 -18 -18 -18 -18 -19 -19 -19 -19 -20 -20 -20 -20 -20 -20
-16 -16 -16 -16 -16 -16 -16 -16 -16 -16 -16 -16 -16 -16 -16 -15 -15 -16 -16 -16 -15 -16 -16 -16 -16 -16 -17 -17 -18 -18 -18 -19 -19 -19 -19 -20 -20 -19 -19 -20 -21 -21 -21
-15 -15 -15 -15 -16 -16 -16 -16 -16 -16 -16 -16 -16 -16 -16 -16 -16 -16 -15 -15 -16 -16 -16 -16 -16 -16 -17 -17 -18 -18 -19 -19 -19 -19 -20 -20 -20 -21 -20 -21 -21 -21 -22

GFSSE_500_temp_063.txt.gz
Temp
-11 -11 -11 -11 -10 -10 -10 -9 -9 -9 -9 -9 -9 -10 -10 -10 -10 -10 -10 -10 -10 -10 -10 -10 -10 -11 -11 -11 -11 -11 -11 -11 -11 -11 -11 -11 -11 -11 -11 -11 -11 -11 -11
-11 -11 -11 -11 -10 -10 -9 -9 -9 -10 -10 -10 -10 -10 -10 -10 -10 -10 -10 -10 -10 -10 -10 -10 -11 -11 -11 -11 -11 -11 -11 -11 -11 -11 -11 -11 -11 -11 -11 -11 -11 -11 -11
-11 -11 -11 -11 -10 -10 -10 -10 -10 -10 -10 -10 -11 -11 -11 -11 -11 -11 -10 -10 -11 -10 -11 -11 -11 -12 -12 -12 -12 -12 -12 -12 -11 -11 -11 -11 -11 -11 -11 -11 -11 -11 -11
-11 -11 -10 -10 -10 -11 -11 -11 -11 -10 -11 -11 -11 -11 -11 -11 -11 -11 -11 -11 -11 -11 -11 -11 -12 -12 -12 -12 -12 -12 -12 -12 -12 -12 -11 -11 -11 -12 -12 -12 -12 -12 -12
-11 -11 -11 -11 -12 -12 -12 -12 -11 -11 -12 -12 -11 -11 -11 -11 -11 -12 -11 -11 -11 -11 -11 -11 -12 -12 -12 -12 -12 -12 -12 -12 -12 -12 -12 -12 -12 -12 -12 -12 -12 -12 -12
-11 -11 -11 -12 -11 -11 -11 -11 -11 -12 -12 -12 -11 -11 -11 -11 -12 -12 -12 -11 -12 -12 -12 -12 -12 -13 -13 -13 -13 -13 -12 -12 -12 -12 -12 -12 -13 -13 -13 -13 -12 -12 -12
-12 -12 -9 -11 -12 -11 -11 -11 -11 -11 -11 -11 -11 -11 -11 -12 -12 -12 -12 -12 -12 -12 -12 -12 -13 -13 -13 -13 -13 -13 -13 -13 -12 -13 -13 -13 -13 -13 -13 -13 -13 -13 -12
-12 -11 -10 -10 -12 -11 -11 -11 -11 -11 -11 -11 -11 -11 -11 -11 -12 -12 -12 -12 -13 -12 -12 -13 -14 -14 -13 -13 -13 -13 -13 -12 -13 -13 -13 -13 -13 -13 -13 -13 -13 -13 -13
-12 -11 -11 -10 -10 -10 -11 -11 -12 -11 -11 -12 -11 -11 -11 -12 -12 -12 -12 -12 -13 -13 -13 -14 -14 -14 -14 -14 -13 -13 -13 -13 -13 -13 -13 -13 -13 -13 -13 -13 -13 -13 -13
-13 -12 -12 -11 -11 -11 -11 -11 -11 -11 -12 -11 -11 -12 -11 -12 -11 -12 -12 -14 -15 -14 -15 -15 -14 -14 -14 -14 -13 -13 -13 -13 -13 -13 -13 -13 -13 -13 -13 -13 -13 -13 -13
-13 -13 -13 -12 -12 -12 -12 -13 -12 -12 -12 -12 -12 -12 -11 -12 -12 -12 -13 -15 -17 -17 -16 -15 -14 -14 -14 -14 -13 -13 -13 -13 -13 -13 -13 -13 -13 -13 -13 -13 -13 -13 -13
-13 -13 -13 -13 -13 -13 -13 -13 -12 -13 -12 -12 -12 -12 -12 -12 -12 -12 -14 -15 -16 -16 -15 -14 -14 -14 -14 -13 -13 -14 -13 -14 -14 -13 -13 -13 -13 -13 -14 -14 -14 -13 -13
-13 -13 -13 -13 -13 -13 -12 -12 -12 -12 -12 -12 -12 -12 -12 -12 -13 -13 -15 -16 -15 -15 -14 -14 -14 -14 -14 -13 -13 -13 -14 -14 -13 -13 -13 -13 -14 -14 -14 -14 -14 -14 -14
-13 -13 -13 -13 -13 -12 -12 -12 -12 -12 -12 -12 -12 -12 -14 -13 -13 -15 -17 -16 -15 -15 -14 -14 -14 -14 -14 -14 -14 -14 -14 -14 -14 -14 -14 -14 -14 -14 -14 -14 -14 -14 -14
-13 -13 -13 -13 -12 -12 -12 -12 -12 -12 -13 -12 -12 -13 -13 -13 -15 -17 -16 -16 -15 -14 -14 -14 -14 -14 -14 -14 -14 -14 -14 -14 -14 -14 -14 -13 -13 -13 -14 -14 -14 -15 -15
-13 -13 -12 -12 -13 -13 -13 -12 -13 -13 -12 -12 -13 -13 -14 -15 -16 -16 -16 -15 -15 -14 -14 -14 -14 -14 -14 -14 -14 -14 -14 -14 -13 -13 -13 -14 -14 -14 -14 -14 -15 -15 -16
-13 -13 -12 -12 -13 -13 -13 -12 -13 -12 -13 -14 -14 -15 -15 -15 -16 -16 -16 -15 -15 -15 -14 -14 -14 -14 -15 -15 -14 -14 -14 -14 -14 -14 -13 -13 -14 -14 -14 -15 -15 -16 -16
-14 -14 -13 -12 -12 -13 -13 -13 -14 -14 -14 -15 -15 -15 -15 -16 -16 -15 -15 -15 -15 -15 -15 -15 -15 -15 -15 -14 -14 -15 -14 -14 -14 -14 -14 -14 -14 -14 -15 -16 -17 -17 -17
-16 -15 -15 -15 -15 -15 -15 -15 -15 -15 -15 -15 -15 -15 -15 -16 -15 -15 -15 -15 -15 -15 -15 -15 -15 -15 -15 -15 -15 -15 -14 -14 -15 -14 -15 -15 -16 -16 -16 -16 -17 -17 -17
-16 -16 -15 -15 -14 -14 -14 -14 -15 -15 -15 -16 -16 -16 -16 -16 -16 -16 -15 -15 -15 -15 -15 -15 -15 -15 -15 -15 -15 -14 -14 -15 -15 -15 -16 -16 -16 -17 -17 -18 -18 -17 -18
-16 -16 -15 -15 -15 -15 -15 -15 -15 -15 -15 -16 -16 -16 -16 -16 -16 -16 -16 -15 -15 -15 -15 -15 -15 -15 -15 -15 -15 -15 -15 -16 -16 -17 -17 -17 -17 -17 -17 -18 -18 -19 -19
-15 -15 -15 -14 -14 -14 -15 -15 -15 -15 -15 -15 -15 -16 -15 -16 -16 -16 -16 -16 -15 -15 -15 -15 -15 -15 -15 -16 -15 -15 -16 -15 -14 -16 -18 -17 -17 -18 -18 -18 -19 -19 -19
-14 -14 -15 -15 -15 -15 -15 -15 -16 -16 -16 -16 -16 -16 -16 -16 -16 -16 -16 -16 -16 -15 -15 -16 -15 -15 -15 -16 -16 -16 -16 -16 -17 -16 -16 -17 -18 -19 -19 -19 -19 -19 -19
-15 -15 -15 -15 -15 -15 -15 -15 -16 -16 -16 -16 -16 -16 -16 -16 -16 -16 -15 -16 -16 -16 -16 -15 -15 -16 -16 -15 -16 -16 -16 -16 -17 -17 -18 -18 -18 -19 -19 -19 -19 -20 -20
-15 -15 -16 -16 -16 -16 -16 -16 -16 -16 -16 -16 -16 -16 -16 -16 -15 -16 -15 -16 -16 -15 -16 -16 -15 -16 -17 -16 -16 -16 -17 -18 -18 -18 -19 -20 -19 -19 -19 -19 -19 -20 -20
-16 -16 -16 -16 -16 -16 -16 -16 -16 -16 -16 -16 -16 -16 -16 -16 -16 -16 -16 -16 -16 -16 -16 -16 -16 -17 -17 -17 -17 -17 -17 -18 -18 -18 -19 -19 -19 -20 -20 -20 -20 -20 -20

GFSSE_500_temp_066.txt.gz
Temp
-12 -12 -11 -11 -10 -10 -10 -10 -9 -9 -9 -9 -9 -9 -9 -9 -10 -9 -9 -9 -9 -9 -9 -9 -9 -9 -9 -10 -10 -10 -10 -10 -10 -10 -11 -11 -11 -11 -11 -11 -11 -11 -11
-11 -13 -12 -11 -11 -10 -10 -10 -10 -9 -9 -9 -9 -10 -10 -10 -10 -10 -10 -10 -9 -9 -9 -9 -9 -10 -10 -11 -11 -11 -11 -11 -11 -11 -11 -11 -11 -11 -11 -11 -11 -11 -11
-9 -11 -13 -12 -11 -10 -10 -10 -10 -10 -10 -10 -10 -11 -11 -11 -11 -11 -11 -10 -10 -10 -10 -10 -9 -10 -11 -11 -11 -11 -11 -11 -11 -11 -11 -11 -11 -11 -11 -11 -11 -11 -11
-12 -12 -13 -11 -11 -11 -11 -11 -11 -11 -11 -11 -11 -11 -12 -11 -11 -11 -11 -11 -11 -10 -10 -10 -11 -10 -11 -12 -12 -12 -12 -12 -12 -12 -12 -11 -11 -11 -11 -11 -12 -12 -12
-13 -13 -12 -12 -12 -12 -12 -12 -12 -12 -12 -12 -12 -11 -11 -11 -11 -11 -11 -11 -11 -11 -11 -11 -11 -11 -11 -12 -12 -12 -12 -12 -12 -12 -12 -12 -11 -12 -12 -12 -12 -12 -12
-13 -13 -12 -12 -12 -12 -12 -12 -12 -12 -12 -12 -12 -12 -11 -11 -11 -11 -11 -11 -12 -11 -11 -12 -11 -11 -12 -12 -12 -13 -12 -12 -12 -12 -12 -12 -12 -12 -12 -12 -12 -12 -12
-12 -12 -11 -11 -11 -12 -11 -12 -12 -12 -12 -12 -12 -11 -11 -11 -11 -11 -12 -12 -12 -12 -12 -12 -12 -12 -13 -13 -13 -13 -13 -13 -13 -12 -12 -12 -13 -13 -13 -13 -13 -13 -12
-12 -12 -12 -12 -9 -11 -10 -10 -11 -11 -11 -11 -11 -11 -11 -11 -11 -12 -12 -12 -12 -12 -12 -12 -12 -13 -14 -14 -13 -13 -13 -13 -13 -13 -13 -13 -13 -13 -13 -13 -13 -13 -13
-12 -12 -12 -12 -12 -9 -10 -10 -10 -12 -11 -11 -12 -12 -11 -12 -12 -12 -12 -12 -12 -12 -12 -13 -14 -15 -15 -14 -13 -13 -13 -13 -13 -13 -13 -13 -13 -13 -13 -13 -13 -13 -13
-13 -12 -12 -12 -12 -11 -10 -10 -10 -11 -12 -12 -12 -12 -11 -12 -12 -12 -11 -12 -12 -12 -13 -14 -15 -15 -14 -14 -14 -14 -13 -13 -13 -13 -13 -13 -13 -13 -13 -13 -13 -13 -13
-13 -13 -13 -12 -11 -11 -11 -11 -11 -11 -11 -12 -12 -12 -12 -11 -11 -12 -12 -12 -12 -12 -14 -15 -16 -15 -14 -14 -14 -14 -14 -13 -13 -14 -14 -13 -13 -13 -13 -13 -13 -13 -13
-13 -13 -13 -12 -12 -12 -12 -12 -12 -12 -13 -12 -12 -12 -12 -12 -12 -13 -12 -12 -12 -13 -14 -15 -15 -14 -14 -14 -14 -14 -14 -14 -14 -13 -13 -13 -13 -13 -13 -13 -13 -13 -13
-13 -13 -13 -13 -12 -13 -12 -12 -12 -12 -12 -13 -12 -12 -12 -12 -13 -13 -12 -13 -14 -15 -16 -15 -15 -14 -14 -14 -14 -14 -14 -13 -14 -13 -13 -13 -13 -13 -13 -13 -13 -13 -13
-13 -13 -13 -13 -12 -12 -11 -12 -12 -12 -12 -12 -12 -12 -12 -13 -14 -14 -14 -14 -16 -16 -15 -15 -14 -14 -14 -14 -14 -14 -14 -13 -13 -13 -13 -13 -13 -13 -13 -14 -14 -14 -14
-12 -12 -12 -12 -12 -12 -12 -12 -12 -12 -12 -12 -12 -12 -13 -13 -14 -15 -14 -16 -17 -16 -15 -15 -14 -14 -14 -14 -14 -14 -14 -13 -13 -13 -13 -13 -13 -13 -13 -14 -14 -14 -14
-12 -12 -12 -12 -12 -12 -12 -12 -13 -12 -13 -13 -12 -13 -13 -14 -14 -14 -15 -17 -16 -16 -15 -15 -15 -15 -14 -14 -14 -14 -14 -14 -14 -14 -14 -13 -14 -14 -14 -14 -14 -14 -14
-12 -12 -13 -13 -13 -13 -13 -12 -12 -13 -13 -13 -13 -14 -15 -15 -15 -16 -16 -16 -16 -15 -15 -15 -15 -15 -14 -14 -14 -14 -14 -14 -14 -13 -14 -14 -14 -14 -15 -15 -14 -15 -15
-13 -13 -13 -13 -13 -13 -12 -13 -13 -13 -13 -13 -14 -15 -15 -16 -16 -16 -15 -15 -15 -15 -15 -15 -15 -14 -14 -14 -14 -15 -14 -14 -14 -14 -13 -13 -14 -14 -15 -15 -15 -15 -16
-14 -13 -13 -13 -13 -13 -13 -13 -14 -14 -15 -14 -14 -15 -16 -16 -15 -15 -15 -15 -15 -15 -15 -15 -15 -15 -15 -14 -14 -14 -14 -14 -14 -14 -15 -15 -14 -14 -14 -15 -16 -16 -16
-15 -15 -15 -15 -14 -15 -15 -15 -14 -14 -14 -14 -15 -15 -15 -15 -15 -15 -15 -15 -15 -15 -15 -15 -15 -15 -15 -15 -14 -15 -14 -15 -15 -15 -15 -15 -15 -16 -16 -16 -16 -16 -16
-15 -15 -15 -15 -15 -15 -15 -14 -14 -14 -15 -15 -15 -15 -15 -15 -15 -15 -15 -15 -15 -15 -15 -15 -15 -14 -15 -15 -15 -15 -15 -15 -15 -16 -15 -16 -15 -16 -16 -17 -17 -18 -18
-15 -15 -15 -15 -15 -15 -15 -15 -15 -15 -15 -15 -15 -15 -15 -15 -15 -15 -15 -16 -15 -15 -15 -15 -14 -15 -15 -15 -16 -15 -15 -15 -15 -15 -16 -16 -16 -17 -17 -17 -17 -18 -19
-14 -14 -15 -15 -15 -15 -15 -15 -15 -15 -15 -15 -15 -15 -15 -16 -16 -16 -16 -16 -16 -15 -15 -15 -15 -15 -15 -15 -16 -16 -15 -16 -15 -15 -16 -16 -17 -17 -17 -18 -18 -18 -19
-14 -15 -14 -15 -15 -15 -15 -15 -16 -15 -15 -15 -15 -15 -16 -16 -16 -16 -16 -16 -16 -16 -16 -16 -16 -16 -16 -15 -16 -17 -16 -16 -16 -17 -18 -17 -17 -18 -18 -19 -19 -19 -19
-15 -15 -15 -15 -15 -15 -15 -15 -15 -15 -15 -15 -15 -15 -15 -15 -16 -16 -16 -16 -16 -15 -16 -16 -16 -16 -16 -16 -15 -16 -16 -16 -17 -17 -18 -19 -18 -19 -18 -18 -18 -18 -20
-16 -16 -15 -15 -15 -15 -16 -16 -15 -15 -15 -15 -15 -15 -16 -15 -16 -16 -16 -16 -16 -15 -16 -16 -16 -16 -16 -16 -16 -16 -17 -17 -17 -18 -18 -18 -19 -19 -19 -19 -20 -20 -20

GFSSE_500_temp_069.txt.gz
Temp
-12 -12 -11 -11 -11 -11 -11 -11 -11 -10 -10 -10 -9 -9 -9 -9 -9 -9 -9 -9 -9 -8 -8 -8 -8 -8 -8 -9 -9 -9 -9 -10 -10 -10 -10 -11 -11 -11 -11 -11 -11 -11 -11
-12 -11 -11 -11 -12 -12 -11 -12 -11 -11 -10 -10 -10 -9 -9 -9 -9 -9 -9 -10 -9 -9 -9 -9 -9 -9 -9 -9 -9 -10 -10 -11 -10 -11 -11 -11 -11 -11 -11 -11 -11 -11 -11
-11 -11 -11 -11 -12 -12 -12 -12 -11 -11 -11 -11 -10 -10 -10 -10 -10 -10 -10 -10 -10 -10 -10 -9 -10 -10 -10 -10 -10 -10 -11 -11 -11 -11 -11 -11 -11 -11 -11 -11 -11 -11 -11
-13 -13 -12 -11 -10 -12 -12 -11 -11 -11 -11 -11 -11 -11 -11 -11 -11 -11 -10 -11 -10 -10 -10 -10 -10 -10 -10 -10 -10 -11 -11 -11 -11 -11 -12 -11 -11 -11 -11 -11 -11 -12 -12
-13 -13 -13 -12 -12 -12 -12 -12 -12 -12 -12 -12 -12 -12 -12 -11 -11 -11 -11 -10 -10 -10 -10 -10 -11 -11 -11 -11 -11 -11 -12 -12 -12 -12 -12 -12 -12 -12 -12 -12 -12 -12 -12
-12 -12 -12 -12 -12 -12 -12 -12 -12 -13 -12 -12 -12 -12 -11 -11 -11 -11 -11 -10 -10 -11 -11 -11 -11 -12 -11 -11 -11 -12 -12 -12 -12 -12 -12 -12 -12 -12 -12 -12 -12 -12 -12
-13 -12 -12 -12 -10 -11 -12 -12 -12 -12 -13 -13 -12 -11 -12 -12 -11 -11 -11 -10 -11 -11 -11 -12 -12 -12 -12 -12 -12 -13 -13 -13 -13 -12 -12 -13 -12 -13 -13 -12 -12 -12 -12
-14 -13 -12 -12 -11 -10 -10 -12 -12 -12 -13 -13 -12 -12 -12 -12 -11 -11 -11 -11 -11 -11 -12 -12 -12 -11 -12 -12 -12 -13 -13 -13 -13 -13 -13 -13 -13 -13 -13 -13 -13 -13 -13
-14 -13 -13 -12 -11 -11 -9 -10 -11 -11 -12 -12 -12 -12 -12 -11 -11 -11 -11 -11 -11 -12 -12 -12 -12 -12 -12 -13 -13 -13 -13 -13 -13 -13 -13 -13 -13 -13 -13 -13 -13 -13 -13
-14 -14 -12 -12 -12 -11 -11 -11 -10 -10 -11 -12 -11 -12 -12 -11 -12 -11 -11 -11 -11 -12 -12 -12 -12 -13 -13 -14 -14 -14 -14 -14 -14 -13 -13 -13 -13 -13 -13 -13 -13 -13 -13
-14 -13 -12 -12 -12 -12 -12 -12 -11 -11 -11 -11 -12 -12 -12 -12 -12 -12 -12 -12 -12 -11 -12 -12 -12 -13 -14 -14 -14 -14 -14 -14 -14 -13 -13 -13 -13 -13 -13 -13 -13 -13 -13
-13 -13 -12 -13 -12 -12 -12 -11 -11 -11 -12 -11 -11 -12 -12 -12 -13 -13 -12 -12 -11 -12 -12 -12 -14 -15 -15 -14 -14 -14 -14 -14 -14 -13 -13 -13 -13 -13 -13 -13 -13 -13 -13
-13 -13 -13 -13 -13 -12 -12 -12 -11 -11 -12 -12 -13 -13 -12 -12 -12 -12 -13 -12 -12 -12 -13 -14 -15 -15 -15 -15 -14 -14 -14 -14 -14 -14 -13 -13 -13 -13 -13 -13 -13 -13 -13
-13 -12 -13 -12 -13 -12 -13 -13 -13 -12 -12 -12 -12 -13 -12 -12 -12 -12 -13 -14 -13 -14 -14 -16 -15 -15 -15 -14 -14 -14 -14 -14 -14 -14 -13 -13 -13 -13 -13 -13 -13 -13 -13
-12 -12 -12 -12 -13 -13 -12 -12 -13 -12 -11 -12 -12 -12 -12 -12 -12 -13 -14 -15 -14 -15 -16 -16 -15 -15 -15 -15 -15 -14 -14 -14 -14 -13 -13 -13 -13 -13 -13 -13 -13 -13 -13
-12 -12 -12 -12 -12 -12 -12 -12 -11 -12 -12 -12 -12 -12 -13 -13 -13 -13 -14 -15 -15 -16 -16 -16 -16 -15 -15 -15 -14 -14 -14 -14 -13 -13 -13 -13 -13 -13 -13 -13 -13 -14 -14
-12 -11 -11 -11 -11 -12 -12 -12 -12 -12 -12 -12 -12 -13 -13 -13 -14 -15 -16 -16 -16 -16 -16 -16 -16 -15 -15 -15 -14 -14 -14 -13 -14 -14 -13 -14 -14 -14 -14 -14 -14 -14 -14
-12 -12 -11 -11 -11 -12 -12 -12 -12 -12 -12 -13 -13 -13 -14 -14 -15 -16 -15 -16 -16 -16 -16 -16 -15 -15 -15 -15 -14 -14 -14 -14 -13 -14 -14 -14 -14 -14 -15 -15 -15 -15 -15
-12 -11 -12 -12 -12 -12 -12 -12 -12 -12 -13 -13 -13 -14 -15 -15 -15 -15 -16 -16 -16 -16 -15 -15 -15 -15 -15 -14 -14 -15 -15 -14 -14 -14 -14 -14 -15 -15 -15 -15 -15 -15 -15
-12 -12 -12 -12 -12 -12 -12 -12 -13 -14 -14 -14 -15 -15 -15 -15 -15 -16 -16 -16 -16 -16 -15 -15 -15 -15 -15 -14 -15 -15 -15 -15 -16 -15 -15 -14 -14 -14 -14 -15 -15 -16 -16
-14 -14 -14 -13 -14 -14 -14 -14 -14 -14 -14 -14 -14 -14 -15 -15 -15 -16 -16 -15 -15 -16 -15 -15 -15 -15 -15 -15 -14 -14 -15 -15 -16 -15 -16 -16 -17 -16 -16 -16 -16 -16 -17
-14 -14 -14 -14 -14 -14 -14 -14 -14 -14 -14 -15 -15 -15 -15 -15 -16 -16 -16 -16 -16 -15 -16 -15 -15 -15 -15 -15 -15 -15 -14 -15 -15 -15 -15 -15 -16 -16 -16 -16 -16 -17 -18
-14 -14 -14 -14 -14 -14 -14 -14 -14 -14 -14 -15 -15 -15 -15 -16 -16 -15 -15 -16 -16 -16 -16 -16 -16 -15 -15 -15 -16 -15 -15 -16 -16 -16 -16 -15 -15 -16 -16 -16 -17 -17 -18
-15 -15 -14 -14 -15 -15 -15 -15 -15 -15 -15 -15 -15 -15 -16 -16 -16 -16 -16 -16 -16 -16 -16 -16 -16 -16 -16 -16 -16 -16 -16 -16 -16 -16 -16 -16 -15 -16 -16 -17 -18 -18 -18
-15 -15 -15 -15 -15 -15 -15 -15 -15 -15 -14 -14 -15 -15 -16 -15 -15 -16 -16 -16 -16 -16 -16 -16 -16 -16 -16 -15 -16 -16 -16 -16 -16 -17 -17 -17 -17 -17 -17 -17 -18 -18 -18
-15 -15 -15 -15 -16 -16 -16 -16 -15 -15 -15 -15 -15 -15 -15 -15 -15 -16 -16 -16 -16 -16 -16 -17 -16 -16 -16 -16 -16 -16 -16 -17 -16 -17 -17 -17 -17 -18 -18 -18 -18 -18 -18

GFSSE_500_temp_072.txt.gz
Temp
-13 -13 -13 -13 -12 -11 -12 -11 -11 -11 -11 -11 -12 -11 -10 -10 -9 -9 -9 -8 -8 -8 -9 -8 -8 -8 -8 -8 -9 -9 -8 -9 -9 -9 -10 -10 -10 -10 -10 -10 -10 -10 -10
-14 -14 -13 -12 -12 -12 -12 -12 -11 -11 -11 -12 -11 -11 -11 -10 -10 -10 -9 -9 -9 -9 -9 -9 -9 -9 -9 -9 -9 -9 -9 -10 -10 -10 -11 -10 -11 -11 -11 -11 -11 -11 -11
-14 -14 -13 -12 -12 -12 -12 -12 -12 -11 -12 -12 -12 -12 -12 -11 -11 -11 -10 -10 -10 -10 -10 -9 -9 -9 -9 -10 -10 -9 -10 -10 -11 -11 -11 -11 -11 -11 -11 -11 -11 -11 -11
-14 -13 -12 -13 -13 -12 -12 -12 -12 -12 -12 -12 -12 -12 -12 -12 -12 -12 -11 -11 -10 -10 -10 -10 -9 -10 -10 -11 -10 -10 -11 -11 -11 -11 -11 -11 -11 -11 -11 -12 -12 -12 -12
-13 -13 -12 -12 -13 -12 -13 -11 -12 -12 -12 -12 -12 -12 -12 -12 -12 -12 -11 -11 -10 -10 -10 -10 -10 -10 -10 -11 -11 -11 -11 -12 -12 -12 -12 -12 -12 -12 -12 -12 -12 -12 -12
-14 -12 -13 -13 -13 -13 -13 -13 -10 -12 -12 -12 -11 -11 -12 -12 -12 -11 -11 -11 -11 -10 -10 -10 -10 -10 -11 -11 -11 -11 -12 -12 -12 -12 -12 -12 -12 -12 -12 -12 -12 -12 -12
-14 -13 -12 -13 -13 -12 -12 -11 -11 -11 -12 -12 -11 -11 -12 -12 -12 -12 -12 -12 -11 -11 -10 -10 -10 -11 -11 -12 -11 -12 -12 -12 -12 -12 -12 -12 -12 -12 -12 -12 -12 -12 -12
-14 -14 -13 -13 -12 -11 -12 -11 -10 -11 -12 -11 -11 -12 -12 -13 -12 -12 -12 -11 -11 -11 -11 -11 -10 -10 -11 -12 -12 -12 -13 -13 -13 -13 -13 -13 -13 -12 -12 -13 -13 -12 -12
-14 -15 -14 -13 -12 -12 -11 -10 -10 -11 -11 -12 -12 -12 -12 -12 -12 -12 -12 -12 -12 -12 -11 -11 -11 -12 -11 -13 -14 -13 -14 -13 -13 -13 -13 -13 -13 -13 -13 -13 -13 -13 -13
-15 -14 -14 -13 -13 -12 -12 -10 -11 -10 -11 -12 -11 -12 -12 -12 -12 -13 -12 -12 -12 -12 -12 -11 -11 -12 -12 -13 -15 -14 -14 -14 -13 -13 -13 -13 -13 -13 -13 -13 -13 -13 -13
-15 -14 -14 -13 -13 -13 -12 -12 -11 -11 -11 -11 -12 -11 -13 -12 -12 -12 -12 -12 -12 -12 -12 -12 -12 -12 -11 -13 -15 -15 -14 -14 -14 -13 -14 -14 -13 -13 -13 -13 -13 -13 -13
-14 -14 -13 -13 -13 -13 -12 -11 -11 -11 -11 -11 -12 -12 -12 -12 -12 -12 -12 -12 -12 -12 -12 -12 -12 -12 -12 -13 -14 -14 -14 -14 -14 -14 -14 -14 -13 -13 -13 -13 -13 -13 -13
-13 -14 -14 -13 -13 -13 -12 -12 -11 -11 -11 -11 -11 -11 -12 -12 -12 -13 -13 -13 -13 -13 -12 -12 -13 -13 -13 -14 -14 -14 -14 -14 -14 -14 -14 -14 -13 -13 -13 -13 -13 -13 -13
-13 -13 -13 -13 -13 -12 -12 -12 -12 -12 -12 -12 -12 -12 -12 -13 -13 -12 -12 -13 -13 -13 -14 -13 -14 -14 -14 -15 -15 -14 -14 -14 -14 -14 -14 -14 -13 -13 -13 -13 -13 -13 -13
-13 -13 -13 -13 -12 -12 -13 -13 -12 -12 -12 -12 -13 -12 -13 -13 -12 -12 -12 -13 -14 -15 -14 -14 -15 -15 -15 -15 -15 -15 -14 -14 -14 -14 -14 -14 -13 -13 -13 -13 -13 -14 -14
-12 -13 -13 -12 -12 -12 -12 -12 -12 -12 -13 -13 -13 -13 -13 -12 -13 -13 -13 -13 -15 -15 -15 -15 -16 -16 -15 -15 -15 -15 -14 -14 -14 -14 -14 -13 -13 -13 -14 -14 -14 -14 -15
-12 -12 -13 -12 -12 -12 -12 -12 -13 -13 -13 -13 -13 -13 -13 -13 -13 -13 -13 -14 -15 -15 -16 -16 -16 -16 -15 -15 -15 -15 -15 -14 -14 -14 -14 -14 -14 -14 -14 -14 -14 -15 -15
-13 -13 -13 -13 -12 -13 -12 -13 -12 -12 -12 -13 -13 -13 -13 -13 -13 -14 -14 -16 -16 -16 -16 -16 -16 -15 -15 -15 -15 -15 -14 -14 -14 -14 -14 -14 -15 -15 -14 -15 -15 -15 -15
-12 -13 -13 -12 -12 -13 -12 -12 -13 -13 -13 -13 -13 -13 -13 -14 -14 -16 -16 -16 -16 -16 -16 -16 -15 -15 -15 -15 -15 -14 -14 -14 -15 -15 -15 -15 -15 -15 -15 -15 -15 -15 -15
-13 -12 -12 -12 -12 -12 -12 -12 -12 -12 -12 -13 -13 -14 -14 -15 -15 -16 -16 -15 -16 -16 -16 -15 -15 -15 -15 -15 -15 -15 -14 -14 -14 -15 -15 -15 -15 -16 -16 -16 -16 -16 -16
-15 -14 -12 -12 -14 -13 -13 -12 -13 -13 -14 -14 -14 -14 -15 -15 -15 -15 -15 -15 -16 -16 -16 -15 -15 -15 -15 -15 -15 -15 -15 -16 -16 -16 -15 -15 -15 -16 -16 -16 -16 -16 -16
-15 -15 -14 -14 -14 -14 -14 -14 -14 -14 -14 -14 -14 -15 -15 -15 -15 -15 -15 -16 -16 -16 -16 -16 -16 -16 -15 -15 -15 -15 -15 -15 -16 -16 -16 -16 -16 -16 -16 -16 -16 -16 -16
-14 -14 -14 -14 -14 -14 -14 -14 -14 -14 -14 -14 -14 -15 -14 -15 -15 -15 -16 -16 -16 -16 -16 -16 -16 -16 -15 -15 -15 -15 -15 -15 -16 -16 -16 -16 -16 -16 -16 -16 -16 -16 -16
-14 -14 -14 -14 -13 -13 -13 -13 -13 -14 -14 -14 -14 -14 -15 -15 -15 -15 -16 -16 -16 -16 -16 -16 -16 -15 -16 -15 -15 -15 -16 -16 -16 -16 -16 -16 -16 -16 -16 -16 -16 -16 -16
-14 -14 -14 -14 -14 -14 -14 -14 -13 -13 -14 -14 -14 -15 -15 -15 -16 -16 -16 -16 -16 -16 -16 -16 -16 -15 -16 -16 -15 -16 -16 -16 -16 -16 -16 -17 -17 -16 -17 -17 -16 -16 -16
-14 -14 -14 -13 -13 -13 -13 -13 -13 -14 -14 -15 -15 -15 -16 -15 -15 -16 -16 -16 -16 -16 -16 -16 -16 -16 -16 -16 -16 -16 -16 -16 -16 -16 -16 -17 -17 -17 -17 -17 -17 -17 -17

GFSSE_500_temp_075.txt.gz
Temp
-14 -14 -14 -13 -13 -13 -12 -12 -12 -12 -11 -11 -10 -10 -10 -10 -10 -10 -9 -9 -9 -9 -9 -9 -9 -9 -9 -9 -9 -9 -9 -9 -9 -9 -9 -9 -10 -10 -10 -10 -10 -10 -10
-14 -14 -14 -13 -13 -13 -13 -13 -13 -12 -11 -11 -10 -11 -11 -11 -11 -11 -10 -10 -10 -10 -10 -10 -10 -10 -10 -9 -9 -10 -9 -9 -9 -10 -10 -10 -11 -11 -11 -11 -11 -11 -11
-14 -14 -14 -13 -13 -13 -13 -12 -12 -12 -12 -12 -11 -11 -11 -11 -11 -11 -11 -11 -11 -10 -10 -10 -11 -10 -10 -9 -10 -10 -10 -10 -10 -10 -10 -11 -11 -11 -11 -11 -11 -11 -11
-15 -14 -14 -14 -13 -13 -12 -12 -11 -12 -12 -11 -12 -12 -12 -11 -12 -12 -12 -11 -11 -11 -10 -10 -10 -10 -10 -10 -10 -10 -10 -10 -10 -11 -11 -11 -11 -11 -11 -11 -12 -12 -11
-15 -15 -14 -13 -10 -10 -11 -11 -11 -12 -12 -12 -13 -12 -12 -11 -11 -12 -12 -11 -11 -11 -11 -11 -11 -11 -10 -11 -10 -11 -10 -11 -11 -11 -12 -12 -12 -12 -12 -12 -12 -12 -12
-14 -15 -14 -13 -13 -12 -12 -12 -13 -12 -12 -12 -13 -13 -12 -12 -12 -12 -12 -12 -11 -11 -11 -11 -10 -11 -11 -11 -11 -11 -11 -11 -12 -12 -12 -12 -12 -12 -12 -12 -12 -12 -12
-14 -14 -14 -13 -13 -13 -13 -12 -12 -12 -12 -11 -11 -13 -13 -11 -12 -12 -12 -12 -11 -11 -11 -11 -11 -11 -11 -11 -11 -12 -12 -12 -12 -12 -12 -12 -12 -12 -12 -12 -12 -12 -12
-14 -14 -13 -13 -13 -13 -13 -12 -13 -12 -12 -11 -12 -13 -13 -12 -12 -12 -12 -12 -11 -11 -11 -11 -11 -11 -11 -11 -12 -12 -12 -12 -13 -13 -13 -12 -12 -13 -13 -12 -12 -12 -12
-13 -13 -13 -13 -13 -12 -12 -12 -12 -11 -10 -11 -12 -13 -12 -12 -12 -12 -12 -12 -12 -11 -11 -11 -12 -12 -12 -11 -13 -12 -13 -13 -13 -13 -13 -13 -13 -13 -13 -13 -13 -13 -13
-14 -14 -13 -14 -13 -13 -12 -11 -11 -11 -11 -11 -11 -12 -12 -13 -12 -12 -12 -12 -12 -11 -12 -12 -12 -12 -12 -11 -12 -12 -13 -14 -13 -13 -13 -13 -13 -13 -13 -13 -13 -13 -13
-14 -14 -13 -14 -12 -13 -11 -11 -12 -11 -11 -11 -11 -12 -12 -12 -11 -12 -13 -12 -11 -11 -12 -12 -12 -12 -12 -12 -12 -13 -13 -14 -14 -14 -13 -13 -13 -13 -13 -13 -13 -13 -13
-15 -14 -13 -13 -13 -12 -12 -12 -12 -12 -11 -12 -12 -11 -12 -12 -12 -12 -12 -12 -12 -12 -12 -12 -12 -13 -12 -12 -13 -13 -14 -14 -14 -14 -14 -14 -14 -14 -13 -13 -13 -13 -13
-14 -14 -13 -13 -12 -12 -12 -12 -11 -11 -11 -12 -11 -11 -11 -12 -13 -13 -13 -13 -12 -12 -13 -12 -12 -12 -13 -13 -13 -14 -14 -14 -14 -14 -14 -14 -14 -14 -13 -13 -13 -13 -13
-13 -14 -14 -14 -13 -13 -12 -12 -12 -11 -11 -11 -11 -12 -12 -12 -12 -12 -12 -12 -13 -13 -13 -13 -13 -14 -14 -13 -15 -15 -14 -14 -14 -14 -14 -14 -14 -14 -13 -13 -13 -13 -13
-12 -13 -13 -13 -13 -13 -13 -12 -12 -12 -11 -11 -12 -12 -12 -12 -12 -12 -12 -13 -13 -13 -13 -13 -13 -14 -15 -15 -15 -15 -15 -15 -15 -15 -15 -14 -14 -14 -14 -14 -13 -13 -13
-12 -12 -13 -13 -13 -13 -13 -13 -12 -12 -12 -12 -12 -13 -12 -12 -13 -13 -13 -13 -13 -13 -13 -14 -15 -15 -16 -16 -15 -15 -15 -15 -15 -15 -14 -14 -14 -14 -14 -14 -14 -13 -13
-12 -12 -12 -12 -13 -12 -13 -12 -12 -12 -13 -13 -13 -13 -13 -13 -13 -13 -13 -13 -13 -13 -15 -15 -15 -16 -16 -16 -17 -16 -16 -15 -15 -15 -15 -14 -14 -14 -14 -14 -14 -15 -15
-12 -12 -12 -12 -12 -12 -12 -12 -13 -13 -13 -13 -13 -14 -14 -13 -13 -14 -14 -14 -14 -14 -15 -16 -16 -17 -16 -17 -16 -16 -16 -15 -15 -15 -15 -15 -15 -15 -15 -15 -15 -15 -15
-12 -11 -12 -12 -12 -13 -12 -13 -13 -13 -13 -13 -13 -13 -13 -14 -14 -14 -14 -14 -14 -16 -16 -16 -16 -16 -16 -16 -16 -16 -16 -15 -15 -15 -15 -15 -15 -15 -15 -15 -15 -15 -15
-12 -12 -11 -12 -13 -14 -13 -13 -13 -14 -13 -13 -13 -14 -13 -13 -13 -14 -14 -15 -16 -16 -16 -16 -16 -16 -16 -16 -16 -16 -16 -16 -16 -15 -15 -15 -15 -15 -15 -15 -15 -16 -16
-14 -12 -12 -12 -13 -13 -14 -13 -13 -14 -13 -13 -13 -13 -13 -14 -15 -14 -15 -16 -16 -16 -16 -16 -16 -17 -16 -16 -16 -16 -15 -15 -15 -15 -15 -15 -15 -15 -16 -16 -16 -16 -16
-15 -15 -14 -14 -14 -13 -13 -13 -13 -13 -14 -14 -14 -14 -14 -14 -15 -15 -16 -16 -17 -17 -16 -16 -16 -16 -16 -16 -16 -16 -16 -16 -15 -15 -15 -16 -15 -15 -16 -16 -16 -16 -16
-15 -15 -15 -14 -14 -14 -14 -14 -14 -14 -14 -14 -14 -14 -14 -14 -15 -15 -15 -15 -16 -16 -17 -17 -16 -16 -16 -16 -16 -16 -15 -15 -15 -15 -15 -15 -15 -15 -16 -16 -16 -17 -17
-14 -15 -15 -15 -15 -14 -14 -15 -14 -14 -14 -14 -14 -14 -14 -15 -15 -15 -16 -16 -16 -16 -16 -16 -16 -16 -16 -16 -15 -15 -15 -14 -14 -15 -15 -16 -15 -16 -16 -15 -16 -16 -16
-14 -14 -14 -14 -14 -14 -14 -15 -15 -14 -14 -14 -15 -15 -15 -16 -16 -16 -16 -16 -16 -16 -16 -16 -17 -16 -17 -16 -16 -15 -15 -15 -15 -15 -15 -15 -16 -16 -16 -16 -16 -16 -17
-14 -14 -14 -14 -14 -14 -14 -14 -15 -15 -15 -15 -16 -16 -17 -16 -17 -16 -16 -17 -17 -17 -17 -16 -16 -16 -16 -16 -16 -16 -16 -16 -16 -16 -15 -15 -15 -16 -16 -16 -17 -17 -17

GFSSE_500_temp_078.txt.gz
Temp
-14 -14 -14 -15 -12 -14 -14 -13 -13 -12 -12 -12 -11 -11 -11 -11 -11 -10 -10 -10 -10 -10 -10 -10 -9 -9 -9 -9 -9 -9 -9 -9 -9 -9 -9 -9 -9 -9 -10 -10 -10 -10 -10
-15 -15 -15 -15 -14 -14 -14 -13 -13 -12 -11 -12 -11 -11 -11 -11 -11 -11 -11 -10 -10 -10 -10 -10 -10 -10 -10 -10 -10 -9 -9 -9 -9 -10 -10 -10 -10 -10 -10 -10 -10 -10 -11
-15 -15 -15 -15 -15 -14 -13 -13 -13 -13 -12 -11 -11 -11 -10 -10 -11 -11 -11 -11 -11 -11 -11 -10 -10 -10 -10 -10 -10 -10 -10 -10 -10 -10 -10 -10 -10 -10 -10 -11 -11 -11 -11
-15 -15 -15 -15 -14 -14 -14 -13 -13 -13 -13 -12 -12 -11 -11 -10 -10 -11 -11 -11 -11 -11 -11 -11 -10 -11 -11 -10 -10 -10 -10 -10 -11 -11 -11 -11 -11 -10 -11 -11 -11 -11 -11
-15 -14 -14 -14 -14 -14 -14 -13 -11 -12 -11 -12 -12 -12 -12 -11 -11 -11 -11 -11 -12 -11 -11 -11 -11 -11 -11 -11 -11 -11 -11 -11 -11 -11 -11 -11 -11 -11 -11 -11 -11 -11 -11
-14 -15 -14 -14 -14 -14 -13 -12 -12 -11 -11 -12 -12 -12 -12 -11 -11 -12 -12 -12 -12 -12 -12 -11 -11 -11 -11 -11 -11 -11 -11 -12 -11 -11 -12 -11 -12 -11 -11 -12 -12 -12 -12
-14 -15 -15 -14 -14 -14 -14 -14 -12 -12 -12 -12 -11 -12 -12 -12 -11 -12 -12 -11 -12 -12 -12 -12 -11 -11 -11 -11 -11 -11 -11 -12 -12 -12 -12 -12 -12 -12 -12 -12 -12 -12 -12
-14 -14 -14 -14 -14 -13 -13 -13 -12 -12 -11 -12 -11 -12 -12 -12 -11 -12 -12 -12 -12 -12 -12 -12 -12 -12 -12 -12 -12 -12 -12 -12 -12 -12 -12 -13 -13 -12 -12 -13 -12 -12 -12
-14 -14 -14 -13 -13 -13 -13 -13 -12 -12 -12 -12 -11 -11 -12 -12 -11 -12 -12 -12 -12 -12 -12 -12 -12 -12 -12 -12 -12 -12 -12 -12 -13 -13 -13 -13 -13 -13 -13 -13 -13 -13 -13
-14 -14 -14 -13 -13 -13 -12 -13 -12 -12 -12 -12 -11 -11 -12 -12 -11 -11 -12 -12 -13 -13 -12 -13 -13 -12 -13 -12 -13 -12 -12 -13 -13 -13 -14 -13 -13 -13 -13 -13 -13 -13 -13
-14 -15 -14 -13 -13 -13 -13 -12 -12 -12 -11 -11 -11 -11 -12 -12 -11 -12 -12 -12 -12 -13 -13 -12 -13 -13 -13 -13 -13 -13 -12 -13 -13 -14 -14 -14 -13 -13 -13 -13 -13 -13 -13
-14 -14 -14 -14 -14 -13 -12 -13 -12 -12 -12 -11 -11 -12 -11 -11 -12 -13 -12 -13 -13 -13 -13 -12 -13 -13 -13 -13 -13 -13 -13 -13 -14 -14 -14 -14 -14 -14 -14 -14 -13 -13 -13
-14 -14 -14 -14 -14 -13 -12 -12 -12 -12 -11 -11 -12 -11 -11 -11 -12 -13 -12 -13 -12 -13 -13 -13 -13 -13 -13 -13 -12 -13 -13 -14 -15 -15 -14 -14 -14 -14 -14 -14 -14 -13 -13
-13 -13 -13 -13 -14 -13 -13 -12 -11 -11 -12 -12 -11 -12 -11 -12 -12 -12 -12 -12 -13 -12 -13 -13 -13 -13 -14 -14 -13 -14 -14 -15 -15 -15 -15 -15 -15 -15 -15 -14 -14 -13 -13
-12 -13 -13 -13 -13 -13 -13 -13 -12 -12 -12 -12 -12 -12 -11 -11 -12 -12 -12 -12 -13 -12 -13 -13 -14 -14 -14 -14 -14 -15 -16 -15 -15 -15 -15 -15 -15 -15 -14 -14 -14 -14 -14
-12 -12 -13 -13 -13 -13 -13 -13 -12 -12 -12 -12 -12 -12 -12 -12 -12 -12 -12 -12 -12 -13 -13 -14 -14 -15 -15 -16 -16 -17 -16 -15 -16 -16 -15 -15 -15 -15 -14 -14 -14 -14 -14
-12 -12 -13 -13 -13 -13 -13 -13 -13 -12 -12 -12 -12 -12 -13 -13 -13 -13 -13 -13 -13 -13 -13 -14 -14 -15 -15 -17 -17 -17 -17 -17 -17 -16 -16 -15 -15 -15 -15 -15 -15 -15 -14
-13 -13 -13 -12 -12 -13 -13 -14 -13 -13 -13 -12 -13 -13 -13 -13 -13 -13 -13 -13 -13 -14 -14 -14 -15 -16 -17 -17 -17 -17 -17 -17 -17 -17 -16 -15 -15 -15 -15 -15 -15 -15 -15
-14 -13 -13 -13 -12 -13 -13 -13 -13 -13 -13 -13 -13 -13 -13 -13 -13 -13 -13 -13 -13 -14 -14 -15 -16 -17 -17 -17 -17 -17 -17 -17 -17 -16 -16 -15 -15 -15 -15 -15 -15 -15 -15
-14 -13 -13 -13 -12 -12 -13 -13 -13 -13 -13 -13 -13 -13 -13 -14 -14 -14 -13 -14 -14 -15 -16 -16 -16 -17 -17 -17 -17 -17 -17 -16 -16 -16 -16 -16 -15 -15 -15 -15 -15 -15 -15
-15 -13 -13 -13 -13 -13 -13 -13 -13 -13 -13 -14 -13 -14 -14 -14 -14 -14 -14 -15 -15 -16 -16 -17 -17 -17 -17 -17 -16 -16 -16 -16 -16 -16 -16 -16 -15 -15 -15 -15 -15 -16 -16
-15 -14 -13 -13 -13 -13 -13 -14 -14 -13 -14 -14 -14 -14 -14 -14 -14 -15 -15 -16 -17 -16 -16 -16 -16 -16 -16 -16 -16 -16 -16 -16 -16 -16 -15 -15 -15 -15 -15 -15 -15 -16 -16
-15 -14 -15 -14 -13 -13 -13 -14 -14 -13 -13 -13 -13 -14 -14 -14 -15 -15 -16 -16 -16 -16 -17 -16 -16 -16 -16 -16 -16 -16 -16 -16 -16 -16 -15 -15 -15 -15 -16 -16 -16 -16 -16
-14 -14 -14 -14 -14 -13 -13 -14 -14 -14 -14 -14 -14 -14 -15 -15 -15 -15 -16 -16 -16 -16 -16 -16 -16 -16 -16 -16 -16 -16 -16 -16 -15 -15 -15 -15 -15 -16 -16 -16 -16 -16 -17
-15 -14 -14 -14 -14 -14 -14 -14 -14 -14 -15 -14 -14 -15 -15 -15 -16 -16 -16 -16 -16 -16 -16 -16 -16 -16 -16 -16 -16 -16 -16 -16 -15 -15 -15 -16 -16 -16 -16 -16 -16 -16 -17
-15 -15 -15 -15 -15 -15 -14 -15 -15 -15 -15 -15 -15 -15 -15 -15 -16 -16 -16 -16 -16 -16 -16 -16 -16 -16 -16 -16 -16 -16 -16 -16 -16 -16 -16 -16 -16 -16 -16 -16 -16 -17 -17

GFSSE_500_temp_081.txt.gz
Temp
-11 -12 -13 -13 -12 -13 -13 -13 -12 -12 -12 -12 -10 -12 -11 -11 -11 -12 -10 -10 -10 -9 -9 -9 -10 -10 -10 -10 -9 -9 -9 -9 -9 -9 -9 -9 -9 -9 -9 -9 -9 -9 -10
-13 -14 -15 -15 -14 -14 -14 -13 -14 -14 -13 -13 -12 -12 -12 -11 -12 -12 -10 -10 -10 -10 -10 -10 -10 -10 -10 -10 -10 -10 -9 -10 -9 -10 -10 -10 -10 -10 -10 -10 -10 -10 -10
-14 -14 -15 -16 -15 -15 -15 -14 -13 -13 -13 -13 -12 -12 -12 -11 -11 -11 -11 -10 -10 -10 -10 -10 -10 -10 -10 -10 -10 -10 -10 -10 -10 -10 -10 -10 -10 -10 -10 -10 -10 -10 -10
-15 -15 -15 -15 -15 -15 -15 -15 -14 -13 -13 -13 -12 -12 -12 -11 -11 -11 -11 -11 -11 -11 -11 -11 -11 -11 -11 -11 -11 -11 -10 -10 -11 -11 -11 -11 -10 -10 -10 -10 -10 -11 -11
-14 -14 -15 -15 -15 -15 -14 -14 -14 -14 -12 -13 -12 -12 -12 -11 -12 -11 -11 -11 -11 -11 -11 -11 -11 -11 -11 -11 -11 -11 -11 -11 -11 -11 -11 -11 -11 -11 -11 -11 -11 -11 -11
-14 -13 -14 -15 -15 -15 -14 -14 -13 -14 -14 -12 -13 -11 -11 -11 -11 -12 -11 -12 -11 -11 -11 -11 -11 -11 -11 -11 -11 -11 -12 -12 -12 -12 -11 -11 -11 -11 -12 -11 -12 -12 -12
-13 -13 -14 -14 -14 -15 -15 -15 -14 -14 -12 -11 -12 -11 -11 -11 -11 -12 -12 -12 -12 -12 -11 -11 -11 -12 -12 -12 -12 -12 -12 -12 -12 -12 -12 -12 -12 -12 -12 -12 -12 -12 -12
-14 -14 -14 -14 -14 -15 -14 -14 -14 -14 -13 -12 -12 -12 -12 -12 -12 -12 -12 -12 -12 -12 -12 -12 -12 -11 -12 -12 -12 -12 -12 -12 -12 -13 -13 -12 -12 -13 -12 -12 -12 -12 -13
-14 -14 -14 -14 -14 -14 -14 -13 -13 -13 -12 -12 -12 -12 -12 -12 -12 -12 -12 -12 -12 -12 -12 -12 -12 -12 -12 -12 -12 -12 -12 -13 -13 -14 -13 -13 -13 -13 -13 -13 -13 -13 -13
-14 -14 -15 -14 -13 -13 -13 -13 -13 -12 -11 -12 -11 -11 -12 -12 -12 -12 -12 -12 -12 -13 -13 -12 -12 -12 -12 -12 -13 -13 -13 -13 -13 -14 -13 -13 -13 -13 -13 -13 -13 -13 -13
-14 -14 -14 -14 -13 -13 -13 -13 -12 -12 -12 -12 -12 -11 -12 -12 -12 -12 -12 -12 -12 -12 -12 -12 -12 -12 -13 -12 -13 -13 -13 -13 -13 -13 -13 -14 -14 -14 -13 -13 -14 -13 -13
-14 -14 -14 -14 -14 -13 -13 -13 -13 -12 -12 -12 -11 -11 -12 -12 -12 -12 -12 -12 -12 -12 -12 -12 -12 -12 -13 -13 -13 -13 -13 -13 -13 -13 -14 -14 -15 -14 -14 -14 -14 -14 -14
-13 -13 -14 -14 -14 -13 -13 -13 -13 -13 -12 -12 -11 -11 -12 -11 -12 -12 -12 -12 -12 -12 -13 -13 -12 -13 -13 -13 -13 -13 -13 -13 -13 -14 -15 -15 -15 -14 -14 -15 -14 -14 -14
-13 -13 -13 -14 -14 -14 -13 -13 -13 -13 -12 -12 -12 -12 -12 -12 -12 -12 -12 -12 -12 -12 -12 -12 -13 -13 -13 -13 -13 -13 -13 -13 -13 -14 -16 -15 -15 -15 -15 -14 -14 -14 -14
-13 -12 -12 -13 -14 -14 -14 -14 -13 -12 -12 -12 -12 -12 -12 -12 -12 -12 -12 -12 -13 -12 -12 -13 -12 -13 -13 -13 -13 -13 -14 -14 -15 -16 -16 -15 -15 -15 -15 -15 -15 -14 -14
-12 -12 -12 -12 -13 -14 -14 -13 -13 -12 -12 -12 -12 -12 -12 -12 -12 -12 -12 -12 -12 -13 -12 -12 -13 -13 -13 -13 -13 -14 -15 -15 -17 -16 -16 -16 -16 -15 -15 -15 -15 -14 -14
-13 -12 -12 -12 -13 -13 -14 -14 -13 -13 -13 -13 -12 -12 -12 -12 -11 -12 -12 -12 -12 -12 -12 -13 -14 -13 -13 -13 -14 -15 -16 -17 -17 -16 -17 -16 -16 -16 -15 -15 -15 -14 -14
-13 -13 -13 -12 -13 -13 -14 -14 -13 -13 -13 -13 -13 -12 -12 -12 -12 -12 -12 -13 -13 -13 -14 -14 -14 -14 -14 -14 -16 -16 -17 -17 -17 -17 -17 -16 -16 -16 -15 -15 -15 -14 -15
-14 -13 -13 -12 -12 -13 -14 -14 -14 -13 -13 -13 -13 -12 -13 -13 -13 -13 -13 -13 -14 -14 -14 -14 -14 -14 -15 -16 -16 -17 -17 -18 -17 -18 -17 -17 -16 -16 -15 -15 -15 -15 -14
-14 -13 -13 -13 -12 -13 -13 -14 -14 -13 -13 -13 -13 -13 -13 -13 -13 -13 -13 -13 -14 -14 -14 -14 -14 -15 -16 -17 -17 -17 -17 -17 -18 -17 -17 -16 -16 -16 -15 -15 -15 -15 -15
-14 -14 -13 -12 -13 -13 -14 -14 -13 -13 -13 -13 -13 -13 -13 -13 -13 -13 -14 -14 -14 -14 -15 -15 -16 -16 -17 -16 -17 -16 -16 -17 -17 -16 -16 -16 -16 -16 -15 -15 -15 -15 -15
-14 -14 -14 -13 -14 -14 -14 -14 -14 -13 -13 -13 -13 -13 -13 -13 -14 -14 -14 -14 -14 -14 -15 -16 -16 -16 -16 -16 -16 -16 -16 -16 -16 -16 -16 -16 -15 -15 -15 -15 -15 -15 -16
-14 -15 -14 -14 -14 -14 -14 -14 -14 -13 -14 -14 -14 -14 -14 -14 -14 -14 -14 -14 -14 -15 -16 -16 -16 -16 -16 -16 -16 -16 -16 -16 -16 -16 -16 -15 -15 -15 -15 -16 -15 -15 -15
-14 -14 -14 -15 -14 -14 -13 -13 -14 -14 -14 -14 -14 -14 -14 -14 -14 -14 -15 -15 -15 -16 -16 -16 -16 -16 -15 -16 -16 -16 -16 -16 -17 -16 -16 -16 -16 -16 -16 -16 -16 -16 -16
-14 -14 -14 -14 -15 -14 -14 -14 -14 -14 -14 -14 -14 -14 -14 -15 -14 -14 -14 -15 -16 -15 -15 -15 -15 -15 -15 -16 -15 -15 -15 -16 -16 -16 -16 -16 -16 -16 -16 -16 -16 -16 -16
-14 -14 -15 -14 -14 -14 -14 -14 -14 -14 -14 -14 -14 -14 -14 -14 -14 -15 -15 -15 -15 -15 -15 -15 -15 -16 -16 -15 -15 -15 -15 -16 -16 -16 -16 -16 -16 -16 -16 -16 -16 -17 -17

GFSSE_500_temp_084.txt.gz
Temp
-10 -10 -10 -10 -10 -10 -11 -12 -12 -12 -11 -12 -12 -12 -11 -11 -10 -11 -11 -10 -11 -9 -9 -9 -9 -9 -9 -9 -9 -9 -9 -9 -9 -9 -9 -9 -9 -9 -9 -9 -9 -9 -10
-12 -12 -12 -12 -12 -12 -12 -13 -13 -13 -12 -12 -12 -12 -10 -11 -11 -11 -11 -10 -11 -9 -9 -9 -9 -10 -10 -10 -10 -10 -10 -9 -9 -9 -9 -10 -10 -10 -10 -10 -10 -10 -10
-13 -13 -13 -14 -14 -14 -13 -13 -13 -12 -13 -13 -12 -12 -12 -12 -11 -11 -12 -12 -11 -10 -9 -10 -10 -10 -10 -10 -10 -10 -10 -10 -10 -10 -10 -10 -10 -10 -10 -10 -10 -10 -10
-13 -13 -14 -15 -15 -15 -14 -14 -13 -14 -14 -13 -13 -13 -12 -12 -12 -11 -11 -11 -11 -10 -10 -10 -10 -10 -10 -10 -10 -10 -10 -10 -10 -10 -10 -10 -10 -10 -11 -11 -10 -10 -11
-13 -14 -14 -14 -14 -14 -14 -14 -14 -13 -13 -13 -13 -13 -13 -13 -12 -11 -11 -12 -11 -10 -11 -10 -10 -10 -10 -10 -11 -11 -11 -11 -11 -11 -11 -11 -11 -11 -11 -11 -11 -11 -11
-13 -13 -14 -14 -14 -14 -13 -11 -11 -11 -11 -11 -12 -13 -13 -12 -11 -11 -12 -12 -11 -11 -11 -10 -10 -10 -11 -11 -11 -11 -11 -11 -11 -11 -11 -12 -11 -11 -11 -12 -11 -12 -12
-12 -13 -14 -14 -14 -14 -14 -13 -13 -12 -12 -12 -13 -12 -14 -12 -11 -11 -12 -12 -11 -11 -11 -11 -11 -11 -10 -11 -11 -11 -12 -12 -12 -11 -12 -12 -12 -12 -12 -12 -12 -12 -12
-12 -13 -14 -14 -14 -14 -13 -13 -14 -13 -13 -12 -13 -11 -13 -12 -12 -11 -11 -11 -12 -12 -11 -11 -11 -11 -11 -11 -11 -12 -12 -12 -12 -12 -12 -12 -12 -12 -12 -13 -13 -13 -13
-13 -13 -14 -14 -14 -14 -13 -13 -14 -13 -13 -13 -12 -11 -12 -12 -12 -11 -12 -11 -12 -12 -12 -11 -12 -11 -11 -12 -12 -12 -12 -12 -12 -12 -12 -13 -13 -13 -13 -13 -13 -13 -13
-13 -13 -13 -14 -14 -13 -13 -12 -13 -13 -13 -12 -12 -12 -11 -12 -12 -12 -12 -12 -12 -12 -12 -12 -12 -12 -12 -12 -12 -12 -12 -12 -12 -12 -13 -13 -14 -14 -14 -13 -13 -13 -13
-13 -13 -13 -13 -14 -13 -13 -13 -13 -13 -13 -12 -12 -12 -11 -11 -12 -12 -12 -12 -12 -12 -12 -12 -12 -12 -12 -12 -12 -12 -12 -12 -12 -12 -13 -13 -14 -14 -15 -14 -14 -14 -14
-13 -13 -13 -13 -14 -13 -13 -13 -13 -13 -12 -12 -12 -12 -11 -11 -12 -11 -12 -12 -12 -12 -12 -12 -12 -12 -12 -12 -12 -12 -12 -12 -13 -12 -13 -13 -14 -14 -15 -14 -14 -14 -14
-13 -13 -13 -12 -13 -14 -13 -12 -12 -12 -12 -12 -11 -11 -11 -12 -11 -12 -12 -12 -12 -12 -12 -12 -12 -12 -12 -12 -12 -12 -12 -12 -13 -13 -13 -13 -14 -15 -15 -14 -14 -14 -14
-13 -13 -13 -12 -12 -13 -13 -13 -13 -12 -12 -12 -12 -11 -11 -12 -12 -11 -12 -12 -12 -12 -12 -12 -12 -12 -12 -12 -12 -13 -13 -12 -12 -12 -13 -13 -14 -15 -15 -14 -15 -14 -14
-13 -13 -13 -12 -12 -13 -13 -13 -13 -13 -13 -13 -12 -11 -11 -11 -11 -11 -12 -12 -12 -12 -12 -12 -12 -12 -12 -12 -13 -13 -13 -12 -13 -13 -13 -14 -15 -15 -15 -15 -15 -14 -15
-12 -12 -12 -12 -12 -12 -13 -14 -14 -13 -13 -12 -12 -12 -12 -11 -12 -12 -12 -12 -12 -12 -12 -12 -12 -12 -12 -13 -13 -13 -13 -13 -13 -14 -14 -15 -16 -16 -15 -15 -15 -15 -15
-12 -13 -13 -12 -12 -12 -13 -13 -14 -13 -12 -12 -12 -12 -12 -12 -11 -11 -12 -12 -12 -12 -12 -12 -12 -12 -13 -13 -13 -13 -13 -13 -14 -15 -16 -16 -16 -16 -16 -16 -16 -15 -15
-12 -13 -13 -13 -12 -12 -12 -13 -13 -13 -13 -12 -13 -12 -12 -12 -12 -12 -11 -11 -12 -12 -12 -12 -12 -13 -13 -13 -13 -13 -13 -14 -15 -16 -17 -17 -17 -16 -16 -16 -16 -16 -15
-13 -13 -13 -13 -13 -12 -13 -13 -13 -12 -13 -13 -12 -12 -12 -12 -12 -12 -12 -12 -12 -12 -13 -13 -13 -13 -14 -13 -13 -14 -14 -15 -16 -16 -17 -17 -17 -17 -16 -16 -16 -15 -15
-13 -13 -13 -12 -12 -12 -13 -13 -13 -13 -13 -13 -13 -13 -13 -12 -12 -12 -13 -13 -13 -14 -14 -14 -13 -14 -14 -14 -14 -15 -15 -15 -16 -17 -17 -17 -17 -17 -16 -16 -16 -16 -15
-14 -14 -13 -12 -12 -12 -13 -13 -13 -13 -13 -13 -13 -13 -13 -13 -13 -13 -13 -13 -13 -14 -14 -14 -14 -14 -14 -14 -15 -16 -16 -16 -16 -17 -16 -16 -16 -16 -16 -16 -16 -15 -15
-14 -14 -14 -13 -13 -13 -13 -14 -14 -13 -13 -13 -13 -13 -13 -13 -13 -13 -13 -14 -14 -14 -14 -14 -14 -14 -15 -15 -16 -16 -16 -16 -16 -16 -16 -16 -16 -16 -16 -16 -16 -15 -15
-14 -14 -14 -14 -14 -13 -14 -14 -14 -13 -13 -13 -13 -13 -13 -13 -13 -14 -14 -14 -14 -14 -14 -14 -15 -14 -15 -15 -16 -16 -16 -16 -16 -16 -16 -16 -16 -16 -16 -16 -16 -15 -15
-14 -14 -14 -14 -14 -14 -14 -13 -14 -14 -13 -13 -14 -14 -14 -14 -14 -14 -14 -14 -14 -14 -14 -15 -15 -15 -15 -15 -16 -16 -16 -16 -16 -16 -16 -16 -16 -16 -16 -16 -16 -16 -16
-14 -14 -14 -14 -14 -14 -14 -14 -13 -13 -14 -13 -13 -14 -14 -14 -14 -14 -14 -14 -14 -15 -15 -15 -15 -15 -15 -15 -16 -16 -15 -16 -16 -16 -16 -16 -16 -16 -16 -16 -16 -16 -16
-14 -14 -14 -14 -14 -14 -14 -13 -14 -14 -14 -14 -14 -14 -14 -14 -14 -14 -14 -14 -14 -14 -14 -14 -14 -15 -15 -15 -15 -16 -16 -16 -16 -16 -15 -16 -16 -16 -16 -16 -16 -16 -16

GFSSE_500_temp_087.txt.gz
Temp
-9 -9 -10 -10 -10 -10 -10 -10 -11 -11 -11 -10 -11 -11 -11 -11 -10 -10 -10 -10 -11 -11 -10 -10 -10 -9 -9 -9 -9 -9 -9 -8 -9 -8 -9 -9 -9 -9 -9 -9 -9 -9 -9
-10 -10 -10 -11 -11 -11 -11 -11 -11 -11 -11 -11 -11 -11 -11 -11 -11 -10 -10 -10 -11 -11 -10 -11 -10 -10 -9 -9 -9 -9 -9 -9 -9 -9 -9 -9 -9 -9 -10 -10 -10 -10 -10
-11 -11 -11 -11 -12 -12 -13 -13 -13 -12 -12 -12 -12 -12 -12 -12 -11 -11 -10 -11 -11 -11 -10 -12 -11 -10 -10 -10 -10 -10 -10 -10 -10 -10 -10 -10 -10 -10 -10 -10 -10 -10 -11
-11 -11 -12 -12 -13 -13 -13 -13 -13 -13 -13 -13 -13 -13 -13 -12 -12 -11 -11 -11 -11 -11 -11 -12 -11 -11 -10 -10 -10 -10 -10 -10 -10 -10 -10 -10 -10 -10 -10 -10 -11 -11 -11
-12 -12 -12 -12 -13 -12 -13 -13 -13 -13 -12 -12 -12 -13 -13 -13 -12 -12 -11 -11 -11 -11 -12 -12 -11 -10 -10 -10 -10 -10 -10 -10 -10 -10 -11 -11 -11 -11 -11 -11 -11 -11 -11
-12 -12 -12 -12 -13 -13 -12 -13 -12 -12 -12 -11 -13 -12 -13 -13 -12 -12 -12 -11 -11 -11 -12 -12 -11 -11 -11 -10 -10 -10 -10 -11 -11 -11 -11 -11 -11 -11 -11 -11 -11 -12 -12
-12 -13 -12 -12 -12 -13 -13 -13 -13 -12 -11 -11 -11 -10 -11 -12 -13 -12 -12 -12 -11 -11 -12 -12 -11 -11 -11 -11 -11 -11 -11 -11 -11 -11 -11 -11 -11 -11 -12 -12 -12 -12 -12
-13 -13 -13 -12 -13 -13 -13 -13 -13 -13 -12 -12 -11 -12 -12 -12 -12 -13 -12 -12 -12 -11 -12 -11 -11 -11 -11 -11 -11 -11 -11 -11 -11 -11 -11 -12 -12 -12 -12 -12 -13 -13 -13
-12 -13 -13 -13 -13 -13 -14 -13 -13 -13 -12 -12 -12 -13 -11 -11 -11 -11 -12 -11 -12 -12 -11 -11 -11 -11 -11 -11 -11 -11 -11 -11 -11 -12 -12 -12 -12 -12 -12 -13 -13 -13 -13
-12 -12 -12 -13 -13 -13 -13 -13 -13 -12 -12 -12 -12 -12 -11 -11 -12 -12 -12 -12 -11 -12 -11 -11 -11 -11 -11 -11 -11 -11 -11 -11 -11 -12 -12 -12 -12 -12 -13 -13 -14 -14 -13
-12 -12 -12 -12 -13 -12 -13 -13 -12 -12 -12 -12 -12 -11 -11 -11 -11 -12 -12 -12 -12 -12 -12 -12 -12 -12 -12 -12 -11 -11 -11 -11 -11 -12 -12 -12 -12 -12 -13 -14 -14 -14 -13
-12 -12 -13 -13 -12 -12 -13 -13 -12 -12 -12 -12 -12 -12 -11 -11 -11 -11 -12 -12 -12 -12 -11 -12 -12 -12 -12 -12 -11 -12 -11 -12 -11 -12 -12 -12 -12 -13 -13 -14 -14 -14 -14
-13 -12 -12 -12 -12 -12 -12 -13 -12 -12 -12 -12 -12 -12 -12 -12 -12 -12 -12 -11 -12 -12 -12 -12 -12 -12 -12 -12 -11 -12 -11 -12 -12 -12 -12 -12 -13 -13 -13 -14 -14 -14 -14
-13 -13 -13 -12 -12 -11 -12 -12 -12 -12 -12 -12 -12 -12 -12 -11 -12 -12 -12 -11 -12 -12 -12 -12 -12 -13 -12 -12 -12 -12 -12 -12 -12 -12 -12 -13 -13 -13 -13 -14 -15 -15 -14
-12 -12 -13 -12 -12 -12 -12 -12 -13 -12 -12 -12 -12 -12 -12 -11 -12 -12 -11 -11 -11 -12 -12 -12 -12 -12 -12 -12 -12 -12 -12 -12 -12 -12 -12 -13 -13 -14 -14 -16 -16 -15 -15
-12 -13 -12 -12 -12 -12 -12 -12 -12 -13 -12 -13 -12 -12 -12 -12 -12 -12 -12 -11 -11 -12 -12 -12 -12 -12 -12 -12 -12 -12 -12 -12 -12 -12 -12 -13 -14 -14 -15 -16 -16 -15 -15
-13 -12 -12 -12 -12 -12 -12 -12 -12 -12 -13 -13 -12 -12 -12 -12 -12 -12 -11 -11 -12 -12 -11 -12 -12 -12 -12 -12 -12 -12 -12 -13 -13 -12 -13 -14 -15 -15 -16 -16 -16 -16 -15
-13 -12 -12 -13 -12 -12 -12 -12 -12 -12 -13 -12 -12 -12 -11 -11 -11 -12 -12 -12 -12 -12 -12 -12 -12 -12 -12 -12 -12 -12 -13 -13 -13 -13 -14 -14 -14 -15 -15 -16 -16 -16 -16
-13 -13 -12 -13 -12 -12 -12 -12 -12 -13 -12 -12 -11 -12 -12 -12 -11 -12 -12 -12 -11 -12 -12 -12 -12 -12 -12 -12 -13 -13 -13 -13 -13 -13 -14 -15 -15 -16 -16 -16 -16 -16 -16
-13 -13 -13 -12 -13 -12 -12 -12 -12 -13 -12 -12 -12 -12 -12 -12 -12 -12 -12 -12 -12 -12 -11 -12 -12 -13 -13 -13 -13 -13 -13 -13 -14 -14 -15 -15 -15 -16 -16 -16 -16 -16 -15
-14 -13 -13 -13 -12 -11 -12 -12 -12 -13 -13 -12 -12 -13 -13 -13 -13 -13 -12 -12 -12 -12 -13 -13 -14 -13 -13 -13 -13 -13 -14 -14 -15 -15 -15 -15 -15 -16 -16 -15 -16 -16 -16
-14 -14 -13 -13 -12 -12 -12 -12 -12 -13 -13 -12 -13 -13 -13 -13 -13 -13 -12 -12 -13 -13 -13 -14 -14 -14 -14 -14 -14 -14 -15 -15 -15 -15 -15 -15 -16 -16 -16 -15 -15 -15 -15
-14 -13 -13 -14 -14 -13 -13 -12 -13 -13 -13 -13 -13 -13 -13 -13 -13 -13 -13 -13 -13 -13 -13 -13 -14 -14 -14 -14 -15 -15 -16 -16 -16 -16 -16 -16 -16 -16 -15 -16 -16 -16 -15
-14 -13 -13 -14 -14 -14 -14 -13 -13 -14 -14 -14 -13 -13 -13 -13 -13 -13 -13 -13 -14 -14 -14 -14 -14 -14 -15 -15 -15 -15 -15 -16 -16 -16 -15 -15 -16 -16 -16 -16 -16 -16 -15
-13 -13 -13 -14 -14 -14 -14 -13 -13 -14 -14 -13 -13 -13 -13 -13 -13 -13 -13 -14 -14 -14 -14 -15 -15 -15 -15 -15 -15 -15 -15 -16 -16 -16 -16 -16 -16 -16 -16 -15 -16 -16 -16
-13 -13 -13 -14 -14 -14 -14 -13 -13 -13 -13 -14 -13 -14 -13 -13 -14 -13 -14 -14 -14 -14 -15 -14 -14 -14 -14 -15 -15 -15 -15 -16 -16 -16 -16 -16 -16 -16 -16 -16 -16 -16 -16

GFSSE_500_temp_093.txt.gz
Temp
-10 -10 -10 -10 -9 -9 -10 -9 -9 -9 -10 -9 -9 -10 -10 -10 -10 -10 -10 -10 -10 -10 -10 -10 -10 -10 -10 -10 -9 -9 -9 -9 -8 -8 -8 -9 -9 -9 -9 -9 -9 -9 -9
-10 -10 -10 -10 -10 -10 -10 -10 -10 -10 -11 -11 -11 -11 -11 -11 -11 -11 -11 -11 -10 -10 -10 -10 -10 -10 -10 -10 -10 -9 -9 -9 -9 -9 -9 -9 -9 -9 -9 -9 -9 -9 -9
-10 -10 -9 -10 -10 -10 -11 -11 -11 -12 -12 -12 -12 -12 -12 -12 -13 -13 -12 -12 -11 -11 -11 -11 -11 -11 -11 -10 -10 -10 -10 -10 -9 -9 -9 -9 -9 -9 -9 -10 -9 -10 -10
-10 -10 -10 -10 -11 -11 -12 -12 -12 -12 -12 -12 -12 -12 -12 -13 -13 -13 -13 -13 -12 -11 -11 -11 -11 -11 -11 -10 -10 -11 -10 -10 -10 -10 -10 -10 -10 -10 -10 -10 -10 -10 -10
-10 -10 -10 -10 -11 -11 -11 -12 -12 -12 -12 -13 -12 -12 -11 -11 -12 -13 -13 -13 -13 -12 -12 -12 -11 -11 -11 -11 -11 -11 -11 -11 -11 -10 -10 -10 -10 -10 -10 -10 -10 -11 -11
-10 -10 -11 -11 -11 -11 -12 -12 -12 -12 -12 -12 -12 -12 -12 -11 -12 -12 -13 -13 -13 -13 -13 -13 -12 -12 -12 -12 -12 -12 -12 -12 -11 -11 -10 -10 -10 -10 -10 -11 -11 -11 -11
-10 -11 -11 -11 -11 -11 -12 -12 -12 -12 -13 -12 -12 -12 -11 -11 -11 -11 -13 -13 -13 -13 -13 -13 -12 -12 -12 -11 -12 -12 -12 -11 -11 -11 -11 -10 -10 -11 -11 -11 -11 -11 -12
-10 -11 -11 -11 -11 -11 -12 -12 -13 -13 -13 -13 -12 -12 -12 -12 -11 -11 -12 -13 -14 -12 -12 -13 -12 -12 -12 -11 -12 -11 -12 -12 -11 -11 -11 -11 -11 -11 -11 -11 -11 -11 -12
-10 -11 -11 -11 -11 -11 -12 -12 -12 -13 -13 -13 -13 -13 -12 -12 -12 -11 -11 -11 -12 -12 -12 -12 -12 -12 -12 -11 -11 -12 -12 -12 -12 -11 -11 -11 -11 -11 -11 -11 -11 -12 -12
-10 -11 -11 -11 -11 -12 -12 -12 -13 -13 -13 -13 -13 -12 -12 -12 -11 -12 -11 -11 -12 -12 -12 -12 -12 -12 -11 -11 -11 -12 -12 -12 -12 -11 -11 -11 -11 -11 -12 -12 -12 -11 -12
-11 -11 -11 -11 -11 -12 -12 -12 -13 -13 -13 -13 -13 -13 -13 -11 -11 -11 -11 -11 -12 -12 -12 -13 -12 -11 -11 -11 -12 -12 -13 -12 -11 -11 -11 -11 -12 -12 -12 -12 -12 -12 -12
-11 -11 -11 -11 -11 -12 -12 -12 -13 -13 -13 -13 -12 -12 -12 -12 -12 -11 -11 -11 -11 -12 -12 -12 -12 -11 -12 -12 -12 -12 -12 -12 -11 -11 -12 -12 -12 -12 -12 -12 -12 -12 -12
-11 -11 -12 -12 -11 -12 -12 -12 -12 -12 -13 -12 -12 -13 -12 -12 -12 -12 -11 -11 -11 -12 -12 -12 -11 -12 -12 -12 -12 -12 -13 -12 -12 -12 -12 -12 -11 -12 -12 -12 -12 -12 -13
-11 -12 -12 -12 -12 -11 -12 -12 -12 -12 -12 -13 -12 -13 -12 -12 -12 -11 -11 -12 -12 -12 -12 -11 -12 -12 -12 -12 -12 -12 -13 -13 -12 -12 -12 -12 -12 -12 -12 -12 -13 -13 -14
-11 -12 -12 -12 -12 -12 -12 -12 -12 -12 -12 -13 -12 -12 -12 -12 -12 -11 -11 -12 -12 -11 -11 -11 -11 -12 -12 -12 -12 -12 -13 -12 -12 -12 -12 -12 -12 -13 -13 -13 -13 -14 -14
-11 -12 -12 -12 -12 -12 -12 -12 -12 -12 -12 -12 -12 -12 -12 -12 -12 -12 -12 -12 -12 -11 -11 -12 -12 -12 -12 -12 -12 -12 -12 -12 -12 -12 -12 -12 -13 -13 -13 -13 -13 -14 -15
-12 -12 -13 -12 -12 -12 -12 -12 -12 -12 -12 -12 -13 -12 -12 -12 -12 -11 -12 -12 -12 -12 -11 -12 -12 -12 -12 -12 -12 -13 -13 -13 -13 -12 -12 -13 -13 -13 -13 -13 -13 -14 -15
-12 -12 -13 -13 -13 -12 -12 -12 -12 -12 -12 -12 -13 -13 -12 -12 -12 -12 -12 -12 -12 -12 -12 -12 -12 -12 -12 -12 -12 -12 -12 -12 -13 -12 -12 -13 -13 -13 -13 -13 -14 -15 -16
-12 -12 -12 -13 -13 -13 -12 -12 -12 -12 -12 -12 -12 -13 -13 -12 -12 -12 -12 -12 -12 -12 -12 -12 -12 -12 -11 -12 -12 -12 -12 -12 -12 -12 -13 -13 -13 -14 -14 -14 -15 -15 -16
-12 -12 -13 -12 -13 -13 -13 -12 -11 -11 -12 -12 -12 -13 -13 -13 -12 -12 -12 -12 -12 -12 -12 -12 -12 -12 -12 -12 -12 -12 -12 -12 -12 -13 -13 -13 -14 -14 -15 -15 -15 -16 -16
-13 -13 -12 -12 -13 -13 -13 -12 -11 -11 -12 -12 -12 -13 -13 -13 -12 -12 -12 -12 -12 -12 -12 -12 -12 -12 -12 -12 -12 -12 -12 -13 -13 -13 -13 -14 -14 -15 -15 -16 -16 -16 -16
-13 -12 -12 -12 -13 -13 -13 -12 -12 -12 -12 -12 -12 -13 -13 -13 -12 -13 -12 -11 -12 -12 -12 -12 -12 -12 -13 -12 -12 -12 -14 -13 -13 -14 -14 -15 -15 -15 -15 -15 -15 -16 -16
-13 -12 -12 -12 -13 -13 -14 -13 -13 -12 -12 -13 -13 -13 -13 -13 -12 -12 -12 -12 -12 -12 -12 -13 -13 -13 -13 -12 -12 -14 -14 -14 -14 -14 -15 -15 -15 -15 -16 -16 -16 -17 -16
-13 -12 -12 -12 -13 -13 -14 -14 -14 -13 -13 -13 -13 -14 -14 -13 -12 -12 -12 -12 -13 -12 -13 -13 -13 -13 -13 -12 -14 -14 -14 -14 -14 -14 -15 -15 -15 -15 -15 -16 -16 -16 -16
-13 -13 -13 -13 -13 -13 -13 -13 -13 -13 -14 -13 -13 -14 -13 -12 -13 -13 -13 -13 -13 -13 -13 -13 -14 -13 -13 -14 -14 -14 -14 -15 -15 -15 -15 -15 -16 -16 -16 -16 -16 -16 -16
-13 -13 -13 -13 -13 -13 -13 -13 -13 -13 -13 -13 -13 -14 -13 -13 -13 -13 -13 -14 -13 -13 -13 -13 -13 -13 -14 -14 -15 -15 -15 -16 -16 -16 -16 -16 -16 -16 -16 -16 -16 -15 -15

GFSSE_500_temp_096.txt.gz
Temp
-10 -10 -10 -10 -10 -10 -10 -10 -10 -10 -10 -10 -10 -10 -10 -10 -9 -9 -9 -10 -10 -11 -11 -11 -11 -10 -10 -10 -10 -10 -9 -9 -9 -8 -8 -8 -8 -8 -8 -8 -8 -9 -9
-11 -11 -11 -10 -10 -10 -10 -10 -10 -11 -11 -11 -11 -11 -10 -10 -10 -10 -10 -10 -10 -10 -11 -11 -11 -11 -10 -10 -10 -10 -10 -9 -9 -9 -9 -9 -9 -9 -9 -9 -9 -9 -9
-11 -11 -11 -10 -10 -10 -10 -10 -11 -12 -11 -11 -11 -11 -11 -11 -11 -11 -11 -11 -11 -11 -11 -11 -11 -11 -11 -11 -10 -10 -10 -9 -9 -10 -10 -9 -9 -9 -9 -9 -9 -9 -10
-11 -11 -10 -10 -10 -10 -11 -11 -11 -11 -12 -11 -11 -12 -12 -12 -12 -11 -11 -12 -12 -12 -11 -11 -11 -11 -11 -11 -11 -10 -10 -10 -10 -10 -10 -10 -10 -9 -9 -10 -10 -10 -10
-11 -11 -10 -10 -10 -11 -11 -11 -12 -12 -12 -12 -12 -12 -12 -12 -12 -12 -12 -10 -13 -13 -12 -12 -12 -11 -11 -11 -11 -11 -11 -10 -10 -10 -10 -10 -10 -10 -10 -10 -10 -10 -10
-11 -10 -10 -10 -10 -11 -11 -11 -11 -11 -12 -12 -12 -12 -13 -13 -12 -12 -12 -12 -11 -13 -13 -13 -12 -12 -12 -11 -11 -11 -11 -11 -11 -11 -11 -11 -11 -11 -11 -11 -11 -11 -11
-11 -10 -10 -10 -11 -11 -11 -12 -12 -11 -12 -12 -12 -12 -12 -13 -12 -12 -12 -11 -12 -13 -14 -13 -12 -12 -12 -12 -11 -12 -12 -11 -11 -12 -12 -12 -11 -11 -11 -11 -11 -11 -11
-11 -10 -10 -11 -11 -11 -12 -12 -12 -12 -12 -12 -12 -12 -12 -12 -12 -12 -12 -11 -12 -12 -12 -13 -13 -13 -13 -12 -12 -12 -11 -11 -11 -13 -13 -13 -12 -11 -11 -11 -11 -11 -11
-11 -10 -10 -11 -11 -11 -11 -12 -12 -12 -12 -12 -12 -12 -12 -13 -13 -12 -12 -11 -12 -11 -12 -13 -13 -13 -12 -13 -13 -13 -12 -12 -13 -13 -12 -12 -11 -11 -11 -11 -11 -12 -11
-11 -10 -11 -11 -11 -11 -11 -12 -12 -12 -12 -12 -12 -12 -13 -13 -13 -12 -12 -12 -11 -12 -11 -12 -12 -12 -12 -12 -12 -12 -12 -12 -12 -12 -12 -12 -11 -12 -11 -12 -12 -12 -12
-11 -11 -11 -11 -11 -12 -12 -12 -12 -12 -12 -12 -12 -12 -13 -13 -13 -12 -11 -11 -11 -11 -11 -12 -12 -12 -12 -12 -13 -12 -12 -13 -13 -12 -12 -12 -12 -12 -12 -12 -12 -12 -12
-12 -11 -11 -11 -12 -12 -12 -12 -12 -12 -12 -12 -12 -13 -13 -13 -12 -12 -11 -11 -11 -11 -11 -12 -12 -12 -12 -12 -12 -13 -13 -13 -12 -12 -12 -12 -12 -12 -12 -12 -12 -12 -12
-12 -12 -11 -11 -11 -13 -12 -12 -12 -12 -12 -12 -12 -13 -13 -12 -12 -12 -11 -11 -12 -12 -12 -11 -11 -12 -11 -12 -13 -12 -13 -12 -12 -12 -12 -12 -12 -12 -12 -12 -12 -12 -12
-12 -12 -12 -11 -12 -13 -13 -13 -12 -12 -12 -12 -12 -13 -12 -12 -12 -12 -12 -12 -11 -12 -12 -12 -12 -12 -11 -12 -12 -13 -12 -13 -13 -13 -12 -12 -12 -12 -13 -12 -12 -12 -12
-13 -12 -12 -12 -12 -12 -13 -12 -12 -12 -12 -12 -12 -12 -12 -12 -12 -12 -12 -11 -11 -11 -11 -12 -12 -12 -12 -12 -12 -13 -13 -13 -13 -13 -12 -12 -12 -13 -12 -12 -12 -12 -13
-12 -13 -12 -12 -12 -12 -12 -12 -13 -12 -12 -12 -12 -12 -12 -12 -12 -12 -12 -12 -12 -12 -12 -12 -12 -12 -11 -12 -12 -13 -13 -13 -13 -13 -13 -12 -13 -13 -12 -12 -12 -13 -13
-12 -12 -12 -12 -12 -12 -13 -12 -12 -12 -12 -12 -12 -13 -13 -12 -12 -12 -11 -11 -12 -12 -12 -12 -12 -11 -11 -12 -12 -12 -12 -13 -13 -13 -13 -13 -13 -13 -13 -13 -13 -13 -13
-13 -12 -12 -11 -12 -13 -13 -12 -12 -12 -12 -12 -13 -13 -13 -12 -12 -12 -12 -12 -12 -12 -12 -12 -12 -12 -11 -12 -12 -12 -12 -13 -13 -13 -13 -13 -13 -13 -13 -13 -13 -13 -14
-13 -12 -12 -12 -13 -13 -13 -13 -12 -12 -12 -12 -13 -12 -13 -13 -12 -12 -12 -12 -12 -12 -12 -12 -12 -12 -11 -12 -12 -12 -12 -12 -13 -13 -13 -13 -13 -13 -13 -13 -14 -14 -14
-12 -13 -12 -13 -13 -13 -13 -13 -12 -12 -12 -12 -12 -12 -13 -13 -13 -12 -12 -12 -12 -12 -12 -12 -12 -12 -12 -12 -12 -12 -12 -12 -12 -12 -13 -13 -13 -13 -14 -14 -14 -15 -15
-12 -13 -13 -13 -13 -13 -13 -13 -12 -12 -11 -11 -12 -12 -12 -13 -13 -13 -12 -12 -12 -12 -12 -12 -12 -12 -12 -12 -12 -12 -12 -12 -12 -12 -12 -13 -14 -14 -14 -15 -15 -16 -16
-13 -13 -13 -13 -13 -13 -13 -13 -12 -12 -11 -11 -11 -12 -12 -13 -13 -13 -13 -12 -13 -12 -12 -12 -12 -12 -12 -12 -12 -12 -13 -13 -13 -13 -14 -14 -14 -14 -15 -15 -16 -16 -16
-13 -13 -13 -13 -13 -13 -13 -13 -13 -13 -12 -12 -12 -12 -13 -13 -14 -13 -13 -12 -12 -12 -12 -13 -12 -12 -12 -13 -13 -13 -13 -13 -13 -14 -14 -14 -14 -16 -16 -16 -16 -16 -16
-13 -13 -13 -13 -13 -13 -13 -13 -13 -13 -13 -13 -13 -13 -13 -13 -14 -14 -13 -13 -12 -12 -12 -12 -13 -13 -13 -13 -13 -13 -13 -13 -14 -14 -14 -14 -15 -16 -16 -16 -16 -16 -16
-14 -13 -13 -13 -13 -13 -13 -13 -13 -13 -13 -13 -13 -13 -13 -14 -13 -13 -13 -13 -12 -12 -13 -13 -13 -13 -13 -14 -14 -13 -13 -14 -14 -14 -15 -16 -16 -16 -16 -17 -17 -17 -17
-14 -13 -13 -13 -13 -13 -13 -13 -13 -13 -13 -13 -13 -13 -14 -13 -13 -13 -13 -13 -13 -13 -13 -13 -13 -13 -14 -13 -14 -14 -14 -15 -15 -15 -16 -16 -16 -16 -16 -17 -17 -17 -16

GFSSE_500_temp_099.txt.gz
Temp
-11 -11 -10 -10 -10 -10 -10 -10 -10 -10 -10 -9 -9 -9 -9 -9 -9 -9 -9 -9 -9 -9 -10 -10 -10 -11 -11 -11 -11 -10 -10 -10 -9 -9 -9 -9 -8 -8 -8 -8 -9 -9 -9
-10 -10 -10 -11 -10 -10 -10 -10 -10 -10 -10 -10 -10 -10 -10 -10 -10 -11 -10 -10 -10 -10 -10 -10 -11 -11 -11 -11 -11 -11 -10 -10 -10 -9 -9 -9 -9 -9 -9 -9 -9 -9 -9
-11 -11 -11 -11 -11 -11 -10 -10 -10 -10 -11 -11 -11 -10 -10 -10 -10 -11 -11 -11 -11 -11 -11 -11 -11 -11 -12 -11 -11 -11 -10 -10 -10 -10 -9 -9 -9 -9 -10 -10 -9 -9 -10
-11 -11 -11 -11 -11 -10 -10 -10 -10 -11 -11 -11 -11 -11 -12 -12 -12 -12 -11 -11 -11 -11 -11 -11 -11 -11 -11 -11 -11 -11 -11 -11 -10 -10 -10 -10 -10 -10 -10 -10 -10 -10 -10
-11 -10 -11 -11 -10 -10 -10 -10 -11 -11 -11 -11 -11 -12 -12 -12 -13 -13 -12 -12 -12 -12 -12 -11 -12 -12 -12 -12 -12 -11 -11 -11 -11 -10 -10 -10 -10 -10 -10 -11 -12 -11 -11
-11 -11 -11 -11 -10 -10 -11 -11 -11 -11 -11 -11 -11 -12 -12 -12 -12 -11 -12 -13 -12 -12 -13 -12 -12 -13 -12 -12 -12 -12 -11 -11 -11 -11 -10 -11 -11 -11 -12 -13 -11 -12 -11
-11 -11 -11 -10 -10 -10 -11 -11 -11 -11 -11 -11 -11 -12 -12 -12 -12 -12 -13 -13 -12 -12 -13 -13 -12 -12 -13 -13 -13 -12 -12 -11 -11 -11 -11 -12 -13 -12 -12 -12 -12 -11 -11
-11 -11 -11 -10 -10 -10 -11 -11 -11 -11 -11 -12 -12 -12 -12 -12 -12 -13 -12 -13 -12 -13 -12 -13 -13 -12 -13 -13 -13 -13 -12 -11 -11 -11 -12 -12 -12 -13 -13 -12 -12 -11 -11
-11 -11 -11 -11 -10 -11 -11 -11 -11 -12 -12 -12 -12 -12 -12 -13 -13 -13 -13 -12 -12 -11 -12 -12 -12 -12 -13 -13 -13 -13 -12 -12 -12 -12 -12 -12 -12 -13 -12 -12 -12 -12 -12
-11 -11 -11 -11 -10 -11 -11 -11 -11 -11 -12 -12 -12 -12 -12 -13 -13 -13 -13 -13 -12 -12 -12 -11 -11 -13 -13 -13 -13 -13 -13 -12 -12 -12 -13 -12 -12 -12 -12 -12 -12 -12 -12
-12 -12 -11 -11 -11 -11 -11 -12 -12 -12 -12 -12 -12 -12 -12 -12 -12 -13 -13 -13 -12 -12 -12 -11 -11 -12 -13 -13 -13 -13 -13 -13 -13 -12 -12 -13 -13 -12 -12 -12 -12 -12 -12
-12 -12 -12 -11 -11 -11 -11 -12 -12 -12 -12 -12 -12 -12 -12 -12 -13 -13 -13 -13 -12 -12 -12 -12 -12 -12 -13 -13 -13 -14 -13 -14 -13 -13 -13 -13 -13 -12 -12 -12 -12 -12 -12
-12 -12 -12 -12 -11 -11 -11 -11 -12 -12 -12 -12 -12 -12 -12 -12 -13 -13 -13 -12 -12 -12 -11 -11 -12 -12 -13 -13 -13 -13 -13 -13 -13 -12 -13 -13 -13 -13 -13 -13 -12 -12 -12
-12 -13 -12 -12 -12 -12 -12 -12 -12 -12 -12 -12 -12 -12 -12 -12 -13 -13 -13 -12 -12 -11 -11 -12 -11 -12 -13 -13 -12 -12 -12 -13 -13 -13 -14 -13 -13 -13 -13 -12 -13 -12 -12
-12 -13 -13 -13 -12 -12 -12 -12 -12 -13 -13 -12 -12 -12 -12 -13 -13 -13 -12 -12 -12 -12 -12 -11 -11 -12 -12 -13 -13 -12 -12 -13 -12 -13 -13 -13 -13 -13 -13 -12 -13 -12 -12
-12 -13 -13 -13 -12 -12 -12 -12 -12 -13 -13 -13 -12 -12 -12 -13 -12 -12 -12 -12 -12 -12 -12 -12 -12 -12 -12 -13 -13 -12 -12 -13 -14 -13 -13 -13 -13 -13 -13 -13 -13 -12 -12
-13 -13 -13 -13 -12 -12 -12 -13 -13 -13 -13 -12 -12 -12 -12 -12 -12 -12 -12 -12 -12 -12 -12 -12 -11 -13 -12 -13 -13 -13 -12 -13 -13 -13 -13 -13 -13 -13 -13 -13 -13 -13 -13
-13 -13 -13 -13 -12 -12 -12 -13 -13 -13 -13 -13 -12 -12 -12 -12 -13 -12 -12 -12 -12 -11 -12 -11 -11 -12 -12 -13 -13 -13 -12 -13 -13 -13 -13 -13 -13 -13 -13 -14 -14 -13 -13
-13 -13 -13 -13 -12 -12 -12 -13 -13 -13 -13 -13 -13 -13 -12 -13 -13 -12 -12 -12 -12 -12 -12 -12 -12 -12 -12 -12 -12 -13 -12 -13 -13 -14 -13 -13 -13 -13 -13 -14 -14 -13 -13
-13 -13 -12 -13 -12 -12 -13 -13 -13 -13 -13 -12 -12 -12 -12 -12 -12 -12 -12 -12 -12 -12 -12 -12 -12 -12 -12 -12 -12 -12 -12 -12 -12 -13 -12 -12 -13 -13 -13 -13 -13 -13 -14
-13 -13 -12 -13 -13 -13 -13 -13 -13 -13 -13 -13 -12 -12 -12 -12 -13 -13 -12 -12 -12 -12 -12 -12 -12 -12 -12 -12 -12 -11 -12 -12 -12 -12 -12 -13 -13 -13 -13 -13 -13 -14 -14
-14 -13 -13 -13 -13 -13 -13 -13 -13 -13 -13 -13 -12 -12 -12 -12 -12 -13 -12 -12 -12 -12 -12 -12 -12 -12 -12 -13 -12 -12 -12 -12 -13 -13 -13 -14 -14 -14 -14 -14 -14 -15 -15
-14 -14 -13 -13 -13 -13 -13 -13 -13 -13 -13 -13 -13 -12 -12 -12 -12 -13 -13 -13 -13 -13 -13 -13 -12 -12 -13 -12 -12 -12 -12 -13 -13 -13 -13 -13 -14 -14 -14 -14 -15 -16 -16
-14 -15 -14 -13 -13 -13 -13 -13 -13 -13 -13 -13 -13 -13 -12 -12 -12 -13 -14 -13 -13 -13 -13 -13 -13 -13 -12 -12 -12 -13 -13 -13 -13 -13 -13 -14 -15 -15 -15 -15 -16 -16 -17
-14 -14 -14 -13 -14 -13 -13 -13 -13 -13 -13 -13 -13 -13 -13 -13 -13 -13 -13 -13 -13 -13 -13 -13 -12 -13 -13 -13 -13 -13 -13 -13 -13 -13 -14 -14 -15 -15 -15 -16 -17 -17 -17
-13 -14 -14 -14 -14 -13 -13 -13 -13 -13 -13 -13 -13 -13 -13 -13 -13 -14 -14 -13 -13 -12 -12 -13 -13 -13 -13 -13 -13 -14 -13 -14 -14 -14 -14 -15 -15 -15 -15 -16 -17 -17 -17

GFSSE_500_temp_102.txt.gz
Temp
-10 -10 -10 -10 -10 -10 -10 -10 -9 -9 -9 -9 -9 -9 -9 -9 -9 -10 -10 -10 -10 -10 -10 -10 -10 -10 -11 -11 -11 -11 -11 -10 -10 -10 -9 -9 -9 -9 -9 -9 -9 -9 -9
-10 -11 -10 -10 -9 -9 -10 -9 -9 -9 -9 -9 -9 -9 -10 -10 -10 -10 -10 -10 -10 -10 -10 -10 -10 -11 -11 -12 -11 -11 -11 -11 -11 -10 -10 -10 -9 -9 -9 -9 -9 -9 -9
-11 -11 -10 -10 -10 -10 -10 -10 -9 -9 -9 -9 -10 -10 -10 -11 -11 -11 -11 -11 -11 -11 -11 -11 -11 -11 -11 -12 -12 -12 -11 -11 -11 -10 -10 -10 -10 -9 -9 -10 -10 -10 -10
-11 -11 -11 -10 -10 -10 -10 -9 -9 -9 -10 -10 -10 -11 -11 -11 -11 -11 -12 -12 -12 -12 -11 -11 -11 -11 -12 -12 -12 -12 -12 -11 -11 -11 -11 -10 -10 -10 -10 -10 -10 -10 -10
-11 -11 -11 -11 -10 -10 -10 -9 -9 -10 -10 -11 -11 -11 -11 -11 -11 -11 -12 -13 -13 -13 -12 -11 -12 -12 -12 -12 -13 -12 -12 -12 -12 -12 -11 -11 -11 -10 -10 -11 -11 -11 -11
-11 -11 -11 -11 -11 -10 -10 -9 -10 -10 -10 -11 -11 -11 -11 -11 -11 -12 -12 -12 -12 -13 -13 -12 -12 -13 -12 -12 -13 -12 -12 -12 -12 -11 -12 -11 -11 -11 -11 -12 -12 -12 -13
-11 -11 -11 -11 -11 -10 -10 -10 -10 -11 -11 -11 -11 -11 -11 -11 -12 -11 -12 -11 -12 -12 -13 -12 -12 -13 -13 -13 -13 -13 -13 -12 -12 -11 -11 -12 -11 -11 -11 -12 -11 -12 -12
-11 -11 -11 -11 -11 -11 -10 -10 -10 -11 -11 -11 -12 -12 -12 -12 -12 -12 -12 -12 -12 -12 -13 -13 -12 -13 -14 -13 -13 -13 -13 -13 -12 -12 -12 -12 -12 -11 -12 -12 -13 -12 -12
-11 -11 -11 -11 -11 -11 -11 -11 -11 -11 -12 -12 -12 -12 -12 -12 -12 -13 -12 -12 -12 -13 -13 -13 -12 -13 -13 -14 -13 -13 -13 -13 -12 -12 -12 -12 -12 -12 -13 -13 -13 -12 -12
-11 -11 -12 -11 -12 -11 -11 -11 -11 -11 -12 -12 -12 -12 -12 -12 -12 -12 -13 -12 -13 -13 -13 -13 -12 -12 -13 -14 -14 -13 -13 -13 -13 -13 -13 -13 -13 -13 -14 -13 -13 -13 -12
-11 -12 -12 -12 -11 -12 -11 -11 -11 -11 -12 -13 -13 -12 -12 -12 -12 -12 -13 -13 -13 -13 -13 -12 -12 -12 -13 -13 -14 -13 -13 -13 -13 -13 -13 -13 -13 -13 -14 -13 -13 -13 -12
-12 -12 -12 -12 -11 -12 -12 -12 -11 -11 -12 -13 -13 -13 -12 -12 -13 -13 -13 -13 -13 -13 -12 -12 -12 -12 -12 -14 -13 -13 -13 -14 -13 -13 -13 -14 -14 -14 -14 -13 -13 -13 -13
-12 -12 -12 -12 -12 -11 -12 -12 -11 -11 -12 -12 -13 -13 -13 -12 -12 -12 -13 -13 -13 -13 -13 -13 -12 -12 -12 -13 -14 -13 -14 -14 -14 -14 -14 -13 -14 -14 -13 -13 -13 -13 -13
-12 -12 -12 -12 -12 -12 -12 -12 -12 -12 -12 -13 -13 -13 -13 -13 -13 -12 -13 -13 -13 -13 -13 -13 -12 -12 -12 -12 -13 -13 -14 -14 -13 -13 -13 -14 -14 -14 -13 -13 -13 -13 -13
-12 -12 -13 -12 -12 -12 -12 -12 -12 -12 -13 -13 -13 -13 -13 -13 -13 -13 -13 -13 -13 -13 -13 -12 -12 -12 -12 -13 -13 -13 -14 -13 -14 -15 -14 -13 -14 -14 -14 -13 -13 -13 -13
-12 -12 -13 -13 -12 -12 -12 -12 -12 -12 -13 -13 -13 -13 -13 -13 -13 -13 -14 -13 -13 -12 -12 -12 -12 -12 -12 -13 -13 -13 -13 -13 -13 -14 -13 -13 -14 -14 -14 -13 -13 -13 -13
-12 -12 -13 -13 -13 -12 -12 -12 -12 -12 -13 -13 -13 -13 -13 -13 -13 -13 -13 -13 -12 -13 -12 -12 -12 -12 -12 -13 -13 -13 -13 -12 -13 -13 -13 -14 -14 -14 -14 -13 -13 -13 -13
-13 -13 -13 -13 -13 -13 -12 -13 -12 -13 -13 -13 -13 -13 -13 -13 -13 -13 -14 -13 -12 -12 -12 -12 -12 -12 -12 -12 -13 -13 -13 -13 -13 -12 -14 -13 -13 -13 -13 -13 -13 -13 -13
-13 -13 -13 -13 -13 -13 -12 -13 -13 -13 -13 -13 -13 -13 -13 -13 -13 -13 -14 -13 -12 -12 -12 -12 -12 -12 -12 -13 -13 -13 -13 -13 -13 -13 -14 -14 -14 -14 -13 -13 -13 -14 -13
-13 -13 -13 -13 -13 -13 -13 -13 -13 -13 -13 -13 -13 -13 -13 -13 -12 -13 -12 -13 -12 -12 -12 -12 -12 -12 -13 -13 -12 -13 -13 -13 -13 -13 -13 -14 -14 -14 -13 -13 -13 -13 -13
-13 -14 -14 -13 -13 -13 -13 -13 -12 -13 -13 -13 -13 -13 -13 -12 -12 -12 -12 -13 -12 -12 -12 -12 -12 -12 -12 -12 -12 -13 -12 -12 -13 -13 -13 -14 -13 -13 -13 -14 -13 -13 -14
-13 -13 -14 -13 -12 -12 -13 -13 -12 -12 -13 -13 -13 -13 -13 -12 -12 -12 -12 -13 -13 -13 -12 -12 -12 -12 -12 -12 -12 -12 -12 -12 -12 -13 -13 -13 -13 -13 -14 -14 -15 -14 -14
-13 -14 -14 -13 -13 -13 -13 -13 -13 -13 -13 -13 -13 -13 -13 -13 -12 -12 -12 -13 -13 -13 -13 -13 -12 -12 -13 -12 -12 -12 -13 -12 -13 -13 -13 -13 -13 -14 -13 -14 -14 -15 -15
-13 -14 -14 -13 -13 -13 -13 -13 -13 -13 -13 -13 -13 -13 -13 -13 -13 -13 -12 -12 -13 -13 -13 -13 -13 -13 -13 -13 -12 -13 -12 -13 -13 -13 -14 -14 -13 -13 -14 -14 -14 -15 -15
-13 -14 -14 -14 -13 -13 -13 -13 -13 -13 -13 -13 -13 -13 -13 -13 -13 -13 -13 -14 -13 -13 -13 -13 -13 -13 -13 -13 -13 -13 -13 -13 -14 -14 -13 -13 -13 -14 -14 -14 -15 -15 -15
-13 -13 -15 -14 -13 -13 -13 -13 -13 -13 -13 -13 -13 -13 -13 -13 -13 -13 -13 -13 -14 -14 -13 -13 -13 -13 -13 -13 -13 -13 -13 -13 -14 -14 -14 -14 -14 -14 -14 -14 -15 -16 -16

GFSSE_500_temp_105.txt.gz
Temp
-9 -9 -9 -9 -9 -9 -9 -9 -9 -9 -9 -9 -9 -9 -9 -9 -9 -9 -9 -10 -10 -10 -10 -10 -10 -11 -11 -11 -11 -11 -11 -11 -10 -10 -10 -10 -9 -9 -9 -9 -9 -9 -9
-10 -9 -9 -9 -9 -9 -9 -9 -9 -9 -9 -9 -9 -9 -9 -9 -10 -10 -10 -10 -10 -10 -10 -10 -10 -11 -11 -11 -11 -11 -11 -11 -11 -11 -10 -10 -10 -10 -9 -9 -9 -9 -10
-9 -10 -10 -10 -9 -9 -9 -9 -9 -9 -9 -9 -9 -10 -10 -10 -10 -10 -10 -11 -11 -11 -11 -10 -11 -12 -12 -12 -12 -12 -11 -11 -11 -11 -11 -10 -10 -10 -10 -10 -10 -10 -10
-10 -10 -10 -10 -10 -10 -9 -9 -9 -9 -9 -9 -9 -10 -10 -10 -11 -11 -11 -11 -12 -12 -12 -11 -11 -12 -12 -12 -12 -12 -12 -12 -11 -11 -11 -11 -11 -10 -10 -10 -10 -10 -10
-10 -10 -10 -10 -10 -10 -10 -10 -9 -9 -9 -9 -10 -10 -11 -11 -11 -11 -11 -12 -12 -12 -13 -13 -12 -12 -12 -12 -12 -12 -12 -12 -11 -11 -11 -11 -11 -11 -11 -11 -11 -11 -11
-11 -10 -10 -10 -10 -10 -10 -10 -10 -9 -9 -10 -10 -11 -11 -11 -11 -12 -12 -12 -12 -12 -13 -13 -13 -13 -13 -13 -13 -13 -13 -12 -12 -12 -12 -12 -11 -11 -11 -11 -11 -12 -11
-11 -10 -10 -10 -10 -10 -10 -10 -10 -10 -10 -10 -10 -11 -11 -11 -12 -12 -12 -12 -12 -12 -12 -13 -13 -13 -12 -12 -13 -13 -13 -13 -12 -12 -12 -11 -11 -12 -11 -12 -12 -12 -11
-11 -10 -10 -10 -10 -11 -11 -11 -11 -10 -10 -10 -11 -11 -11 -12 -12 -12 -12 -12 -12 -12 -13 -13 -13 -12 -12 -13 -13 -14 -13 -13 -13 -12 -12 -12 -12 -12 -12 -12 -13 -12 -12
-11 -11 -11 -10 -10 -11 -11 -11 -11 -11 -11 -11 -11 -11 -12 -12 -12 -12 -12 -12 -12 -13 -13 -13 -13 -13 -13 -13 -13 -13 -13 -13 -13 -13 -12 -12 -12 -12 -12 -12 -13 -13 -12
-11 -11 -11 -11 -11 -11 -11 -11 -11 -11 -11 -11 -11 -12 -12 -12 -12 -12 -12 -13 -13 -13 -13 -13 -13 -13 -12 -12 -14 -14 -14 -13 -13 -13 -12 -13 -12 -12 -12 -12 -13 -13 -14
-12 -12 -12 -11 -11 -11 -11 -11 -12 -12 -12 -12 -12 -12 -13 -12 -12 -13 -13 -13 -13 -13 -13 -13 -12 -13 -12 -12 -13 -13 -14 -13 -13 -13 -13 -13 -13 -13 -13 -13 -13 -13 -13
-12 -12 -12 -11 -11 -11 -11 -11 -12 -12 -12 -12 -12 -12 -13 -13 -13 -13 -13 -13 -13 -13 -13 -13 -13 -12 -12 -12 -12 -14 -14 -14 -14 -13 -13 -13 -13 -13 -13 -13 -14 -13 -13
-12 -12 -12 -12 -12 -11 -11 -11 -12 -12 -12 -12 -12 -13 -13 -13 -13 -13 -13 -13 -13 -13 -13 -13 -13 -13 -13 -12 -13 -13 -14 -14 -14 -14 -13 -13 -14 -14 -14 -14 -14 -13 -13
-12 -12 -12 -12 -12 -12 -12 -12 -12 -12 -12 -12 -12 -12 -13 -13 -13 -13 -13 -13 -13 -13 -13 -13 -13 -13 -13 -13 -12 -14 -14 -14 -14 -13 -13 -14 -14 -14 -14 -14 -14 -13 -13
-12 -12 -12 -12 -12 -12 -12 -12 -12 -12 -12 -12 -12 -12 -12 -13 -13 -13 -13 -13 -13 -14 -13 -13 -12 -13 -13 -13 -13 -14 -14 -14 -13 -13 -14 -14 -14 -14 -14 -14 -14 -14 -13
-12 -12 -13 -13 -13 -12 -12 -12 -12 -12 -12 -12 -13 -13 -13 -13 -13 -14 -14 -13 -13 -13 -13 -13 -13 -13 -12 -13 -13 -14 -14 -13 -13 -14 -14 -14 -13 -14 -14 -14 -14 -14 -13
-12 -12 -13 -13 -13 -12 -12 -12 -12 -12 -12 -13 -13 -13 -13 -13 -13 -14 -14 -14 -13 -13 -13 -13 -13 -13 -13 -13 -12 -12 -13 -13 -13 -14 -14 -14 -14 -14 -14 -14 -14 -13 -13
-13 -13 -13 -13 -13 -12 -12 -12 -12 -12 -13 -13 -13 -13 -13 -14 -14 -13 -13 -13 -14 -13 -12 -12 -12 -12 -12 -12 -13 -12 -13 -13 -14 -13 -14 -14 -14 -13 -13 -14 -14 -14 -14
-13 -13 -13 -13 -13 -13 -13 -13 -13 -13 -13 -13 -13 -13 -13 -13 -13 -13 -13 -13 -14 -13 -13 -12 -12 -12 -12 -12 -12 -13 -13 -13 -13 -12 -14 -14 -14 -14 -13 -14 -14 -14 -14
-12 -13 -13 -13 -13 -13 -13 -13 -13 -13 -13 -13 -13 -13 -13 -13 -13 -13 -12 -12 -13 -13 -13 -13 -13 -13 -12 -12 -12 -13 -13 -13 -12 -12 -13 -13 -13 -13 -13 -14 -14 -13 -13
-12 -12 -12 -13 -14 -13 -13 -13 -13 -13 -13 -13 -13 -13 -13 -13 -13 -13 -12 -12 -12 -14 -13 -13 -13 -13 -12 -12 -12 -12 -13 -13 -12 -13 -13 -12 -12 -13 -13 -13 -13 -14 -14
-12 -13 -12 -13 -13 -13 -13 -13 -13 -13 -13 -13 -13 -13 -13 -13 -13 -13 -12 -12 -12 -13 -12 -12 -12 -12 -12 -12 -12 -13 -13 -12 -13 -13 -13 -13 -13 -13 -13 -14 -14 -15 -14
-12 -12 -13 -13 -13 -14 -13 -14 -13 -13 -13 -13 -13 -13 -13 -13 -13 -13 -13 -12 -12 -13 -13 -13 -12 -12 -12 -12 -12 -13 -13 -13 -13 -14 -14 -15 -14 -14 -14 -14 -14 -14 -14
-12 -12 -13 -13 -14 -14 -14 -13 -13 -13 -13 -13 -13 -13 -13 -13 -13 -13 -13 -12 -12 -13 -13 -13 -13 -13 -13 -12 -12 -13 -12 -12 -13 -14 -14 -13 -13 -13 -14 -14 -14 -14 -14
-12 -13 -13 -13 -14 -14 -15 -14 -13 -13 -13 -13 -13 -13 -13 -13 -13 -13 -13 -12 -13 -13 -13 -13 -13 -13 -13 -13 -13 -13 -12 -12 -12 -12 -13 -13 -14 -14 -14 -14 -14 -14 -14
-12 -12 -13 -13 -14 -15 -15 -14 -13 -13 -13 -13 -13 -13 -13 -13 -13 -13 -13 -13 -13 -13 -14 -13 -13 -13 -13 -13 -13 -13 -13 -13 -13 -13 -14 -13 -13 -14 -13 -14 -14 -14 -14

GFSSE_500_temp_108.txt.gz
Temp
-9 -9 -9 -9 -9 -9 -9 -9 -9 -9 -9 -9 -8 -8 -8 -8 -8 -9 -9 -9 -9 -9 -9 -9 -9 -10 -10 -11 -11 -11 -11 -11 -11 -11 -11 -10 -10 -10 -10 -9 -9 -9 -9
-10 -9 -9 -9 -8 -8 -9 -9 -9 -9 -9 -9 -9 -8 -9 -9 -9 -9 -10 -10 -10 -10 -10 -10 -10 -10 -10 -11 -11 -11 -11 -11 -11 -11 -11 -11 -10 -10 -10 -10 -10 -10 -10
-10 -9 -9 -9 -9 -9 -9 -9 -9 -9 -9 -9 -9 -9 -9 -9 -10 -10 -10 -11 -11 -11 -11 -11 -11 -11 -11 -11 -11 -11 -11 -11 -11 -11 -11 -11 -11 -10 -10 -10 -10 -10 -10
-10 -10 -9 -9 -9 -9 -9 -9 -9 -9 -9 -9 -9 -9 -10 -10 -10 -10 -11 -11 -11 -12 -12 -12 -12 -12 -12 -12 -12 -12 -12 -12 -11 -11 -11 -11 -11 -11 -10 -10 -10 -10 -10
-10 -10 -10 -10 -9 -9 -9 -9 -9 -9 -9 -9 -9 -10 -10 -10 -11 -11 -11 -11 -12 -12 -13 -12 -12 -13 -13 -12 -12 -12 -12 -12 -12 -11 -11 -11 -11 -11 -11 -11 -11 -11 -11
-10 -10 -10 -10 -10 -10 -9 -9 -10 -10 -10 -10 -10 -10 -10 -10 -11 -11 -12 -11 -12 -12 -12 -13 -13 -12 -13 -13 -13 -13 -13 -12 -12 -12 -11 -11 -11 -11 -11 -11 -11 -11 -11
-10 -10 -10 -10 -10 -10 -10 -10 -10 -10 -10 -10 -10 -10 -11 -11 -11 -12 -12 -12 -12 -13 -12 -13 -13 -13 -13 -13 -13 -13 -13 -13 -12 -12 -12 -11 -11 -11 -11 -12 -11 -11 -12
-10 -10 -10 -10 -10 -10 -10 -10 -10 -10 -10 -10 -10 -10 -11 -11 -12 -12 -12 -12 -12 -12 -12 -13 -13 -13 -13 -13 -13 -13 -13 -13 -12 -12 -12 -12 -12 -12 -12 -12 -12 -12 -12
-11 -11 -11 -10 -10 -11 -10 -10 -11 -10 -11 -11 -11 -11 -11 -12 -12 -12 -12 -13 -13 -12 -13 -13 -13 -13 -13 -13 -13 -13 -13 -13 -13 -12 -12 -12 -12 -12 -12 -12 -12 -12 -12
-11 -11 -11 -11 -10 -11 -11 -11 -11 -11 -11 -11 -11 -11 -11 -11 -12 -12 -12 -13 -13 -13 -13 -13 -13 -13 -13 -12 -13 -13 -13 -13 -13 -13 -12 -13 -12 -12 -12 -12 -13 -13 -13
-12 -11 -11 -11 -11 -11 -11 -11 -11 -11 -11 -11 -11 -11 -11 -12 -12 -12 -13 -13 -13 -13 -13 -13 -13 -13 -13 -12 -12 -12 -13 -14 -13 -13 -13 -13 -13 -13 -12 -13 -13 -13 -13
-12 -11 -11 -11 -11 -11 -11 -11 -11 -12 -11 -11 -11 -11 -11 -12 -12 -13 -13 -13 -13 -13 -13 -13 -13 -13 -13 -12 -12 -12 -12 -13 -14 -13 -14 -13 -13 -13 -13 -13 -13 -13 -13
-12 -12 -11 -12 -11 -11 -11 -12 -11 -12 -11 -12 -11 -11 -11 -12 -12 -13 -13 -13 -13 -13 -13 -13 -13 -13 -13 -12 -12 -12 -12 -13 -13 -13 -14 -14 -13 -13 -13 -13 -13 -13 -13
-12 -12 -12 -12 -12 -12 -12 -12 -12 -12 -12 -12 -12 -12 -12 -12 -13 -13 -13 -13 -13 -13 -13 -13 -13 -13 -13 -12 -13 -12 -12 -13 -13 -14 -14 -14 -14 -13 -13 -13 -14 -14 -13
-12 -12 -12 -12 -12 -12 -12 -12 -12 -12 -12 -12 -12 -12 -12 -13 -13 -13 -13 -13 -13 -13 -13 -13 -13 -13 -12 -13 -13 -13 -13 -13 -13 -14 -14 -14 -14 -13 -13 -14 -14 -14 -13
-12 -12 -12 -12 -12 -12 -12 -12 -12 -12 -12 -12 -12 -12 -12 -13 -13 -13 -13 -13 -13 -13 -13 -13 -14 -13 -13 -13 -13 -12 -12 -13 -13 -14 -14 -14 -14 -13 -14 -14 -14 -13 -13
-12 -13 -12 -12 -12 -12 -13 -12 -12 -12 -12 -12 -12 -12 -13 -13 -13 -13 -13 -13 -13 -13 -13 -14 -13 -13 -13 -13 -13 -13 -12 -13 -13 -13 -14 -14 -14 -14 -14 -14 -13 -14 -13
-12 -12 -12 -12 -12 -12 -13 -12 -12 -12 -12 -13 -12 -13 -13 -13 -13 -13 -13 -13 -13 -13 -13 -13 -13 -13 -14 -13 -13 -13 -13 -13 -13 -13 -14 -14 -14 -14 -14 -13 -13 -13 -13
-12 -12 -12 -12 -12 -13 -13 -13 -12 -12 -12 -13 -13 -13 -13 -13 -13 -13 -13 -13 -13 -13 -13 -13 -13 -13 -13 -13 -12 -13 -13 -13 -13 -13 -13 -13 -13 -14 -13 -13 -13 -13 -13
-11 -12 -12 -12 -13 -13 -13 -13 -13 -13 -13 -13 -13 -13 -13 -13 -13 -13 -13 -13 -13 -12 -12 -13 -12 -12 -12 -13 -12 -13 -13 -13 -13 -13 -13 -13 -13 -13 -14 -13 -13 -13 -13
-12 -12 -12 -12 -12 -12 -13 -13 -13 -13 -13 -13 -13 -13 -13 -13 -13 -13 -13 -13 -13 -12 -13 -13 -13 -13 -12 -12 -12 -12 -12 -13 -13 -13 -13 -13 -14 -14 -14 -13 -13 -13 -12
-12 -12 -12 -12 -13 -12 -13 -14 -13 -13 -13 -13 -13 -13 -13 -13 -13 -13 -13 -13 -13 -12 -12 -14 -13 -13 -13 -13 -13 -13 -12 -12 -13 -13 -13 -13 -12 -12 -12 -13 -13 -13 -14
-12 -12 -11 -12 -12 -12 -13 -14 -13 -13 -13 -13 -13 -13 -13 -13 -13 -13 -13 -13 -13 -12 -13 -12 -13 -13 -13 -13 -13 -12 -12 -12 -13 -13 -13 -13 -13 -13 -14 -13 -13 -14 -14
-12 -12 -11 -12 -12 -12 -13 -14 -14 -14 -14 -13 -13 -13 -13 -13 -13 -13 -13 -13 -13 -13 -12 -12 -13 -12 -12 -12 -13 -12 -12 -12 -13 -13 -14 -13 -14 -14 -13 -13 -13 -14 -13
-12 -11 -11 -12 -12 -13 -13 -14 -14 -14 -14 -14 -13 -13 -13 -13 -13 -13 -13 -13 -13 -13 -13 -13 -13 -13 -12 -12 -12 -12 -12 -12 -12 -13 -13 -13 -13 -13 -13 -13 -13 -14 -14
-12 -12 -11 -11 -12 -12 -13 -14 -14 -15 -14 -14 -14 -14 -13 -13 -13 -13 -13 -13 -12 -13 -13 -13 -13 -13 -13 -13 -13 -13 -13 -13 -12 -12 -13 -12 -12 -12 -13 -13 -14 -14 -14

GFSSE_500_temp_111.txt.gz
Temp
-9 -9 -9 -9 -9 -8 -8 -8 -8 -8 -8 -9 -9 -8 -8 -8 -8 -8 -8 -9 -9 -9 -9 -9 -10 -10 -10 -10 -10 -10 -10 -11 -11 -11 -10 -10 -10 -10 -10 -9 -10 -9 -9
-9 -9 -9 -9 -9 -9 -8 -8 -8 -8 -8 -9 -9 -9 -9 -8 -9 -9 -9 -9 -9 -10 -10 -10 -10 -10 -10 -10 -11 -11 -11 -11 -11 -11 -11 -11 -10 -10 -10 -10 -10 -9 -10
-9 -9 -9 -9 -9 -9 -9 -9 -9 -9 -9 -9 -9 -9 -9 -9 -9 -9 -10 -10 -10 -11 -11 -11 -11 -11 -11 -11 -11 -11 -12 -11 -11 -11 -11 -11 -11 -10 -10 -10 -10 -10 -10
-9 -9 -9 -9 -9 -9 -9 -9 -9 -9 -9 -9 -9 -9 -9 -9 -9 -10 -10 -10 -11 -11 -11 -11 -11 -12 -12 -11 -11 -12 -12 -12 -11 -11 -11 -11 -11 -10 -10 -10 -10 -10 -10
-9 -9 -9 -10 -10 -10 -10 -9 -9 -9 -9 -9 -9 -9 -10 -10 -10 -10 -11 -11 -11 -11 -12 -12 -12 -12 -12 -12 -12 -12 -12 -12 -11 -11 -11 -11 -11 -11 -10 -10 -10 -10 -10
-9 -9 -9 -9 -10 -10 -10 -10 -9 -9 -9 -10 -10 -10 -10 -10 -10 -11 -11 -11 -11 -12 -12 -12 -12 -12 -12 -13 -12 -12 -13 -12 -12 -12 -11 -11 -11 -11 -11 -11 -11 -11 -11
-10 -9 -9 -9 -10 -10 -10 -10 -10 -9 -9 -10 -10 -10 -10 -10 -10 -11 -11 -12 -12 -12 -12 -12 -12 -12 -13 -13 -13 -12 -13 -13 -12 -12 -12 -11 -11 -11 -11 -11 -11 -11 -11
-10 -9 -9 -9 -10 -10 -10 -10 -10 -10 -10 -10 -10 -10 -10 -11 -11 -11 -11 -12 -12 -12 -12 -12 -12 -12 -13 -13 -13 -13 -13 -13 -12 -12 -12 -11 -11 -11 -11 -11 -11 -12 -11
-10 -9 -9 -9 -10 -10 -10 -10 -10 -10 -10 -10 -10 -10 -11 -11 -11 -11 -11 -12 -12 -12 -12 -12 -12 -12 -12 -13 -13 -13 -13 -13 -12 -12 -12 -12 -12 -12 -12 -12 -12 -12 -12
-11 -10 -9 -10 -10 -10 -10 -11 -11 -11 -10 -11 -10 -11 -11 -11 -11 -11 -11 -12 -12 -12 -12 -12 -12 -12 -12 -12 -12 -12 -12 -12 -12 -12 -12 -12 -12 -12 -12 -12 -12 -12 -12
-11 -10 -10 -10 -10 -10 -11 -11 -11 -11 -11 -11 -11 -11 -11 -11 -11 -11 -12 -12 -12 -12 -12 -13 -13 -13 -13 -12 -12 -12 -12 -12 -13 -12 -13 -12 -12 -12 -12 -12 -12 -12 -13
-11 -11 -10 -10 -10 -11 -11 -11 -11 -11 -11 -11 -11 -11 -11 -11 -11 -11 -12 -12 -12 -12 -12 -13 -13 -13 -13 -13 -13 -12 -12 -12 -12 -13 -13 -13 -13 -13 -13 -12 -12 -13 -13
-11 -11 -11 -10 -11 -11 -11 -12 -12 -11 -11 -11 -11 -11 -11 -11 -11 -12 -12 -12 -13 -13 -12 -13 -13 -13 -13 -13 -13 -13 -12 -12 -12 -12 -14 -13 -13 -13 -13 -13 -13 -13 -13
-11 -12 -11 -11 -11 -11 -11 -12 -12 -12 -12 -12 -11 -12 -11 -11 -11 -12 -12 -13 -13 -13 -13 -13 -13 -12 -12 -13 -13 -13 -12 -12 -12 -12 -13 -13 -13 -13 -13 -13 -13 -13 -13
-11 -12 -11 -11 -11 -11 -11 -12 -12 -12 -12 -12 -12 -12 -12 -12 -12 -12 -12 -13 -13 -13 -13 -13 -13 -13 -13 -13 -12 -13 -12 -13 -13 -12 -13 -13 -13 -13 -13 -13 -13 -13 -14
-12 -12 -12 -11 -12 -11 -11 -12 -12 -12 -12 -12 -12 -12 -12 -12 -12 -12 -13 -13 -13 -13 -13 -13 -13 -12 -13 -13 -12 -13 -12 -12 -12 -12 -12 -13 -13 -13 -13 -13 -13 -14 -14
-12 -12 -11 -12 -12 -11 -12 -12 -12 -12 -12 -12 -12 -12 -12 -12 -12 -12 -13 -13 -13 -13 -13 -13 -13 -13 -13 -13 -13 -12 -13 -13 -12 -12 -12 -13 -13 -13 -13 -14 -14 -14 -14
-12 -12 -11 -12 -12 -12 -12 -12 -12 -12 -12 -12 -13 -13 -12 -12 -12 -12 -13 -13 -13 -13 -13 -13 -13 -13 -13 -13 -13 -12 -13 -13 -12 -12 -13 -13 -13 -13 -13 -14 -14 -14 -14
-11 -11 -11 -12 -12 -12 -12 -12 -12 -12 -12 -13 -13 -13 -13 -13 -13 -13 -13 -13 -13 -13 -12 -13 -13 -13 -13 -13 -13 -13 -13 -13 -12 -13 -14 -13 -13 -13 -13 -14 -13 -13 -13
-11 -11 -11 -12 -12 -12 -12 -12 -12 -13 -12 -13 -13 -13 -13 -13 -13 -13 -13 -13 -13 -13 -13 -13 -13 -14 -12 -12 -13 -13 -13 -13 -13 -13 -14 -13 -13 -13 -13 -13 -14 -14 -14
-12 -12 -12 -12 -12 -12 -12 -12 -12 -13 -13 -13 -13 -13 -13 -13 -13 -13 -12 -13 -13 -13 -13 -13 -13 -13 -13 -13 -12 -13 -13 -12 -13 -13 -13 -13 -13 -13 -13 -13 -14 -14 -14
-12 -12 -12 -12 -12 -12 -12 -12 -12 -13 -13 -13 -13 -13 -13 -13 -13 -13 -13 -13 -13 -13 -13 -13 -12 -12 -13 -12 -13 -12 -12 -13 -12 -13 -13 -13 -13 -13 -13 -14 -14 -14 -14
-12 -12 -12 -12 -12 -11 -12 -12 -12 -13 -13 -13 -14 -13 -13 -13 -13 -13 -13 -13 -13 -13 -13 -12 -12 -13 -13 -13 -12 -13 -12 -12 -12 -12 -13 -12 -13 -13 -13 -14 -15 -14 -14
-12 -11 -12 -12 -12 -11 -12 -12 -12 -13 -13 -13 -14 -13 -13 -14 -14 -13 -13 -13 -13 -13 -13 -13 -12 -12 -13 -13 -13 -13 -13 -13 -12 -12 -13 -13 -13 -13 -14 -14 -13 -13 -13
-12 -12 -12 -12 -12 -11 -11 -12 -12 -12 -13 -13 -14 -14 -14 -14 -14 -13 -13 -13 -13 -13 -13 -13 -12 -13 -13 -13 -13 -13 -13 -13 -12 -12 -12 -13 -13 -13 -14 -13 -13 -13 -13
-11 -12 -12 -12 -12 -12 -11 -12 -12 -13 -13 -13 -14 -14 -14 -14 -14 -13 -13 -13 -13 -13 -13 -12 -13 -12 -13 -13 -13 -13 -13 -13 -12 -12 -13 -12 -13 -12 -13 -13 -12 -13 -13

GFSSE_500_temp_114.txt.gz
Temp
-9 -9 -9 -9 -9 -8 -8 -8 -8 -8 -8 -8 -8 -8 -8 -8 -8 -8 -8 -8 -8 -8 -9 -9 -9 -9 -9 -9 -10 -10 -10 -10 -10 -10 -10 -11 -10 -10 -10 -10 -10 -10 -9
-9 -9 -9 -9 -9 -9 -9 -9 -9 -8 -8 -8 -8 -8 -8 -8 -8 -9 -8 -9 -9 -9 -10 -10 -10 -10 -10 -10 -10 -10 -10 -10 -10 -10 -10 -11 -10 -10 -10 -10 -10 -10 -10
-8 -9 -9 -9 -9 -9 -9 -9 -9 -9 -9 -9 -9 -9 -9 -8 -9 -9 -9 -9 -9 -10 -10 -11 -11 -11 -11 -11 -11 -10 -10 -10 -10 -10 -11 -11 -11 -10 -10 -10 -10 -10 -10
-9 -9 -9 -9 -9 -8 -9 -9 -9 -9 -9 -9 -9 -9 -9 -9 -9 -9 -9 -10 -10 -10 -11 -11 -11 -11 -12 -12 -12 -11 -11 -10 -10 -11 -11 -11 -11 -11 -11 -10 -10 -10 -10
-9 -8 -8 -8 -9 -9 -8 -9 -9 -9 -9 -9 -9 -9 -9 -9 -9 -10 -10 -10 -10 -10 -11 -11 -11 -11 -11 -12 -12 -12 -11 -11 -11 -11 -11 -11 -11 -11 -11 -11 -11 -11 -10
-9 -8 -8 -8 -9 -9 -9 -9 -9 -9 -9 -9 -9 -9 -9 -10 -10 -10 -10 -10 -11 -11 -11 -11 -11 -12 -12 -12 -12 -13 -12 -11 -11 -11 -12 -12 -11 -11 -11 -11 -11 -11 -11
-9 -8 -8 -8 -9 -9 -9 -9 -9 -9 -10 -10 -10 -10 -10 -10 -10 -10 -10 -11 -11 -11 -11 -12 -12 -12 -12 -12 -12 -12 -13 -12 -12 -11 -12 -12 -12 -11 -11 -11 -11 -11 -11
-9 -8 -8 -8 -9 -9 -9 -9 -9 -10 -10 -10 -10 -10 -10 -10 -10 -10 -11 -11 -11 -11 -12 -12 -12 -12 -12 -12 -13 -13 -12 -12 -12 -12 -11 -12 -12 -12 -11 -11 -11 -11 -11
-10 -9 -8 -8 -8 -9 -9 -9 -9 -10 -10 -10 -10 -10 -10 -11 -10 -11 -11 -11 -11 -11 -12 -12 -12 -12 -12 -12 -13 -13 -12 -12 -12 -12 -12 -12 -12 -12 -12 -11 -11 -11 -12
-10 -9 -8 -9 -9 -9 -9 -10 -10 -10 -10 -10 -10 -10 -10 -11 -11 -11 -11 -11 -11 -11 -12 -12 -12 -12 -12 -12 -12 -13 -12 -12 -12 -12 -12 -12 -12 -12 -12 -12 -12 -12 -12
-10 -10 -9 -9 -9 -9 -9 -10 -10 -10 -11 -11 -11 -10 -11 -11 -11 -11 -11 -11 -11 -11 -12 -12 -12 -13 -12 -12 -12 -12 -12 -12 -12 -12 -12 -12 -12 -12 -12 -12 -12 -12 -12
-10 -10 -10 -10 -10 -10 -10 -10 -10 -10 -11 -11 -11 -11 -11 -11 -11 -11 -11 -11 -11 -12 -12 -12 -13 -13 -13 -12 -12 -12 -13 -12 -12 -12 -12 -12 -13 -12 -12 -12 -12 -12 -12
-11 -10 -11 -10 -10 -10 -10 -10 -10 -11 -11 -11 -11 -11 -11 -11 -11 -11 -11 -11 -11 -12 -12 -12 -13 -13 -13 -13 -12 -12 -12 -13 -12 -12 -12 -12 -13 -13 -13 -12 -12 -13 -13
-11 -11 -11 -11 -11 -10 -10 -11 -11 -11 -11 -11 -12 -12 -11 -11 -12 -11 -11 -11 -12 -12 -12 -13 -13 -13 -13 -12 -12 -12 -12 -12 -12 -12 -12 -13 -13 -14 -13 -13 -13 -13 -13
-10 -11 -11 -11 -11 -11 -11 -11 -10 -11 -11 -11 -12 -12 -12 -12 -12 -12 -11 -12 -12 -12 -13 -13 -13 -13 -13 -13 -13 -13 -13 -13 -12 -12 -12 -12 -12 -14 -13 -13 -12 -13 -13
-11 -11 -10 -11 -11 -11 -11 -11 -11 -11 -12 -11 -12 -12 -12 -12 -12 -12 -12 -12 -12 -12 -13 -13 -13 -13 -13 -13 -13 -13 -13 -13 -13 -12 -12 -12 -12 -14 -13 -13 -13 -13 -14
-11 -12 -10 -11 -11 -11 -11 -12 -11 -11 -12 -11 -11 -12 -12 -12 -12 -12 -12 -12 -12 -12 -13 -13 -13 -13 -13 -13 -13 -13 -13 -13 -13 -13 -13 -13 -12 -13 -13 -13 -13 -13 -14
-12 -12 -12 -11 -11 -11 -11 -12 -12 -12 -11 -12 -12 -12 -12 -12 -12 -12 -12 -12 -13 -13 -13 -13 -13 -13 -13 -13 -13 -13 -13 -13 -13 -12 -12 -12 -12 -12 -13 -13 -13 -13 -13
-12 -12 -12 -11 -10 -12 -12 -12 -11 -12 -12 -12 -11 -12 -12 -12 -13 -12 -12 -12 -13 -13 -13 -13 -13 -13 -13 -13 -13 -13 -13 -13 -13 -13 -13 -13 -12 -13 -14 -13 -13 -13 -13
-12 -12 -11 -11 -11 -12 -12 -12 -11 -12 -12 -12 -11 -12 -12 -13 -13 -13 -13 -13 -13 -13 -13 -13 -13 -13 -13 -13 -13 -13 -13 -13 -13 -13 -13 -12 -12 -13 -14 -14 -13 -13 -13
-11 -11 -11 -12 -11 -11 -12 -12 -12 -12 -13 -12 -12 -12 -12 -13 -13 -13 -13 -13 -13 -13 -13 -13 -13 -13 -13 -13 -13 -13 -13 -13 -13 -13 -13 -13 -13 -13 -14 -14 -13 -13 -13
-11 -11 -12 -12 -12 -11 -11 -12 -12 -12 -12 -12 -12 -12 -13 -13 -13 -13 -13 -13 -13 -13 -13 -13 -13 -13 -13 -13 -13 -13 -13 -13 -13 -13 -13 -13 -13 -13 -14 -14 -14 -14 -14
-11 -12 -12 -12 -11 -12 -11 -11 -11 -12 -12 -12 -13 -12 -12 -13 -13 -13 -14 -13 -13 -13 -13 -13 -13 -13 -13 -13 -13 -13 -13 -12 -13 -13 -12 -13 -13 -13 -13 -14 -13 -14 -14
-11 -12 -11 -11 -11 -11 -11 -11 -11 -12 -12 -12 -12 -12 -12 -12 -13 -13 -14 -14 -13 -13 -13 -13 -13 -13 -13 -13 -13 -13 -13 -13 -12 -13 -13 -13 -13 -13 -13 -13 -14 -14 -14
-11 -12 -11 -12 -12 -12 -12 -11 -11 -12 -12 -12 -12 -12 -12 -12 -13 -13 -14 -14 -13 -13 -13 -13 -13 -13 -13 -13 -13 -13 -13 -13 -13 -13 -13 -13 -13 -13 -13 -13 -13 -13 -14
-12 -11 -11 -12 -12 -12 -12 -11 -11 -12 -12 -11 -12 -12 -12 -12 -13 -13 -14 -14 -13 -13 -13 -13 -13 -13 -13 -12 -13 -13 -13 -13 -13 -13 -13 -13 -13 -13 -13 -13 -13 -13 -13

GFSSE_500_temp_117.txt.gz
Temp
-9 -9 -9 -9 -9 -9 -9 -9 -9 -9 -9 -8 -8 -8 -8 -8 -8 -8 -8 -8 -8 -9 -8 -9 -9 -9 -10 -10 -10 -10 -10 -10 -10 -10 -10 -10 -11 -10 -10 -10 -10 -10 -10
-9 -9 -9 -9 -9 -9 -9 -9 -9 -9 -9 -8 -8 -8 -8 -8 -9 -8 -9 -9 -9 -9 -9 -9 -10 -9 -10 -10 -10 -10 -10 -10 -10 -10 -10 -10 -10 -10 -10 -10 -10 -10 -10
-9 -9 -9 -9 -9 -9 -9 -9 -9 -9 -8 -9 -9 -9 -9 -9 -9 -9 -9 -9 -9 -9 -10 -10 -10 -10 -10 -10 -10 -11 -10 -10 -10 -10 -10 -10 -11 -11 -11 -11 -10 -10 -10
-9 -9 -9 -9 -9 -9 -9 -9 -8 -8 -9 -9 -9 -9 -9 -9 -9 -9 -9 -9 -9 -10 -10 -11 -11 -11 -11 -11 -11 -10 -10 -10 -10 -10 -10 -11 -11 -11 -11 -11 -11 -11 -10
-9 -9 -9 -9 -9 -8 -8 -8 -8 -9 -9 -9 -9 -9 -9 -9 -10 -10 -10 -10 -10 -10 -10 -11 -11 -11 -11 -11 -11 -11 -10 -11 -11 -11 -11 -12 -11 -12 -11 -11 -11 -11 -11
-9 -9 -9 -8 -8 -8 -8 -8 -9 -9 -9 -9 -9 -10 -10 -10 -10 -10 -10 -10 -10 -11 -11 -11 -11 -12 -11 -11 -11 -11 -11 -11 -11 -12 -12 -11 -12 -12 -12 -11 -11 -11 -11
-9 -9 -8 -8 -8 -8 -8 -9 -9 -9 -9 -9 -10 -10 -10 -10 -10 -10 -10 -11 -11 -11 -11 -11 -11 -11 -12 -12 -11 -11 -12 -12 -12 -12 -12 -12 -12 -12 -12 -12 -12 -11 -11
-9 -9 -8 -8 -8 -8 -8 -9 -9 -9 -9 -9 -10 -10 -10 -10 -10 -10 -10 -11 -11 -11 -11 -11 -11 -11 -11 -11 -11 -11 -12 -12 -12 -12 -13 -12 -12 -12 -12 -12 -12 -11 -11
-10 -10 -9 -8 -8 -8 -9 -9 -9 -9 -9 -9 -10 -10 -10 -11 -11 -11 -11 -11 -11 -11 -11 -11 -11 -12 -11 -11 -12 -12 -13 -13 -12 -13 -13 -13 -12 -13 -12 -12 -12 -12 -11
-10 -10 -9 -8 -8 -8 -8 -9 -9 -9 -9 -9 -10 -10 -11 -11 -11 -11 -11 -11 -11 -11 -11 -11 -12 -12 -12 -12 -12 -12 -13 -13 -13 -13 -12 -12 -13 -13 -13 -12 -12 -12 -12
-10 -10 -9 -9 -8 -8 -8 -9 -9 -9 -9 -9 -10 -10 -11 -11 -11 -11 -11 -11 -11 -11 -11 -11 -12 -12 -12 -12 -12 -13 -13 -12 -12 -13 -13 -12 -13 -13 -13 -13 -12 -12 -12
-10 -10 -10 -9 -9 -9 -9 -9 -9 -9 -10 -10 -10 -10 -11 -11 -11 -11 -11 -11 -11 -11 -12 -12 -12 -12 -12 -13 -12 -12 -12 -12 -12 -13 -13 -13 -13 -13 -13 -13 -12 -12 -12
-10 -10 -11 -10 -10 -10 -10 -9 -10 -10 -10 -10 -10 -10 -11 -11 -11 -11 -12 -11 -11 -11 -12 -12 -12 -12 -13 -13 -13 -12 -12 -12 -13 -13 -13 -13 -12 -13 -13 -13 -13 -12 -12
-11 -11 -11 -11 -11 -11 -10 -10 -10 -10 -10 -10 -10 -11 -11 -11 -12 -12 -12 -12 -11 -11 -12 -12 -12 -12 -13 -13 -13 -13 -13 -12 -13 -13 -13 -13 -12 -12 -13 -13 -13 -13 -13
-10 -11 -11 -11 -11 -11 -10 -11 -11 -11 -11 -11 -11 -11 -11 -11 -12 -12 -12 -12 -12 -12 -12 -12 -12 -12 -13 -13 -13 -13 -13 -12 -12 -13 -13 -12 -13 -12 -13 -13 -13 -14 -14
-10 -10 -11 -11 -11 -11 -11 -11 -11 -11 -11 -11 -11 -11 -11 -12 -12 -12 -12 -12 -12 -12 -12 -13 -13 -13 -13 -13 -13 -13 -13 -13 -13 -13 -13 -12 -12 -12 -12 -12 -14 -14 -14
-11 -11 -10 -11 -12 -12 -11 -11 -11 -12 -11 -11 -12 -12 -12 -12 -12 -12 -12 -12 -12 -12 -12 -13 -13 -13 -13 -13 -13 -13 -13 -13 -13 -13 -12 -12 -13 -13 -12 -13 -15 -14 -14
-11 -11 -10 -10 -11 -11 -12 -12 -11 -11 -11 -12 -12 -11 -12 -12 -12 -12 -13 -13 -12 -12 -13 -13 -13 -13 -13 -13 -13 -13 -13 -14 -14 -14 -13 -13 -13 -13 -13 -13 -14 -14 -14
-12 -12 -11 -10 -10 -11 -11 -12 -12 -11 -12 -12 -12 -12 -11 -11 -11 -12 -13 -13 -13 -12 -13 -13 -13 -13 -13 -13 -13 -13 -13 -13 -14 -13 -13 -13 -13 -13 -13 -13 -15 -14 -15
-12 -12 -13 -11 -10 -11 -11 -12 -12 -12 -11 -12 -13 -12 -12 -12 -11 -12 -12 -13 -13 -13 -13 -13 -13 -13 -13 -13 -13 -13 -13 -13 -13 -13 -13 -13 -13 -13 -13 -13 -14 -14 -14
-12 -12 -11 -11 -11 -11 -12 -12 -12 -12 -12 -11 -11 -13 -12 -12 -12 -13 -12 -13 -13 -13 -13 -13 -13 -13 -13 -13 -13 -13 -13 -13 -13 -13 -14 -13 -13 -13 -13 -13 -14 -14 -14
-12 -12 -11 -11 -11 -11 -11 -12 -11 -12 -12 -12 -12 -12 -12 -13 -13 -13 -12 -13 -13 -14 -13 -13 -13 -13 -13 -13 -13 -13 -13 -13 -13 -13 -13 -13 -13 -13 -13 -13 -13 -14 -14
-12 -12 -12 -11 -11 -11 -11 -11 -11 -12 -12 -12 -12 -12 -12 -12 -13 -13 -13 -13 -13 -14 -14 -13 -13 -13 -13 -13 -13 -13 -13 -14 -14 -13 -12 -13 -13 -13 -13 -13 -14 -14 -14
-13 -13 -13 -12 -12 -11 -11 -11 -11 -11 -12 -12 -12 -12 -11 -12 -12 -13 -13 -13 -13 -14 -14 -13 -14 -14 -13 -13 -13 -13 -13 -13 -14 -13 -13 -13 -13 -13 -13 -13 -13 -14 -14
-12 -12 -11 -11 -12 -12 -12 -11 -11 -11 -11 -12 -11 -11 -12 -11 -12 -12 -13 -14 -14 -14 -14 -13 -14 -14 -14 -13 -13 -13 -13 -14 -14 -13 -13 -13 -13 -13 -13 -13 -13 -13 -14
-11 -11 -11 -11 -12 -12 -12 -11 -11 -11 -11 -12 -11 -11 -11 -11 -12 -12 -13 -14 -14 -14 -14 -14 -13 -13 -14 -13 -13 -13 -13 -14 -14 -13 -13 -13 -13 -13 -13 -13 -13 -13 -13

GFSSE_500_temp_120.txt.gz
Temp
-9 -9 -9 -9 -9 -9 -9 -9 -9 -9 -9 -9 -9 -9 -9 -9 -9 -9 -9 -8 -8 -8 -9 -9 -9 -9 -9 -10 -10 -10 -10 -11 -11 -10 -10 -10 -11 -11 -11 -10 -10 -10 -10
-9 -10 -9 -9 -9 -9 -9 -9 -9 -9 -9 -9 -9 -9 -9 -9 -9 -9 -9 -9 -9 -9 -9 -9 -9 -10 -10 -10 -10 -11 -11 -11 -11 -11 -11 -11 -11 -11 -11 -10 -11 -10 -10
-9 -10 -10 -9 -9 -8 -8 -9 -9 -9 -9 -9 -9 -9 -9 -9 -9 -9 -9 -9 -9 -9 -10 -10 -10 -10 -10 -10 -10 -11 -11 -11 -11 -12 -11 -11 -11 -11 -11 -11 -11 -11 -11
-9 -9 -9 -9 -9 -9 -8 -9 -9 -9 -9 -9 -9 -9 -9 -9 -9 -9 -9 -9 -10 -10 -10 -10 -10 -10 -11 -11 -11 -11 -11 -12 -12 -12 -12 -12 -11 -12 -12 -12 -12 -11 -11
-9 -9 -9 -9 -9 -9 -9 -9 -9 -8 -8 -9 -9 -9 -9 -9 -10 -9 -10 -10 -10 -10 -10 -10 -11 -11 -11 -11 -11 -11 -12 -12 -12 -12 -12 -12 -12 -12 -12 -11 -12 -12 -11
-9 -9 -9 -9 -9 -9 -9 -9 -8 -8 -8 -9 -9 -9 -10 -10 -10 -10 -10 -10 -10 -10 -11 -11 -11 -11 -11 -11 -11 -11 -11 -12 -12 -12 -12 -12 -12 -12 -12 -12 -12 -12 -12
-10 -9 -9 -9 -8 -9 -9 -9 -9 -9 -9 -9 -9 -9 -10 -10 -10 -10 -10 -10 -10 -11 -11 -11 -11 -11 -11 -11 -11 -11 -12 -12 -12 -13 -13 -12 -12 -13 -12 -12 -12 -12 -12
-10 -10 -9 -9 -8 -9 -9 -9 -9 -9 -9 -9 -9 -10 -10 -10 -11 -11 -11 -10 -11 -11 -11 -11 -11 -11 -12 -11 -11 -11 -12 -12 -12 -13 -13 -13 -12 -13 -13 -13 -12 -12 -12
-10 -10 -10 -10 -9 -9 -9 -9 -9 -9 -9 -9 -9 -10 -10 -10 -11 -11 -11 -11 -11 -11 -11 -11 -11 -12 -12 -11 -12 -12 -12 -12 -12 -13 -13 -13 -13 -12 -13 -13 -13 -12 -12
-10 -11 -10 -10 -9 -9 -9 -9 -9 -9 -9 -9 -10 -10 -10 -10 -11 -11 -11 -11 -11 -11 -11 -11 -11 -12 -12 -12 -12 -12 -12 -13 -13 -13 -13 -13 -13 -12 -13 -13 -13 -12 -12
-11 -11 -10 -10 -9 -9 -9 -9 -9 -9 -9 -9 -10 -10 -10 -10 -11 -11 -11 -11 -11 -11 -11 -11 -12 -12 -12 -12 -12 -12 -12 -13 -13 -13 -13 -13 -12 -13 -12 -13 -13 -13 -12
-11 -11 -11 -11 -10 -10 -9 -9 -9 -9 -9 -10 -10 -10 -10 -10 -11 -11 -11 -11 -11 -11 -11 -11 -12 -12 -12 -12 -12 -12 -13 -13 -13 -13 -13 -12 -13 -13 -13 -13 -13 -13 -12
-11 -10 -10 -11 -10 -10 -10 -9 -10 -9 -10 -10 -10 -11 -11 -11 -11 -11 -11 -12 -12 -11 -11 -11 -12 -12 -13 -13 -13 -12 -13 -12 -13 -13 -13 -13 -12 -13 -13 -13 -13 -13 -13
-10 -10 -10 -11 -11 -10 -10 -10 -10 -10 -10 -10 -10 -11 -11 -11 -11 -11 -12 -12 -12 -12 -12 -12 -12 -13 -13 -13 -13 -13 -13 -13 -13 -13 -13 -13 -13 -13 -13 -13 -13 -13 -13
-11 -11 -11 -11 -11 -11 -11 -11 -11 -11 -11 -11 -11 -11 -11 -11 -11 -11 -12 -12 -12 -12 -12 -12 -12 -13 -13 -13 -13 -13 -13 -13 -13 -13 -13 -13 -12 -13 -13 -12 -13 -14 -13
-11 -11 -11 -11 -11 -11 -11 -11 -11 -11 -11 -11 -11 -11 -11 -11 -12 -12 -12 -12 -12 -13 -12 -12 -12 -13 -13 -13 -13 -13 -14 -13 -13 -13 -13 -13 -13 -13 -13 -12 -12 -13 -13
-12 -11 -11 -12 -11 -12 -12 -12 -11 -11 -11 -11 -12 -12 -11 -12 -12 -12 -12 -12 -13 -13 -13 -12 -12 -13 -13 -13 -13 -13 -14 -13 -13 -13 -13 -13 -13 -12 -13 -13 -12 -12 -13
-11 -11 -11 -11 -12 -12 -12 -12 -11 -11 -12 -12 -12 -12 -12 -12 -12 -12 -12 -12 -12 -13 -13 -13 -13 -13 -13 -13 -13 -13 -13 -13 -14 -14 -14 -14 -13 -12 -12 -13 -12 -13 -14
-11 -11 -11 -11 -11 -12 -12 -12 -12 -12 -12 -12 -12 -13 -12 -12 -12 -12 -12 -12 -12 -13 -13 -13 -13 -13 -13 -13 -13 -13 -13 -13 -13 -14 -14 -14 -13 -13 -13 -13 -13 -13 -13
-12 -12 -11 -11 -11 -11 -12 -11 -11 -12 -12 -12 -12 -12 -12 -12 -12 -12 -12 -12 -12 -13 -13 -13 -13 -13 -13 -13 -13 -13 -14 -13 -13 -13 -13 -14 -13 -13 -13 -13 -13 -13 -13
-12 -12 -11 -12 -12 -11 -11 -12 -12 -12 -12 -12 -12 -12 -13 -12 -12 -12 -12 -13 -13 -13 -13 -13 -13 -13 -13 -13 -13 -13 -13 -14 -13 -13 -13 -14 -14 -13 -13 -13 -13 -13 -13
-13 -13 -12 -12 -12 -12 -12 -12 -12 -12 -12 -12 -12 -12 -13 -13 -12 -12 -12 -13 -13 -13 -13 -13 -13 -13 -13 -13 -13 -13 -14 -14 -13 -13 -13 -14 -13 -13 -13 -13 -13 -13 -14
-13 -14 -13 -13 -13 -12 -12 -12 -12 -12 -12 -12 -12 -12 -13 -12 -12 -12 -12 -12 -13 -13 -13 -13 -14 -13 -13 -13 -13 -13 -14 -14 -14 -13 -14 -14 -14 -13 -13 -13 -13 -13 -14
-14 -13 -13 -13 -13 -13 -12 -12 -12 -12 -12 -12 -12 -11 -12 -12 -12 -12 -12 -12 -12 -13 -14 -14 -14 -14 -14 -14 -13 -13 -14 -14 -14 -14 -13 -14 -13 -14 -13 -13 -13 -13 -13
-13 -12 -12 -12 -12 -12 -12 -12 -12 -12 -12 -12 -13 -12 -12 -12 -12 -12 -12 -12 -12 -13 -14 -14 -14 -14 -14 -14 -13 -13 -14 -13 -13 -13 -13 -14 -14 -14 -14 -13 -13 -13 -13
-13 -12 -12 -12 -12 -12 -12 -12 -13 -12 -12 -12 -12 -12 -12 -12 -11 -12 -12 -12 -13 -13 -14 -14 -14 -14 -14 -14 -14 -14 -14 -13 -13 -13 -13 -14 -14 -14 -13 -13 -13 -14 -14

GFSSE_500_temp_123.txt.gz
Temp
-8 -9 -9 -8 -9 -9 -9 -9 -9 -9 -9 -9 -9 -9 -8 -8 -9 -9 -9 -9 -9 -9 -9 -9 -9 -9 -9 -10 -10 -11 -11 -11 -11 -11 -11 -11 -11 -11 -11 -11 -11 -11 -11
-8 -9 -9 -9 -9 -9 -9 -9 -9 -9 -9 -9 -9 -9 -9 -9 -9 -9 -9 -9 -9 -9 -10 -10 -10 -10 -10 -10 -10 -11 -11 -12 -12 -11 -11 -11 -11 -11 -11 -11 -12 -11 -11
-9 -9 -10 -9 -9 -9 -9 -9 -8 -9 -9 -9 -9 -9 -9 -9 -9 -9 -10 -10 -10 -10 -10 -10 -10 -10 -10 -10 -11 -11 -11 -12 -12 -12 -12 -12 -11 -12 -11 -12 -11 -12 -11
-10 -10 -10 -9 -9 -9 -9 -9 -9 -9 -9 -9 -8 -8 -8 -9 -9 -9 -10 -10 -10 -10 -10 -10 -10 -11 -11 -11 -11 -11 -11 -12 -12 -12 -12 -12 -12 -12 -12 -12 -12 -12 -12
-10 -10 -10 -9 -9 -9 -9 -9 -9 -9 -9 -9 -8 -8 -8 -9 -9 -10 -10 -10 -10 -11 -11 -11 -11 -11 -11 -11 -11 -11 -12 -12 -12 -12 -12 -12 -12 -12 -12 -12 -12 -12 -12
-10 -10 -10 -9 -9 -9 -9 -9 -9 -9 -9 -9 -9 -9 -8 -9 -9 -10 -10 -10 -10 -11 -11 -11 -11 -11 -11 -11 -11 -12 -12 -12 -12 -12 -12 -13 -13 -13 -12 -12 -12 -12 -12
-10 -10 -10 -10 -9 -9 -9 -9 -9 -9 -9 -9 -9 -9 -9 -9 -9 -10 -10 -11 -11 -11 -11 -11 -11 -11 -11 -11 -12 -12 -12 -12 -12 -12 -12 -13 -13 -13 -13 -12 -12 -12 -12
-10 -10 -10 -10 -10 -9 -9 -9 -9 -9 -9 -9 -9 -9 -9 -9 -10 -10 -10 -11 -11 -11 -11 -11 -11 -11 -11 -11 -12 -12 -12 -12 -12 -12 -12 -13 -14 -13 -13 -13 -12 -13 -12
-10 -10 -10 -10 -10 -10 -9 -9 -10 -10 -9 -9 -9 -9 -9 -10 -10 -10 -11 -11 -11 -11 -11 -11 -11 -11 -11 -11 -12 -12 -12 -12 -12 -13 -13 -13 -13 -13 -13 -13 -13 -13 -12
-10 -11 -11 -11 -10 -10 -9 -10 -10 -10 -10 -9 -9 -9 -9 -10 -10 -10 -11 -11 -11 -11 -11 -11 -11 -11 -11 -11 -12 -13 -12 -13 -13 -13 -13 -13 -13 -13 -13 -12 -13 -13 -13
-10 -10 -11 -11 -10 -10 -10 -10 -10 -10 -10 -10 -10 -9 -10 -10 -10 -10 -11 -11 -12 -11 -11 -11 -11 -11 -11 -12 -12 -12 -13 -13 -13 -13 -13 -13 -13 -13 -13 -13 -13 -13 -13
-11 -11 -11 -11 -10 -10 -10 -10 -10 -10 -10 -10 -10 -10 -10 -10 -11 -10 -11 -11 -12 -12 -12 -11 -11 -11 -11 -12 -12 -13 -13 -13 -13 -13 -13 -13 -13 -13 -13 -13 -13 -13 -13
-11 -11 -11 -11 -11 -11 -10 -10 -10 -10 -10 -10 -10 -10 -10 -11 -11 -11 -11 -11 -11 -12 -12 -12 -11 -11 -12 -12 -12 -13 -13 -13 -13 -13 -13 -13 -13 -13 -13 -13 -13 -13 -13
-11 -11 -11 -11 -12 -12 -11 -11 -11 -10 -10 -10 -10 -10 -11 -11 -11 -11 -11 -11 -11 -12 -12 -12 -12 -12 -12 -12 -12 -13 -13 -13 -13 -13 -13 -13 -12 -13 -13 -13 -13 -13 -13
-11 -11 -11 -12 -12 -12 -11 -11 -11 -11 -11 -11 -11 -10 -11 -11 -12 -12 -12 -12 -12 -12 -12 -12 -12 -12 -12 -12 -12 -13 -13 -13 -13 -13 -13 -13 -13 -12 -13 -13 -13 -13 -13
-11 -11 -11 -11 -12 -12 -12 -12 -12 -12 -12 -12 -11 -11 -11 -12 -12 -12 -12 -12 -12 -12 -12 -12 -12 -12 -12 -12 -13 -13 -13 -14 -13 -13 -14 -13 -13 -13 -13 -13 -13 -13 -13
-11 -12 -12 -11 -11 -12 -12 -12 -12 -12 -12 -12 -12 -11 -12 -12 -12 -13 -12 -12 -12 -12 -12 -12 -13 -13 -13 -13 -13 -13 -13 -13 -14 -13 -13 -13 -14 -13 -13 -13 -13 -13 -13
-12 -12 -13 -12 -12 -12 -12 -12 -12 -12 -12 -12 -12 -12 -12 -12 -12 -13 -13 -13 -13 -12 -13 -13 -13 -13 -13 -13 -13 -13 -13 -13 -14 -13 -13 -14 -14 -14 -14 -13 -13 -13 -13
-12 -13 -13 -13 -13 -13 -13 -13 -13 -13 -13 -12 -13 -13 -13 -12 -12 -13 -13 -13 -13 -13 -13 -13 -13 -13 -13 -13 -13 -13 -13 -13 -13 -14 -13 -14 -14 -14 -14 -13 -13 -13 -13
-12 -13 -13 -14 -13 -13 -13 -13 -13 -13 -13 -13 -13 -13 -13 -13 -13 -12 -13 -13 -13 -13 -13 -13 -13 -13 -13 -13 -13 -13 -13 -13 -14 -14 -14 -13 -14 -13 -14 -14 -13 -13 -13
-13 -13 -13 -13 -13 -13 -13 -12 -13 -13 -13 -13 -13 -13 -12 -13 -13 -13 -13 -13 -13 -13 -13 -13 -13 -14 -13 -13 -13 -13 -13 -13 -14 -14 -14 -13 -13 -14 -14 -14 -13 -13 -13
-14 -13 -13 -13 -14 -13 -12 -12 -13 -13 -13 -13 -13 -13 -13 -13 -14 -13 -13 -12 -12 -13 -13 -13 -13 -13 -14 -14 -14 -13 -13 -14 -14 -14 -13 -14 -13 -13 -13 -14 -13 -13 -13
-15 -14 -13 -13 -13 -14 -13 -12 -13 -14 -14 -13 -14 -15 -14 -14 -13 -13 -13 -12 -12 -13 -13 -13 -14 -14 -14 -14 -14 -13 -13 -13 -14 -14 -14 -13 -14 -14 -13 -12 -13 -13 -13
-14 -13 -13 -13 -13 -13 -13 -12 -12 -13 -13 -13 -13 -13 -13 -13 -13 -13 -13 -13 -13 -13 -13 -13 -14 -14 -14 -14 -14 -14 -13 -13 -14 -14 -14 -13 -13 -14 -14 -14 -13 -13 -13
-14 -14 -13 -13 -13 -13 -13 -13 -12 -12 -13 -13 -14 -14 -14 -13 -13 -13 -13 -13 -13 -13 -13 -13 -13 -13 -13 -14 -14 -14 -14 -13 -13 -14 -14 -13 -13 -13 -14 -14 -13 -14 -14
-13 -14 -13 -14 -14 -14 -14 -13 -13 -13 -13 -13 -14 -14 -14 -13 -13 -13 -13 -13 -13 -13 -13 -13 -14 -13 -13 -14 -14 -14 -14 -14 -13 -13 -14 -13 -13 -13 -14 -14 -14 -14 -14